[[{"header":{"parameterUnit":"m.s-1","parameterCategory":1,"la1":30.6,"la2":28.766,"lo1":-90.7593,"lo2":-88.6598,"dx":0.0162,"dy":0.0183,"nx":116,"ny":114,"refTime":"2023-01-07T06:00:00:Z","depth":0,"parameterNumber":2,"parameterNumberName":"U-component_of_WINDS"},"data":[0.0,0.0,0.0,0.0,0.0,0.0,0.0,0.0,0.0,0.0,0.0,0.0,0.0,0.0,0.0,0.0,0.0,0.0,0.0,0.0,0.0,0.0,0.0,0.0,0.0,0.0,0.0,0.0,0.0,0.0,0.0,0.0,0.0,0.0,0.0,0.0,0.0,0.0,0.0,0.0,0.0,0.0,0.0,0.0,0.0,0.0,0.0,0.0,0.0,0.0,0.0,0.0,0.0,0.0,0.0,0.0,0.0,0.0,0.0,0.0,0.0,0.0,0.0,0.0,0.0,0.0,0.0,0.0,0.0,0.0,0.0,0.0,0.0,0.0,0.0,0.0,0.0,0.0,0.0,0.0,0.0,0.0,0.0,0.0,0.0,0.0,0.0,0.0,0.0,0.0,0.0,0.0,0.0,0.0,0.0,0.0,0.0,0.0,0.0,0.0,0.0,0.0,0.0,0.0,0.0,0.0,0.0,0.0,0.0,0.0,0.0,0.0,0.0,0.0,0.0,0.0,0.0,0.0,0.0,0.0,0.0,0.0,0.0,0.0,0.0,0.0,0.0,0.0,0.0,0.0,0.0,0.0,0.0,0.0,0.0,0.0,0.0,0.0,0.0,0.0,0.0,0.0,0.0,0.0,0.0,0.0,0.0,0.0,0.0,0.0,0.0,0.0,0.0,0.0,0.0,0.0,0.0,0.0,0.0,0.0,0.0,0.0,0.0,0.0,0.0,0.0,0.0,0.0,0.0,0.0,0.0,0.0,0.0,0.0,0.0,0.0,0.0,0.0,0.0,0.0,0.0,0.0,0.0,0.0,0.0,0.0,0.0,0.0,0.0,0.0,0.0,0.0,0.0,0.0,0.0,0.0,0.0,0.0,0.0,0.0,0.0,0.0,0.0,0.0,0.0,0.0,0.0,0.0,0.0,0.0,0.0,0.0,0.0,0.0,0.0,0.0,0.0,0.0,0.0,0.0,0.0,0.0,0.0,0.0,0.0,0.0,0.0,0.0,0.0,0.0,0.0,0.0,0.0,0.0,0.0,0.0,0.0,0.0,0.0,0.0,0.0,0.0,0.0,0.0,0.0,0.0,0.0,0.0,0.0,0.0,0.0,0.0,0.0,0.0,0.0,0.0,0.0,0.0,0.0,0.0,0.0,0.0,0.0,0.0,0.0,0.0,0.0,0.0,0.0,0.0,0.0,0.0,0.0,0.0,0.0,0.0,0.0,0.0,0.0,0.0,0.0,0.0,0.0,0.0,0.0,0.0,0.0,0.0,0.0,0.0,0.0,0.0,0.0,0.0,0.0,0.0,0.0,0.0,0.0,0.0,0.0,0.0,0.0,0.0,0.0,0.0,0.0,0.0,0.0,0.0,0.0,0.0,0.0,0.0,0.0,0.0,0.0,0.0,0.0,0.0,0.0,0.0,0.0,0.0,0.0,0.0,0.0,0.0,0.0,0.0,0.0,0.0,0.0,0.0,0.0,0.0,0.0,0.0,0.0,0.0,0.0,0.0,0.0,0.0,0.0,0.0,0.0,0.0,0.0,0.0,0.0,0.0,0.0,0.0,0.0,0.0,0.0,0.0,0.0,0.0,0.0,0.0,0.0,0.0,0.0,0.0,0.0,0.0,0.0,0.0,0.0,0.0,0.0,0.0,0.0,0.0,0.0,0.0,0.0,0.0,0.0,0.0,0.0,0.0,0.0,0.0,0.0,0.0,0.0,0.0,0.0,0.0,0.0,0.0,0.0,0.0,0.0,0.0,0.0,0.0,0.0,0.0,0.0,0.0,0.0,0.0,0.0,0.0,0.0,0.0,0.0,0.0,0.0,0.0,0.0,0.0,0.0,0.0,0.0,0.0,0.0,0.0,0.0,0.0,0.0,0.0,0.0,0.0,0.0,0.0,0.0,0.0,0.0,0.0,0.0,0.0,0.0,0.0,0.0,0.0,0.0,0.0,0.0,0.0,0.0,0.0,0.0,0.0,0.0,0.0,0.0,0.0,0.0,0.0,0.0,0.0,0.0,0.0,0.0,0.0,0.0,0.0,0.0,0.0,0.0,0.0,0.0,0.0,0.0,0.0,0.0,0.0,0.0,0.0,0.0,0.0,0.0,0.0,0.0,0.0,0.0,0.0,0.0,0.0,0.0,0.0,0.0,0.0,0.0,0.0,0.0,0.0,0.0,0.0,0.0,0.0,0.0,0.0,0.0,0.0,0.0,0.0,0.0,0.0,0.0,0.0,0.0,0.0,0.0,0.0,0.0,0.0,0.0,0.0,0.0,0.0,0.0,0.0,0.0,0.0,0.0,0.0,0.0,0.0,0.0,0.0,0.0,0.0,0.0,0.0,0.0,0.0,0.0,0.0,0.0,0.0,0.0,0.0,0.0,0.0,0.0,0.0,0.0,0.0,0.0,0.0,0.0,0.0,0.0,0.0,0.0,0.0,0.0,0.0,0.0,0.0,0.0,0.0,0.0,0.0,0.0,0.0,0.0,0.0,0.0,0.0,0.0,0.0,0.0,0.0,0.0,0.0,0.0,0.0,0.0,0.0,0.0,0.0,0.0,0.0,0.0,0.0,0.0,0.0,0.0,0.0,0.0,0.0,0.0,0.0,0.0,0.0,0.0,0.0,0.0,0.0,0.0,0.0,0.0,0.0,0.0,0.0,0.0,0.0,0.0,0.0,0.0,0.0,0.0,0.0,0.0,0.0,0.0,0.0,0.0,0.0,0.0,0.0,0.0,0.0,0.0,0.0,0.0,0.0,0.0,0.0,0.0,0.0,0.0,0.0,0.0,0.0,0.0,0.0,0.0,0.0,0.0,0.0,0.0,0.0,0.0,0.0,0.0,0.0,0.0,0.0,0.0,0.0,0.0,0.0,0.0,0.0,0.0,0.0,0.0,0.0,0.0,0.0,0.0,0.0,0.0,0.0,0.0,0.0,0.0,0.0,0.0,0.0,0.0,0.0,0.0,0.0,0.0,0.0,0.0,0.0,0.0,0.0,0.0,0.0,0.0,0.0,0.0,0.0,0.0,0.0,0.0,0.0,0.0,0.0,0.0,0.0,0.0,0.0,0.0,0.0,0.0,0.0,0.0,0.0,0.0,0.0,0.0,0.0,0.0,0.0,0.0,0.0,0.0,0.0,0.0,0.0,0.0,0.0,0.0,0.0,0.0,0.0,0.0,0.0,0.0,0.0,0.0,0.0,0.0,0.0,0.0,0.0,0.0,0.0,0.0,0.0,0.0,0.0,0.0,0.0,0.0,0.0,0.0,0.0,0.0,0.0,0.0,0.0,0.0,0.0,0.0,0.0,0.0,0.0,0.0,0.0,0.0,0.0,0.0,0.0,0.0,0.0,0.0,0.0,0.0,0.0,0.0,0.0,0.0,0.0,0.0,0.0,0.0,0.0,0.0,0.0,0.0,0.0,0.0,0.0,0.0,0.0,0.0,0.0,0.0,0.0,0.0,0.0,0.0,0.0,0.0,0.0,0.0,0.0,0.0,0.0,0.0,0.0,0.0,0.0,0.0,0.0,0.0,0.0,0.0,0.0,0.0,0.0,0.0,0.0,0.0,0.0,0.0,0.0,0.0,0.0,0.0,0.0,0.0,0.0,0.0,0.0,0.0,0.0,0.0,0.0,0.0,0.0,0.0,0.0,0.0,0.0,0.0,0.0,0.0,0.0,0.0,0.0,0.0,0.0,0.0,0.0,0.0,0.0,0.0,0.0,0.0,0.0,0.0,0.0,0.0,0.0,0.0,0.0,0.0,0.0,0.0,0.0,0.0,0.0,0.0,0.0,0.0,0.0,0.0,0.0,0.0,0.0,0.0,0.0,0.0,0.0,0.0,0.0,0.0,0.0,0.0,0.0,0.0,0.0,0.0,0.0,0.0,0.0,0.0,0.0,0.0,0.0,0.0,0.0,0.0,0.0,0.0,0.0,0.0,0.0,0.0,0.0,0.0,0.0,0.0,0.0,0.0,0.0,0.0,0.0,0.0,0.0,0.0,0.0,0.0,0.0,0.0,0.0,0.0,0.0,0.0,0.0,0.0,0.0,0.0,0.0,0.0,0.0,0.0,0.0,0.0,0.0,0.0,0.0,0.0,0.0,0.0,0.0,0.0,0.0,0.0,0.0,0.0,0.0,0.0,0.0,0.0,0.0,0.0,0.0,0.0,0.0,0.0,0.0,0.0,0.0,0.0,0.0,0.0,0.0,0.0,0.0,0.0,0.0,0.0,0.0,0.0,0.0,0.0,0.0,0.0,0.0,0.0,0.0,0.0,0.0,0.0,0.0,0.0,0.0,0.0,0.0,0.0,0.0,0.0,0.0,0.0,0.0,0.0,0.0,0.0,0.0,0.0,0.0,0.0,0.0,0.0,0.0,0.0,0.0,0.0,0.0,0.0,0.0,0.0,0.0,0.0,0.0,0.0,0.0,0.0,0.0,0.0,0.0,0.0,0.0,0.0,0.0,0.0,0.0,0.0,0.0,0.0,0.0,0.0,0.0,0.0,0.0,0.0,0.0,0.0,0.0,0.0,0.0,0.0,0.0,0.0,0.0,0.0,0.0,0.0,0.0,0.0,0.0,0.0,0.0,0.0,0.0,0.0,0.0,0.0,0.0,0.0,0.0,0.0,0.0,0.0,0.0,0.0,0.0,0.0,0.0,0.0,0.0,0.0,0.0,0.0,0.0,0.0,0.0,0.0,0.0,0.0,0.0,0.0,0.0,0.0,0.0,0.0,0.0,0.0,0.0,0.0,0.0,0.0,0.0,0.0,0.0,0.0,0.0,0.0,0.0,0.0,0.0,0.0,0.0,0.0,0.0,0.0,0.0,0.0,0.0,0.0,0.0,0.0,0.0,0.0,0.0,0.0,0.0,0.0,0.0,0.0,0.0,0.0,0.0,0.0,0.0,0.0,0.0,0.0,0.0,0.0,0.0,0.0,0.0,0.0,0.0,0.0,0.0,0.0,0.0,0.0,0.0,0.0,0.0,0.0,0.0,0.0,0.0,0.0,0.0,0.0,0.0,0.0,0.0,0.0,0.0,0.0,0.0,0.0,0.0,0.0,0.0,0.0,0.0,0.0,0.0,0.0,0.0,0.0,0.0,0.0,0.0,0.0,0.0,0.0,0.0,0.0,0.0,0.0,0.0,0.0,0.0,0.0,0.0,0.0,0.0,0.0,0.0,0.0,0.0,0.0,0.0,0.0,0.0,0.0,0.0,0.0,0.0,0.0,0.0,0.0,0.0,0.0,0.0,0.0,0.0,0.0,0.0,0.0,0.0,0.0,0.0,0.0,0.0,0.0,0.0,0.0,0.0,0.0,0.0,0.0,0.0,0.0,0.0,0.0,0.0,0.0,0.0,0.0,0.0,0.0,0.0,0.0,0.0,0.0,0.0,0.0,0.0,0.0,0.0,0.0,0.0,0.0,0.0,0.0,0.0,0.0,0.0,0.0,0.0,0.0,0.0,0.0,0.0,0.0,0.0,0.0,0.0,0.0,0.0,0.0,0.0,0.0,0.0,0.0,0.0,0.0,0.0,0.0,0.0,0.0,0.0,0.0,0.0,0.0,0.0,0.0,0.0,0.0,0.0,0.0,0.0,0.0,0.0,0.0,0.0,0.0,0.0,0.0,0.0,0.0,0.0,0.0,0.0,0.0,0.0,0.0,0.0,0.0,0.0,0.0,0.0,0.0,0.0,0.0,0.0,0.0,0.0,0.0,0.0,0.0,0.0,0.0,0.0,0.0,0.0,0.0,0.0,0.0,0.0,0.0,0.0,0.0,0.0,0.0,0.0,0.0,0.0,0.0,0.0,0.0,0.0,0.0,0.0,0.0,0.0,0.0,0.0,0.0,0.0,0.0,0.0,0.0,0.0,0.0,0.0,0.0,0.0,0.0,0.0,0.0,0.0,0.0,0.0,0.0,0.0,0.0,0.0,0.0,0.0,0.0,0.0,0.0,0.0,0.0,0.0,0.0,0.0,0.0,0.0,0.0,0.0,0.0,0.0,0.0,0.0,0.0,0.0,0.0,0.0,0.0,0.0,0.0,0.0,0.0,0.0,0.0,0.0,0.0,0.0,0.0,0.0,0.0,0.0,0.0,0.0,-2.661,0.0,0.0,0.0,0.0,0.0,0.0,0.0,0.0,0.0,0.0,0.0,0.0,0.0,0.0,0.0,0.0,0.0,0.0,0.0,0.0,0.0,0.0,0.0,0.0,-0.8126,-0.85,-0.9119,-0.8974,0.0,0.0,0.0,0.0,0.0,0.0,0.0,0.0,0.0,-0.9747,-1.037,-1.1795,-1.4279,-1.7631,-1.6616,-1.4812,-1.2363,0.0,0.0,0.0,0.0,0.0,0.0,0.0,0.0,0.0,0.0,0.0,0.0,0.0,0.0,0.0,0.0,0.0,0.0,0.0,0.0,0.0,0.0,0.0,0.0,0.0,0.0,0.0,0.0,0.0,0.0,0.0,0.0,0.0,0.0,0.0,0.0,0.0,0.0,0.0,0.0,0.0,0.0,0.0,0.0,0.0,0.0,0.0,0.0,0.0,0.0,0.0,0.0,0.0,0.0,0.0,0.0,0.0,0.0,0.0,0.0,0.0,0.0,0.0,0.0,0.0,0.0,0.0,0.0,0.0,0.0,0.0,-2.7679,0.0,0.0,0.0,0.0,0.0,0.0,0.0,0.0,0.0,0.0,0.0,0.0,0.0,0.0,0.0,0.0,0.0,0.0,0.0,0.0,0.0,-0.7161,-0.8247,-0.8574,-0.9129,-1.0141,-0.9652,-0.9374,-0.9525,-0.8876,0.0,0.0,0.0,0.0,0.0,-0.9585,-1.0445,-1.2027,-1.549,-1.8958,-2.2335,-2.3116,-2.0776,-1.591,-1.4756,0.0,0.0,0.0,0.0,0.0,0.0,0.0,0.0,0.0,0.0,0.0,0.0,0.0,0.0,0.0,0.0,0.0,0.0,0.0,0.0,0.0,0.0,0.0,0.0,0.0,0.0,0.0,0.0,0.0,0.0,0.0,0.0,0.0,0.0,0.0,0.0,0.0,0.0,0.0,0.0,0.0,0.0,0.0,0.0,0.0,0.0,0.0,0.0,0.0,0.0,0.0,0.0,0.0,0.0,0.0,0.0,0.0,0.0,0.0,0.0,0.0,0.0,0.0,-3.2901,-3.3015,-3.3048,-3.3156,-3.3548,-3.4067,-3.2873,-3.1261,-2.9428,-2.83,0.0,0.0,0.0,0.0,0.0,0.0,0.0,0.0,0.0,0.0,0.0,0.0,0.0,0.0,0.0,0.0,0.0,0.0,0.0,-0.7837,-0.9245,-0.9779,-1.0462,-1.145,-1.0896,-1.0376,-1.012,-0.9292,0.0,0.0,0.0,0.0,-0.9559,-0.9813,-1.184,-1.5708,-2.2074,-2.5051,-2.4849,-2.5702,-2.5405,-2.4062,-2.2363,-2.0755,-1.929,0.0,0.0,0.0,0.0,0.0,0.0,0.0,0.0,0.0,0.0,0.0,0.0,0.0,0.0,0.0,0.0,0.0,0.0,0.0,0.0,0.0,0.0,0.0,0.0,0.0,0.0,0.0,0.0,0.0,0.0,0.0,0.0,0.0,0.0,0.0,0.0,0.0,0.0,0.0,0.0,0.0,-3.0424,-2.8772,0.0,0.0,0.0,0.0,0.0,0.0,0.0,0.0,0.0,0.0,0.0,0.0,0.0,-3.2076,-3.2225,-3.2454,-3.2934,-3.3648,-3.504,-3.5964,-3.6502,-3.7815,-3.835,-3.8174,-3.7601,0.0,-3.184,-3.0472,0.0,0.0,0.0,0.0,0.0,0.0,0.0,0.0,0.0,0.0,0.0,0.0,0.0,0.0,0.0,0.0,0.0,0.0,0.0,0.0,0.0,-1.1906,-1.3789,-1.4351,-1.6463,-1.6442,-1.3267,-1.2921,0.0,0.0,0.0,-0.9557,-0.9643,-1.2202,-1.6589,-2.2816,-2.6638,-2.8791,-2.937,-3.0161,-3.0251,-2.9745,-2.9507,-2.6581,-2.1805,-2.1298,0.0,0.0,0.0,0.0,0.0,0.0,0.0,0.0,0.0,0.0,0.0,0.0,0.0,0.0,0.0,0.0,0.0,0.0,0.0,0.0,0.0,0.0,0.0,0.0,0.0,0.0,0.0,0.0,0.0,0.0,0.0,0.0,0.0,0.0,0.0,0.0,0.0,0.0,0.0,-2.9136,-2.9935,-2.8599,-2.9159,-2.8606,0.0,0.0,0.0,0.0,0.0,0.0,0.0,0.0,0.0,-3.0795,-3.3475,-3.4894,-3.4846,-3.6309,-3.7214,-3.7581,-3.8173,-3.8555,-3.875,-3.9307,-3.9458,-3.9253,-3.873,-3.732,-3.5266,-3.3153,-3.0912,-2.8713,0.0,0.0,0.0,0.0,-2.5093,-2.4779,0.0,0.0,0.0,0.0,0.0,0.0,0.0,0.0,0.0,0.0,0.0,0.0,-1.0709,-1.4927,-1.773,-1.7922,-2.1075,-2.0963,-1.6086,-1.563,-1.3794,-0.9805,-0.9624,-0.9651,-0.9715,-1.509,-2.1084,-2.7644,-2.9651,-3.1137,-3.2086,-3.2168,-3.2331,-3.2539,-3.3167,-3.0447,-2.5359,-2.4988,-2.2739,-1.926,0.0,0.0,0.0,0.0,0.0,0.0,0.0,0.0,0.0,0.0,0.0,0.0,0.0,0.0,0.0,0.0,0.0,0.0,0.0,0.0,0.0,0.0,0.0,0.0,0.0,0.0,0.0,0.0,0.0,0.0,0.0,0.0,0.0,0.0,0.0,0.0,0.0,-2.9641,-3.0372,-2.8734,-2.9957,-2.9879,0.0,0.0,0.0,0.0,0.0,0.0,-2.9848,-3.2598,-3.4052,-3.387,-3.6397,-3.775,-3.7694,-3.9604,-4.0559,-4.0545,-4.0353,-4.0213,-4.0062,-3.9897,-3.9698,-3.9464,-3.8915,-3.8287,-3.7521,-3.5046,-3.2704,-3.0507,-2.9204,-2.7777,-2.6447,-2.6131,-2.594,-2.578,0.0,0.0,0.0,0.0,0.0,0.0,0.0,0.0,0.0,0.0,0.0,-1.3324,-1.4678,-1.9047,-2.1942,-2.2087,-2.225,-2.0823,-1.7242,-1.5533,-1.3427,-1.0653,-0.9989,-0.9722,-0.98,-1.7935,-2.3837,-2.7217,-3.0866,-3.2087,-3.0944,-2.9248,-2.9537,-3.1464,-3.1046,-3.113,-3.1503,-3.066,-2.8296,-2.4717,-2.0482,0.0,0.0,0.0,0.0,0.0,0.0,0.0,0.0,0.0,0.0,0.0,0.0,0.0,0.0,0.0,0.0,0.0,0.0,0.0,0.0,0.0,0.0,0.0,0.0,0.0,0.0,0.0,0.0,0.0,0.0,0.0,0.0,0.0,0.0,0.0,0.0,0.0,0.0,-3.0702,-3.1864,0.0,0.0,0.0,0.0,-3.2314,-3.3372,-3.3567,-3.2745,-3.5959,-3.7472,-3.6714,-3.9291,-4.068,-4.0682,-4.0742,-4.0754,-4.068,-4.0559,-4.0422,-4.0283,-4.0139,-3.9859,-3.9476,-3.9044,-3.8332,-3.7291,-3.5367,-3.2968,-3.0409,-2.9299,-2.686,-2.4073,-2.4998,-2.4887,-2.4313,0.0,0.0,0.0,-0.5306,-0.5384,-0.5557,-0.5723,-0.5904,-0.6357,-0.7304,-1.0818,-1.3805,-1.532,-2.1696,-2.5711,-2.5272,-2.8293,-2.7978,-2.2724,-2.0315,-1.7641,-1.4355,-1.1975,-1.3253,-1.8621,-2.3035,-2.7189,-3.1131,-3.1455,-3.0552,-2.8368,-2.7022,-2.6606,-2.7078,-2.8427,-2.9892,-3.1409,-3.2044,-3.0643,-2.7721,-2.4526,-2.169,0.0,0.0,0.0,0.0,0.0,0.0,0.0,0.0,0.0,0.0,0.0,0.0,0.0,0.0,0.0,0.0,0.0,0.0,0.0,0.0,0.0,0.0,0.0,0.0,0.0,0.0,0.0,0.0,0.0,0.0,0.0,0.0,0.0,0.0,0.0,0.0,0.0,-3.3894,-3.5398,0.0,-3.266,-3.2341,-3.2485,-3.2873,-3.4828,-3.5872,-3.5563,-3.8351,-3.9833,-3.9546,-4.0469,-4.0968,-4.0953,-4.0908,-4.0855,-4.0818,-4.0742,-4.0653,-4.0554,-4.0386,-4.0101,-3.9719,-3.9016,-3.8031,-3.6814,-3.5263,-3.3701,-3.2192,-3.1176,-2.9371,-2.7319,-2.7131,-2.6507,-2.5837,0.0,0.0,0.0,-0.4835,-0.5054,-0.5293,-0.5378,-0.5756,-0.6804,-0.8942,-1.2666,-1.6086,-1.8633,-2.5098,-2.8946,-2.817,-3.1508,-3.1013,-2.4768,-2.2292,-1.9204,-1.5053,-1.362,-1.6519,-2.421,-2.5945,-2.8479,-3.1965,-3.0596,-2.8694,-2.637,-2.4986,-2.455,-2.5004,-2.6529,-2.8639,-3.1048,-3.2319,-3.2154,-3.08,-2.827,-2.5375,-2.2294,0.0,0.0,0.0,0.0,0.0,0.0,0.0,0.0,0.0,0.0,0.0,0.0,0.0,0.0,0.0,0.0,0.0,0.0,0.0,0.0,0.0,0.0,0.0,0.0,0.0,0.0,0.0,0.0,0.0,0.0,0.0,0.0,0.0,0.0,0.0,-3.4462,-3.5232,-3.6852,-3.7194,-3.5424,-3.5166,-3.5252,-3.5564,-3.7313,-3.8336,-3.8281,-3.998,-4.0954,-4.0923,-4.0954,-4.0976,-4.0975,-4.0914,-4.0915,-4.0929,-4.0869,-4.0821,-4.0791,-4.0563,-4.0206,-3.9791,-3.8868,-3.7675,-3.6272,-3.4701,-3.3265,-3.1936,-3.1138,-2.9722,-2.7937,-2.6867,-2.6057,-2.5507,0.0,0.0,-0.429,-0.4208,-0.4633,-0.502,-0.5175,-0.5815,-0.781,-1.2053,-1.6164,-2.0358,-2.4759,-2.9227,-3.1579,-3.0794,-3.1375,-2.9175,-2.2987,-2.0977,-1.7737,-1.2636,-1.498,-1.9336,-2.5568,-2.6392,-2.7584,-2.9281,-2.8219,-2.6816,-2.5041,-2.3108,-2.3359,-2.5395,-2.5403,-2.7397,-3.0803,-3.1703,-3.2883,-3.3881,-3.1526,-2.9119,-2.6553,0.0,0.0,0.0,0.0,0.0,0.0,0.0,0.0,0.0,0.0,0.0,0.0,0.0,0.0,0.0,0.0,0.0,0.0,0.0,0.0,0.0,0.0,0.0,0.0,0.0,0.0,0.0,0.0,0.0,0.0,0.0,0.0,0.0,-3.0622,-3.3767,-3.5566,-3.4715,-3.6155,-3.7207,-3.7203,-3.7205,-3.8246,-4.0701,-4.0953,-4.0933,-4.0793,-4.0844,-4.0857,-4.0785,-4.0838,-4.0869,-4.0869,-4.0883,-4.0926,-4.0973,-4.0926,-4.0933,-4.0978,-4.066,-4.0191,-3.9619,-3.8591,-3.7202,-3.5557,-3.3746,-3.1582,-2.9349,-2.9002,-2.7584,-2.5444,-2.4058,-2.3271,-2.2963,-0.5056,-0.4705,-0.435,-0.4104,-0.4301,-0.4675,-0.5185,-0.5611,-0.753,-1.214,-1.6146,-2.0433,-2.5397,-2.9409,-3.1669,-3.1446,-3.1574,-2.9641,-2.4908,-2.1769,-1.8557,-1.5137,-2.0308,-2.4072,-2.5727,-2.7188,-2.8115,-2.8499,-2.6911,-2.5009,-2.2842,-2.1116,-2.0381,-2.0475,-2.2259,-2.4474,-2.698,-2.9268,-3.0795,-3.1704,-3.2239,-3.1429,-2.9697,0.0,0.0,0.0,0.0,0.0,0.0,0.0,0.0,0.0,0.0,0.0,0.0,0.0,0.0,0.0,0.0,0.0,0.0,0.0,0.0,0.0,0.0,0.0,0.0,0.0,0.0,0.0,0.0,0.0,0.0,0.0,0.0,-3.3115,-3.4375,-3.5286,-3.6632,-3.8843,-3.9511,-3.9754,-3.9719,-3.9707,-3.9974,-4.0625,-4.0704,-4.0645,-4.051,-4.0533,-4.0455,-4.0299,-4.0359,-4.0372,-4.0331,-4.0502,-4.0616,-4.0634,-4.0774,-4.0848,-4.0856,-4.0655,-3.9953,-3.8765,-3.7553,-3.5687,-3.3311,-3.1434,-2.9252,-2.7207,-2.8165,-2.6881,-2.4448,-2.4314,-2.3374,-2.1924,-0.5409,-0.5121,-0.487,-0.4595,-0.4642,-0.4907,-0.5512,-0.5778,-0.8046,-1.3951,-1.6886,-2.076,-2.6949,-2.9608,-3.0972,-3.1025,-2.9963,-2.7677,-2.389,-2.0314,-1.8789,-1.9759,-2.354,-2.5891,-2.6457,-2.7893,-2.8049,-2.6897,-2.5536,-2.398,-2.2215,-2.0989,-2.0072,-1.9597,-2.1652,-2.3501,-2.5163,-2.7326,-2.8594,-2.9277,-3.0773,-3.1012,-3.0369,-2.9337,-2.8277,-2.7168,-2.6231,-2.5653,-2.5271,-2.4975,0.0,0.0,0.0,0.0,0.0,0.0,0.0,0.0,0.0,0.0,0.0,0.0,0.0,0.0,0.0,0.0,0.0,0.0,0.0,0.0,0.0,0.0,0.0,0.0,-3.1841,-3.4643,-3.6409,-3.6993,-3.8069,-4.0335,-4.0565,-4.0517,-4.0456,-4.0409,-4.0367,-4.0275,-4.0269,-4.0226,-4.0072,-4.0106,-4.002,-3.985,-3.9948,-3.9947,-3.9852,-4.0038,-4.0181,-4.0327,-4.03,-4.0412,-4.0638,-4.0449,-3.9695,0.0,-3.7723,-3.5657,-3.2677,-3.0348,-2.7442,0.0,0.0,0.0,0.0,0.0,-2.1096,-1.9906,-0.5759,-0.5581,-0.549,-0.5329,-0.53,-0.5476,-0.6029,-0.6175,-0.8912,-1.641,-1.7933,-2.1152,-2.8582,-2.9646,-2.9894,-3.0021,-2.7608,-2.4683,-2.1384,-1.8466,-1.9283,-2.4715,-2.5223,-2.5964,-2.7183,-2.8061,-2.7334,-2.5007,-2.4223,-2.3439,-2.258,-2.183,-2.135,-2.1043,-2.248,-2.3636,-2.4608,-2.5748,-2.6416,-2.6737,-2.7875,-2.8786,-2.9493,-2.9274,-2.8894,-2.8347,-2.7656,-2.6973,-2.6408,-2.6701,0.0,0.0,0.0,0.0,0.0,0.0,0.0,0.0,0.0,0.0,0.0,0.0,0.0,0.0,0.0,0.0,0.0,0.0,0.0,0.0,0.0,0.0,0.0,0.0,-3.245,-3.4764,-3.728,-3.8546,-3.9431,-4.0072,-4.0146,-4.0106,-4.0021,-3.9947,-3.9852,-3.9702,-3.9702,-3.9615,-3.9486,0.0,0.0,0.0,0.0,-3.9505,-3.9363,-3.9429,-3.9631,-3.9947,-3.97,-3.9838,-4.0319,-4.013,-3.9414,-3.8315,-3.7985,-3.572,-3.2022,-2.9027,-2.5103,-2.1052,-2.1911,-2.1363,-1.9833,-1.8296,-1.7528,-1.7189,-0.5989,-0.5492,-0.5227,-0.5364,-0.5276,-0.5588,-0.6651,-0.6608,-0.905,-1.6349,-1.7988,-2.0912,-2.7368,-2.8874,-2.9476,-2.9586,-2.7363,-2.4537,-2.1252,-2.2128,-2.313,-2.3939,-2.6025,-2.6819,-2.5982,-2.5987,-2.5447,-2.4304,-2.3511,-2.2898,-2.2516,-2.1977,-2.1531,-2.1151,-2.2172,-2.288,-2.3377,-2.4429,-2.4757,-2.4606,-2.4997,-2.669,-2.911,-3.0535,-3.1111,-3.1199,-3.1629,-3.1492,-3.1093,-3.1157,-2.995,-2.8403,-2.8519,-2.6817,0.0,0.0,0.0,0.0,0.0,0.0,0.0,0.0,0.0,0.0,0.0,0.0,0.0,0.0,0.0,0.0,0.0,0.0,0.0,-3.1658,-3.4363,-3.661,-3.7689,-3.8614,-3.9368,-3.9812,-3.9768,-3.9656,-3.9472,-3.94,-3.9258,-3.9005,-3.9005,-3.8869,-3.8667,-3.8859,-3.882,-3.8462,-3.8633,-3.8711,-3.8621,-3.8641,-3.8776,-3.9051,0.0,0.0,-3.9827,-4.0124,-3.8957,-3.6644,-3.4689,-3.1019,-2.6243,-2.2501,-1.8182,-1.4128,-1.5661,-1.6128,-1.5832,-1.5242,-1.4743,-1.4408,-0.6498,-0.6225,-0.6051,-0.6088,-0.6092,-0.6411,-0.7311,-0.711,-0.8924,-1.4646,-1.5991,-1.8217,-2.3023,-2.4163,-2.4551,-2.4448,-2.3393,-2.2239,-2.1026,-2.289,-2.4619,-2.5893,-2.681,-2.6761,-2.5562,-2.5496,-2.4879,-2.3767,-2.3201,-2.2831,-2.2682,-2.3044,-2.3035,-2.2682,-2.3246,-2.3336,-2.3111,-2.3251,-2.2917,-2.2348,-2.2857,-2.3778,-2.5214,-2.8088,-2.9643,-3.0348,-3.1237,-3.1585,-3.1585,-3.1427,-3.0855,-3.0173,-3.0134,-2.8846,-2.7133,0.0,0.0,0.0,0.0,0.0,0.0,0.0,0.0,0.0,0.0,0.0,0.0,0.0,0.0,-2.7817,0.0,0.0,-3.1525,-3.258,-3.4965,-3.6914,-3.7468,-3.8232,-3.8905,-3.9383,-3.9301,-3.9109,-3.8915,-3.8781,-3.8584,-3.8332,-3.83,-3.8241,-3.808,-3.8044,-3.8011,-3.7948,-3.7737,-3.7737,-3.7948,-3.7442,-3.7323,-3.7598,-3.7344,-3.753,-3.8111,-3.8342,-3.7287,-3.5128,-3.3061,-2.8993,-2.3307,-1.6083,-1.1153,-0.812,-0.8088,-0.9728,-1.2247,-1.2287,-1.1954,-1.1605,-0.7011,-0.7133,-0.7145,-0.6971,-0.697,-0.725,-0.7991,-0.7722,-0.8874,-1.2908,-1.3964,-1.5552,-1.8801,-1.9488,-1.946,-1.8893,-1.9934,-2.0734,-2.0994,-2.3263,-2.5616,-2.7911,-2.7198,-2.6266,-2.5298,-2.54,-2.4829,-2.3555,-2.3289,-2.3139,-2.3043,-2.4476,-2.4673,-2.382,-2.4501,-2.4079,-2.2752,-2.2274,-2.1479,-2.0666,-2.1318,-2.1244,-2.1123,-2.4354,-2.6505,-2.7967,-2.8946,-2.965,-3.0197,-3.0369,-3.0644,-3.0913,-3.0924,-3.0422,-2.9497,-2.7651,-2.7779,0.0,0.0,0.0,0.0,0.0,0.0,0.0,0.0,0.0,-2.789,-2.8664,-2.9062,-2.9448,-2.9879,-3.1066,-3.2283,-3.3211,-3.4914,-3.6326,-3.7047,-3.7615,-3.8183,-3.873,-3.8707,-3.8572,-3.8396,-3.8183,-3.7929,-3.765,-3.7667,-3.7596,-3.7431,-3.7266,-3.7137,-3.7082,-3.6738,-3.6422,-3.6164,-3.5545,-3.5147,-3.5113,-3.4239,-3.4643,-3.6031,-3.441,-3.3127,-3.1975,-2.7993,-2.3435,-1.8074,-0.8842,-0.3991,-0.2278,-0.0917,-0.3044,-0.6994,-0.8338,-0.8505,-0.8083,-0.7302,-0.7657,-0.78,-0.7467,-0.7242,-0.7474,-0.8606,-0.8478,-0.9467,-1.2795,-1.3949,-1.5463,-1.8053,-1.8684,-1.8371,-1.6958,-2.1359,-2.3436,-2.1569,-2.5365,-2.7607,-2.7408,-2.6556,-2.5631,-2.4536,-2.4848,-2.4697,-2.4115,-2.3888,-2.3774,-2.3815,-2.5918,-2.5311,-2.2539,-2.4873,-2.4217,-2.1342,-2.1741,-2.1376,-2.0635,-2.0719,-2.0398,-1.9998,-2.0831,-2.277,-2.5228,-2.6054,-2.7022,-2.8148,-2.9883,-3.0061,-2.9782,-3.1207,-3.0619,-2.9347,-2.9078,-2.7893,-2.6654,-2.6525,0.0,0.0,-2.7229,-2.7724,-2.8121,0.0,0.0,-2.8282,-2.8213,-2.8041,-2.845,-3.0194,-3.0472,-3.1219,-3.3523,-3.4376,-3.5227,-3.6647,-3.6914,-3.712,-3.756,-3.7946,-3.8101,-3.7897,-3.7632,-3.7394,-3.7126,-3.7147,-3.6974,-3.6492,-3.6643,-3.6177,-3.4901,-3.529,-3.4255,-3.1464,-3.2031,-3.1726,-3.0513,-2.9721,-3.1205,-3.4353,-2.6689,-2.3867,-2.4386,-1.2518,-0.6229,-0.3996,0.0735,0.3076,0.3776,0.3658,0.3565,0.2918,-0.1899,-0.3301,-0.2944,-0.797,-0.8266,-0.8568,-0.8849,-0.8323,-0.8093,-0.8799,-0.8809,-0.9421,-1.1321,-1.2081,-1.287,-1.3913,-1.4152,-1.4059,-1.357,-1.8903,-2.1912,-2.1027,-2.5338,-2.7698,-2.7208,-2.611,-2.5346,-2.5067,-2.5132,-2.5008,-2.4629,-2.4053,-2.4396,-2.554,-2.4265,-2.4051,-2.4697,-2.3189,-2.2072,-2.1269,-2.1172,-2.0721,-2.0055,-1.9967,-1.9562,-1.8861,-1.8046,-1.949,-2.2198,-2.4151,-2.5545,0.0,-2.8746,-2.9381,-2.9592,-3.1352,-3.0844,-2.9586,-2.9871,-2.8938,-2.8052,-2.8905,0.0,0.0,0.0,-2.8817,-2.882,-2.8936,-2.9075,-2.9354,-3.0028,-3.0275,-3.0656,-3.1663,-3.196,-3.2384,0.0,-3.4276,-3.5107,-3.5762,-3.6042,-3.6504,-3.7416,-3.7396,-3.7283,-3.7132,-3.6921,-3.6684,-3.6326,-3.6207,-3.6002,-3.5688,-3.5057,-3.4386,-3.3578,-3.2688,-3.1773,-3.0919,-2.9506,-2.8604,-2.8075,-2.6344,-2.4106,-2.1379,-1.8297,-1.4457,-0.9751,-0.1549,0.283,0.4349,0.8192,0.9504,0.9078,0.9545,0.9996,0.9734,0.317,0.0869,0.0804,-0.8725,-0.9117,-0.9499,-0.9874,-0.936,-0.899,-0.9285,-0.9248,-0.9475,-1.031,-1.0715,-1.0932,-1.1027,-1.1171,-1.14,-1.1768,-1.674,-2.0136,-2.0745,-2.4723,-2.7092,-2.7148,-2.5952,-2.5406,-2.575,-2.5675,-2.5561,-2.54,-2.4555,-2.4518,-2.5257,-2.3155,-2.3238,-2.5066,-2.2086,-2.1248,-2.2043,-2.0995,-2.0371,-1.9993,-1.9774,-1.9284,-1.8475,-1.6848,-1.7812,-2.0297,-2.2376,-2.4044,-2.5521,-2.7297,-2.8192,-2.8764,-3.0089,-2.9868,-2.9178,-2.9577,-2.9035,-2.8549,-2.9462,0.0,0.0,-2.9599,-2.9705,-2.971,-2.9947,-2.9991,-3.0303,-3.1514,-3.1531,-3.1553,-3.206,-3.2318,-3.2541,-3.2561,-3.3789,-3.4751,-3.4822,-3.5217,-3.5857,-3.6777,-3.6429,-3.619,-3.6207,-3.6333,-3.6249,-3.581,-3.552,-3.5232,-3.4941,-3.3546,-3.2388,-3.1706,-2.9819,-2.8604,-2.8062,-2.5563,-2.4099,-2.3581,-1.944,-1.5071,-1.0598,-0.8148,-0.2752,0.4865,0.8661,1.0649,1.151,1.4297,1.5035,1.4405,1.4701,1.5282,1.5261,0.9763,0.6701,0.5218,-0.9483,-1.0224,-1.0653,-1.0114,-1.0084,-1.0176,-1.0347,-0.9921,-0.9788,-1.0424,-1.0548,-1.075,-1.1062,-1.1611,-1.2171,-1.2709,-1.6143,-1.9133,-2.1147,-2.3899,-2.6023,-2.7243,-2.6264,-2.5892,-2.6337,-2.6253,-2.6328,-2.6651,-2.5625,-2.3908,-2.1537,-2.3822,-2.3745,-2.1704,-2.2341,-2.3109,-2.3803,-2.1533,-2.061,-2.0613,-2.0237,-1.9735,-1.9054,-1.7912,-1.8551,-2.0161,-2.055,-2.2251,-2.4514,-2.5599,-2.6237,-2.6598,-2.6655,-2.7111,-2.7689,-2.7849,-2.7439,-2.6946,0.0,0.0,-2.8644,-2.92,-3.0045,-3.0805,-3.0904,-3.0793,-3.0887,-3.171,-3.0405,-2.9446,-3.0455,-3.0482,-3.0422,-3.0931,-3.2594,-3.3857,-3.3832,-3.4593,-3.5118,-3.5068,-3.4736,-3.4704,0.0,-3.6019,-3.6301,-3.5742,-3.5352,-3.4844,-3.4268,-3.2345,-3.0446,-2.8697,-2.7055,-2.4327,-2.0474,-1.9178,-1.7494,-1.5231,-0.6736,-0.4118,-0.6498,0.4472,1.2407,1.7515,1.8868,1.9199,1.8726,1.9009,1.9511,1.9994,1.8524,1.8817,1.9997,1.8932,1.5471,1.0959,-1.0761,-1.1072,-1.1376,-1.163,-1.1584,-1.1551,-1.158,-1.0767,-1.0285,-1.0777,-1.1542,0.0,0.0,0.0,0.0,0.0,-1.7355,-1.9736,-2.1014,-2.4227,-2.6247,-2.6618,-2.6745,-2.7056,-2.7518,-2.748,-2.7555,-2.7742,-2.7402,-2.7463,-2.7823,-2.5991,-2.6173,-2.7904,-2.5286,-2.4906,-2.603,-2.3978,-2.2787,-2.2147,-2.0824,-1.9697,-1.9003,-1.9437,-1.996,-2.0572,0.0,-2.3036,-2.3484,-2.5139,-2.5875,-2.6294,-2.7364,-2.7567,-2.725,-2.6504,-2.7308,-2.8417,0.0,0.0,-3.0504,-3.0949,-3.096,-3.0821,-3.0841,-3.0233,-2.9776,-3.0297,-3.0211,-3.004,-2.9941,-3.0764,-3.1338,-3.0888,-3.1797,-3.2664,-3.3019,-3.3609,-3.4202,-3.4871,-3.4821,0.0,0.0,0.0,0.0,-3.5178,-3.4925,-3.4153,-3.2657,-3.0652,-2.8355,-2.5727,-2.3329,-2.1003,-1.8899,-1.641,-1.2848,-0.8149,0.6261,1.2416,1.1395,2.0824,2.5224,2.5426,2.6554,2.6167,2.4819,2.5474,2.534,2.4738,2.4096,2.4177,2.4638,2.4473,2.2815,2.024,0.0,-1.221,-1.2575,-1.3069,-1.2993,0.0,0.0,0.0,0.0,0.0,0.0,0.0,0.0,0.0,0.0,0.0,0.0,-1.9726,-2.085,-2.3242,-2.4877,-2.5484,-2.5755,-2.614,-2.6737,-2.6638,-2.6837,-2.7302,-2.7536,-2.804,-2.874,-2.6877,-2.7545,-3.0079,-2.6924,-2.6871,-2.9009,-2.6621,-2.5395,-2.4832,-2.3016,-2.1632,-2.0745,-2.1028,-2.1318,0.0,-2.2922,-2.325,-2.3363,-2.461,-2.5335,-2.5848,-2.6538,-2.6911,-2.6956,-2.6487,-2.7663,0.0,0.0,-3.056,-3.1306,-3.1555,-3.1346,-3.107,-3.0817,-2.9951,-2.9263,-2.9548,-2.9583,-2.9416,-2.9005,-3.0295,-3.1401,-3.1248,-3.2241,-3.3011,-3.3012,-3.3419,-3.3691,-3.3623,-3.3529,-3.3445,0.0,0.0,0.0,-3.4037,-3.3678,-3.2704,-3.106,-2.8426,-2.5768,-2.3257,-1.9854,-1.7512,-1.6342,-1.2849,-0.674,0.2026,1.5685,2.2929,2.453,3.0508,3.2178,3.0409,3.0847,3.0341,2.9206,2.9075,2.8674,2.8088,2.7547,2.7656,2.8171,2.8484,2.8525,2.7765,0.0,0.0,-1.4143,0.0,0.0,0.0,0.0,0.0,0.0,0.0,0.0,0.0,0.0,0.0,0.0,0.0,0.0,0.0,-2.0716,-2.1288,-2.2294,-2.3957,-2.353,-2.3612,-2.4312,-2.4091,-2.4476,-2.5553,-2.6222,-2.5878,-2.4681,-2.6701,-2.7938,-2.8411,-2.7267,-2.8886,-3.2212,-2.9115,-2.7984,-2.8104,-2.6388,-2.4987,-2.3897,-2.2577,-2.2731,-2.3517,-2.2641,-2.3094,-2.4082,-2.4072,-2.4745,-2.5418,-2.4539,-2.5386,-2.6888,-2.7732,-2.8454,-2.9302,-3.0705,-3.1112,-3.1118,-3.1105,-3.1305,-3.1429,-3.097,-3.0012,-2.9322,-2.9542,-2.8581,-2.7768,0.0,0.0,-3.0605,-3.1711,-3.3475,-3.4426,-3.3514,-3.3698,-3.3286,0.0,0.0,0.0,0.0,0.0,0.0,-3.2105,0.0,-3.0533,-2.903,-2.5487,-2.2735,-2.0927,-1.6734,-1.3859,-1.2563,-0.8137,0.0899,1.4449,2.1645,2.7505,3.2057,3.3578,3.3741,3.2803,3.2145,3.1934,3.1895,3.0012,2.9716,3.0256,2.9002,2.9345,3.0603,3.1266,3.25,3.3186,0.0,0.0,0.0,0.0,0.0,0.0,0.0,0.0,0.0,0.0,0.0,0.0,0.0,0.0,0.0,0.0,0.0,0.0,-2.1131,-2.2643,-2.334,-2.301,-2.4686,-2.5383,-2.4839,-2.4713,-2.5149,-2.6161,-2.6934,-2.743,-2.7714,-2.9045,-3.0024,-3.0659,-2.9753,-3.0055,-3.1052,-2.8167,-2.6621,-2.6016,-2.437,-2.3378,-2.3038,-2.4268,-2.4423,-2.4107,-2.5208,-2.5382,-2.5105,0.0,0.0,0.0,0.0,-2.8017,-2.8301,-2.8907,-2.9558,-3.0196,-3.067,-3.1684,-3.2497,-3.1775,-3.1695,-3.1603,-3.1044,-2.9641,-2.8519,-2.8893,-2.8893,-2.891,0.0,0.0,0.0,-3.0289,-3.0003,0.0,-3.0164,-2.9766,0.0,-2.9116,0.0,-2.8446,-2.7535,-2.7702,0.0,0.0,-2.8111,-2.7533,-2.3131,-2.0952,-1.8405,-1.5256,-1.3186,-1.123,-0.9321,0.0964,0.9962,1.759,2.6061,3.1309,3.35,3.4708,3.5057,3.4689,3.4371,3.4112,3.3846,3.3001,3.2787,3.2877,3.21,3.2438,3.3413,3.3988,3.4889,3.5648,0.0,0.0,0.0,0.0,0.0,0.0,0.0,0.0,0.0,0.0,0.0,0.0,0.0,0.0,0.0,0.0,0.0,0.0,0.0,-2.2591,-2.2994,-2.1648,-2.3357,-2.3878,-2.2864,-2.2773,-2.3378,-2.464,-2.5859,-2.7062,-2.8259,-2.9667,-3.0552,-3.0956,-3.0465,-3.0516,-3.0801,-2.8812,-2.778,0.0,0.0,-2.4716,-2.452,-2.5373,-2.5313,-2.4892,-2.5899,-2.6481,0.0,0.0,0.0,-2.8763,-2.9066,-2.9248,-2.9432,-2.9984,0.0,-3.1216,-3.1385,-3.2057,-3.262,-3.1817,-3.1848,-3.1726,-3.091,-2.98,-2.8785,-2.8552,-2.881,0.0,0.0,0.0,0.0,0.0,0.0,0.0,-2.8415,-2.7793,-2.7119,0.0,-2.609,0.0,-2.4355,-2.4517,-2.3486,0.0,-2.3257,-2.3376,-1.9325,-1.6763,-1.4135,-1.1319,-0.9717,-0.6982,-0.2834,0.6981,1.4547,1.9855,2.805,3.2509,3.3548,3.4839,3.5432,3.5433,0.0,3.5155,3.4824,3.4402,3.4454,3.4768,3.4171,3.4522,3.5432,3.6065,3.6614,3.7098,0.0,0.0,0.0,0.0,0.0,0.0,0.0,0.0,0.0,0.0,-1.523,0.0,0.0,0.0,0.0,0.0,0.0,0.0,0.0,0.0,-2.1933,-2.0354,-2.1128,-2.1108,-2.0124,-2.0127,-2.0877,-2.2386,-2.4005,-2.5609,-2.7161,-2.8764,-2.9544,-2.9605,-2.9549,-2.9814,-3.0245,-2.9433,-2.9238,-2.9335,-2.7753,-2.6966,-2.6661,0.0,-2.582,-2.5788,-2.5894,0.0,0.0,0.0,-2.9776,-2.9109,-2.9419,-2.9829,-3.0343,-3.0929,-3.143,-3.1821,-3.1998,-3.2049,-3.1919,-3.1476,-3.1709,-3.1744,-3.0745,-3.0131,-2.9548,-2.8614,0.0,0.0,-2.9145,0.0,-2.9924,-3.0214,0.0,-2.8636,-2.701,-2.6242,-2.5215,-2.3362,-2.2757,-2.22,-2.1572,-2.1597,-1.9941,-1.5756,-1.7587,-1.8037,-1.5934,-1.2399,-0.967,-0.7964,-0.596,-0.188,0.464,1.0698,1.6443,2.1903,2.864,3.2242,3.3022,3.4478,3.5279,3.5498,3.5588,0.0,3.5222,3.4843,3.5188,3.5873,3.5431,3.5853,3.6817,3.7542,3.7851,3.8024,0.0,0.0,0.0,0.0,0.0,0.0,0.0,0.0,0.0,0.0,-1.7192,-1.7097,0.0,0.0,0.0,0.0,0.0,0.0,0.0,0.0,0.0,-2.0257,-2.1054,-2.1095,-2.0208,-2.0657,-2.1367,-2.2318,-2.3277,-2.425,-2.521,-2.5691,-2.5941,-2.599,-2.599,-2.6051,-2.614,-2.5966,-2.5983,-2.6118,-2.5801,-2.5725,-2.5886,-2.6464,0.0,0.0,0.0,0.0,0.0,-2.9978,-3.0749,-3.152,-3.1623,-3.1295,-3.1025,-3.1459,-3.0894,-3.016,-3.0456,-3.0771,-3.0973,-3.0569,-3.0878,-3.1074,-3.0549,-2.9923,0.0,0.0,0.0,-2.9683,-3.0347,-2.9889,0.0,-2.7614,0.0,0.0,0.0,0.0,-2.0605,0.0,0.0,0.0,0.0,0.0,0.0,0.0,0.0,-1.0148,-0.9228,-0.676,-0.4311,-0.2144,-0.0769,0.2711,0.834,1.2858,1.8195,2.4507,2.9296,3.219,3.3345,3.4453,3.5128,3.5437,3.5659,0.0,3.5503,3.5287,3.5323,3.5547,3.5886,3.6559,3.7432,3.8099,3.8719,3.9196,0.0,0.0,0.0,0.0,0.0,0.0,0.0,-1.8713,-1.9146,-1.9916,-1.9795,-1.9682,-1.9766,-1.9963,-2.0388,0.0,0.0,0.0,0.0,0.0,0.0,0.0,0.0,0.0,-2.0644,-2.1341,0.0,0.0,0.0,-2.3877,-2.4685,0.0,0.0,-2.4898,-2.4898,-2.4893,-2.4902,-2.4981,-2.5061,-2.5231,-2.5773,-2.6091,-2.6325,0.0,0.0,0.0,0.0,0.0,0.0,0.0,-3.0775,-3.1855,-3.1944,-3.1626,-3.1189,-3.1129,-3.0514,-2.9791,-2.9406,-2.9835,-3.0173,-2.9324,-2.9926,-3.0628,-3.0033,0.0,0.0,0.0,0.0,-3.0356,-3.0774,0.0,0.0,0.0,0.0,0.0,0.0,0.0,0.0,0.0,0.0,0.0,0.0,0.0,0.0,0.0,0.0,-0.6172,-0.6115,-0.3555,-0.1351,0.0309,0.2149,0.5966,1.206,1.5586,2.0528,2.6868,2.9904,3.2017,3.3369,3.4824,3.5661,3.6024,3.6806,0.0,3.6367,3.6275,3.6268,3.6304,3.6529,3.7379,3.852,3.8807,3.9356,3.9964,0.0,0.0,0.0,0.0,0.0,0.0,0.0,-2.0336,-2.0879,-2.1735,-2.2182,-2.2439,-2.2418,-2.1727,-2.1353,0.0,0.0,0.0,0.0,0.0,0.0,0.0,0.0,0.0,0.0,0.0,0.0,0.0,0.0,0.0,0.0,0.0,0.0,0.0,0.0,0.0,-2.4749,-2.4847,-2.5101,0.0,0.0,0.0,0.0,0.0,0.0,0.0,0.0,0.0,0.0,0.0,-3.0631,-3.141,-3.1434,-3.119,-3.0818,-3.0308,-2.9813,-2.916,-2.8123,-2.8449,-2.8776,-2.7533,-2.8163,-2.9138,-2.9027,-2.9378,0.0,0.0,0.0,-3.0799,-3.0873,0.0,0.0,0.0,0.0,0.0,0.0,0.0,0.0,0.0,0.0,0.0,0.0,0.0,0.0,0.0,0.0,0.0,-0.3379,-0.1108,0.1091,0.2841,0.4798,0.9155,1.6011,1.8585,2.2782,2.8513,3.0423,3.1987,3.3135,3.4851,3.5929,3.6511,3.7611,0.0,0.0,3.7128,3.7001,3.6875,3.7171,3.8077,3.9223,3.9472,3.9927,4.0356,0.0,0.0,0.0,0.0,0.0,0.0,0.0,-2.0826,-2.1822,-2.2821,-2.3667,-2.4297,-2.4669,-2.3351,-2.2475,0.0,0.0,0.0,0.0,0.0,0.0,0.0,0.0,0.0,0.0,0.0,0.0,0.0,0.0,0.0,0.0,0.0,0.0,0.0,0.0,0.0,0.0,-2.4902,0.0,0.0,0.0,0.0,0.0,0.0,0.0,0.0,0.0,0.0,0.0,0.0,0.0,-3.0761,-3.0735,-3.022,-2.9607,-2.9261,0.0,0.0,-2.6082,-2.5968,-2.5934,-2.4846,-2.4503,-2.4985,-2.7267,0.0,0.0,0.0,-3.0652,-3.0728,-3.0799,0.0,0.0,0.0,0.0,-2.4551,0.0,0.0,0.0,0.0,0.0,0.0,0.0,0.0,0.0,0.0,0.0,0.0,0.0973,0.1587,0.3938,0.8351,0.8941,1.2902,2.0458,2.1832,2.4537,2.8715,3.0898,3.2195,3.2764,3.3932,3.5111,3.6249,3.6791,0.0,0.0,3.7175,3.6716,3.6151,3.7679,3.8355,3.8656,3.9993,4.0409,4.031,0.0,0.0,0.0,0.0,0.0,0.0,-2.0952,-2.193,-2.2943,-2.3832,-2.4321,-2.4636,-2.4752,-2.4295,-2.3838,-2.3463,0.0,0.0,0.0,0.0,0.0,0.0,0.0,0.0,0.0,0.0,0.0,-2.4406,0.0,0.0,0.0,0.0,0.0,0.0,0.0,0.0,0.0,0.0,0.0,0.0,0.0,0.0,0.0,0.0,0.0,0.0,0.0,0.0,0.0,0.0,0.0,0.0,-2.9983,-2.9314,0.0,0.0,-2.807,-2.6594,-2.5607,-2.511,-2.4498,-2.3112,-2.3965,-2.5391,-2.6323,0.0,0.0,-3.0309,-3.0646,-3.073,-3.0786,-3.0097,-2.9101,0.0,0.0,0.0,0.0,0.0,0.0,0.0,0.0,0.0,0.0,0.0,0.0,0.0,0.0,0.0,0.4525,0.4334,0.5717,0.9119,1.1753,1.5882,2.1727,2.3619,2.606,2.9005,3.0763,3.2178,3.3372,3.4998,3.6362,3.7457,3.8511,0.0,0.0,3.7774,3.7033,3.5885,3.6969,3.7678,3.8238,3.9291,3.9976,4.0371,0.0,0.0,0.0,0.0,0.0,-2.1207,-2.1642,-2.2597,-2.3596,-2.4386,-2.4559,-2.4586,-2.4548,-2.4678,-2.4587,-2.4132,-2.3427,0.0,0.0,0.0,0.0,0.0,0.0,0.0,0.0,0.0,-2.5182,-2.5374,-2.5423,-2.5608,0.0,0.0,0.0,0.0,0.0,0.0,0.0,0.0,0.0,0.0,0.0,0.0,0.0,0.0,0.0,0.0,0.0,0.0,0.0,0.0,0.0,0.0,0.0,-2.9175,-2.8706,0.0,-2.7983,-2.636,-2.5256,-2.4649,-2.3813,-2.2033,-2.3205,-2.493,0.0,0.0,0.0,-3.0375,-3.0652,-3.0653,-3.0478,-3.0136,-2.9445,-2.8078,-2.7248,-2.5729,-2.2719,0.0,0.0,0.0,0.0,0.0,0.0,0.0,0.0,0.0,0.0,0.0,0.797,0.8388,0.9462,1.1532,1.463,1.8543,2.3389,2.5254,2.7334,2.967,3.0915,3.2316,3.3839,3.5449,3.6856,3.8096,3.9221,0.0,0.0,3.8028,3.7108,3.5596,3.6508,3.7228,3.7899,3.8859,3.9673,4.0344,0.0,0.0,0.0,0.0,0.0,0.0,-2.1567,-2.2599,-2.3598,-2.4383,-2.4442,-2.4386,-2.4396,-2.4385,-2.4456,-2.4576,-2.4157,0.0,0.0,0.0,0.0,0.0,0.0,0.0,0.0,0.0,-2.5698,-2.6484,-2.6486,-2.6929,-2.7768,-2.7768,0.0,0.0,0.0,0.0,0.0,0.0,0.0,0.0,0.0,0.0,0.0,0.0,0.0,0.0,0.0,0.0,0.0,0.0,0.0,0.0,0.0,-3.0086,-2.9361,-2.9159,-2.7799,-2.6119,-2.486,-2.439,-2.3801,-2.1658,-2.1396,-2.2416,0.0,0.0,0.0,-3.0025,-3.0651,-3.0481,-2.9752,-3.0251,-2.996,-2.7422,-2.8437,-2.7587,-2.192,0.0,0.0,0.0,0.0,0.0,0.0,0.0,0.0,0.0,0.0,0.0,1.1564,1.4371,1.6278,1.7089,1.7825,2.0754,2.6227,2.6762,2.8264,3.079,3.1625,3.2687,3.4026,3.4643,3.5938,0.0,0.0,0.0,0.0,3.769,3.6684,3.5244,3.6654,3.7326,3.7679,3.8994,3.9742,4.0144,0.0,0.0,0.0,0.0,0.0,0.0,0.0,-2.3064,-2.3889,-2.3577,-2.3987,-2.4302,-2.4265,-2.4247,-2.4302,-2.4391,-2.4471,0.0,0.0,0.0,0.0,0.0,0.0,0.0,0.0,-2.5293,-2.5678,-2.6504,-2.6545,-2.7043,-2.7948,-2.7973,-2.7984,-2.795,0.0,0.0,0.0,0.0,0.0,0.0,0.0,0.0,0.0,0.0,0.0,0.0,0.0,0.0,0.0,0.0,0.0,0.0,0.0,0.0,0.0,-2.9973,-2.9259,-2.8036,-2.6757,-2.6184,-2.5519,-2.3723,-2.3741,-2.4639,-2.6241,0.0,0.0,-3.0275,-3.063,-3.0426,-2.973,-2.9275,-2.8769,-2.8007,-2.7847,-2.7187,0.0,0.0,0.0,0.0,0.0,0.0,0.0,0.0,0.0,0.0,0.0,0.0,1.3984,1.5358,1.6747,1.8291,2.068,2.3785,2.7579,2.7533,2.8826,3.1332,3.1069,3.1995,3.4014,3.4138,3.5218,0.0,0.0,0.0,0.0,3.5912,3.5374,3.4703,3.5449,3.6087,3.6746,3.8357,3.9599,4.0516,0.0,0.0,0.0,0.0,0.0,0.0,0.0,-2.2886,-2.3529,-2.3051,-2.3364,-2.3766,-2.4097,-2.4153,-2.421,-2.4321,-2.462,0.0,0.0,0.0,0.0,0.0,0.0,0.0,-2.5385,-2.5704,-2.6265,-2.7103,-2.7795,-2.8461,-2.9036,-2.94,-2.938,-2.902,-2.8659,-2.8489,0.0,0.0,0.0,0.0,0.0,0.0,-3.3263,0.0,0.0,0.0,0.0,0.0,0.0,0.0,0.0,0.0,0.0,0.0,0.0,0.0,-3.0414,-2.9806,-2.8109,-2.752,-2.6925,-2.5068,-2.5648,0.0,0.0,0.0,0.0,-3.0463,-3.0377,-2.9965,-2.9218,-2.8587,-2.8006,-2.7419,-2.7141,0.0,0.0,0.0,0.0,0.0,0.0,0.0,0.0,0.0,0.0,0.0,0.0,0.0,1.6482,1.7145,1.8304,1.996,2.225,2.4711,2.7378,2.7461,2.8651,3.0909,3.0823,3.1691,3.3412,3.3806,3.4694,0.0,0.0,0.0,0.0,3.3818,3.343,3.3301,3.3581,3.4488,3.5874,3.7662,3.9096,4.019,0.0,0.0,0.0,0.0,0.0,0.0,0.0,-2.2227,-2.2643,-2.2698,-2.26,-2.2906,-2.3925,-2.4094,-2.421,-2.4407,0.0,0.0,0.0,0.0,0.0,0.0,0.0,0.0,-2.5592,-2.6396,-2.7282,-2.8279,-2.9916,-3.0739,-3.0821,-3.161,-3.1511,-3.0563,-2.976,-2.9388,-2.9429,0.0,0.0,0.0,0.0,-3.24,0.0,0.0,0.0,0.0,0.0,0.0,0.0,0.0,0.0,0.0,0.0,0.0,0.0,0.0,0.0,0.0,0.0,-2.8557,-2.8135,-2.6092,-2.7122,-2.8449,-2.7716,-2.9039,0.0,-3.0496,-2.9913,-2.9153,-2.8349,-2.8142,-2.7611,-2.6119,-2.6498,0.0,0.0,0.0,0.0,0.0,0.0,0.0,0.0,0.0,0.0,0.0,0.0,0.0,1.8994,1.9473,2.0409,2.1877,2.264,2.4084,2.6254,2.6791,2.8003,2.9968,3.0789,3.1591,3.2406,3.3434,3.4149,0.0,0.0,0.0,0.0,3.1562,3.1091,3.1117,3.1167,3.2636,3.4964,3.6874,3.8235,3.9354,0.0,0.0,0.0,0.0,0.0,0.0,0.0,0.0,0.0,0.0,-2.2391,-2.3197,-2.4211,-2.4284,-2.4356,0.0,0.0,0.0,0.0,0.0,0.0,0.0,0.0,0.0,-2.6471,-2.6707,-2.7887,-3.0094,-3.056,-3.109,-3.1709,-3.1904,-3.1508,-3.0582,-3.0391,-3.024,-3.015,-3.0321,0.0,0.0,-3.1248,-3.1328,0.0,0.0,0.0,0.0,-3.0778,-3.0768,0.0,0.0,0.0,0.0,0.0,0.0,0.0,0.0,-3.074,-3.07,-3.0206,0.0,-3.072,-2.9597,-2.9194,-2.9192,0.0,-2.9165,-2.8747,-2.9511,-2.9018,-2.8379,-2.8232,-2.7651,-2.7284,-2.7567,0.0,-2.4835,0.0,0.0,0.0,0.0,0.0,0.0,0.0,0.0,0.0,0.0,0.0,1.8363,1.9153,1.9116,1.9901,2.1815,2.27,2.4726,2.7984,2.7654,2.8812,3.1475,3.0367,3.0674,3.2181,3.2015,3.25,0.0,0.0,0.0,2.9255,2.9961,2.9472,2.8311,2.9498,3.1332,3.3512,3.5578,3.7543,3.932,0.0,0.0,0.0,0.0,0.0,0.0,0.0,0.0,0.0,0.0,0.0,-2.3019,-2.4381,-2.4559,0.0,0.0,0.0,0.0,0.0,0.0,0.0,0.0,0.0,-2.5945,-2.6773,-2.7211,-2.8505,-3.0691,-3.1549,-3.1987,-3.2069,-3.2829,-3.2283,-3.0639,-3.0621,-3.054,-3.0477,-3.0833,-3.1064,-3.1149,-3.1116,0.0,0.0,0.0,0.0,0.0,-3.0781,-3.0782,0.0,-3.0667,-3.0626,-3.0579,0.0,0.0,0.0,0.0,-3.0511,-3.0471,-3.0565,-3.0924,-3.0946,-2.9709,-2.9631,-2.9659,-2.8925,-2.8706,-2.8648,-2.8691,-2.8061,-2.7508,-2.7546,-2.6848,-2.6425,0.0,-2.7207,0.0,0.0,0.0,0.0,0.0,0.0,0.0,0.0,0.0,0.0,0.0,0.0,1.9424,1.9868,1.9969,2.0654,2.2085,2.3448,2.504,2.6961,2.7155,2.8188,3.0083,2.9611,2.9993,3.1157,3.1175,3.1463,0.0,0.0,0.0,2.6864,2.5657,2.5127,2.5314,2.6647,2.8926,3.1756,3.4573,3.6845,3.8896,0.0,0.0,0.0,0.0,0.0,0.0,0.0,0.0,0.0,0.0,0.0,0.0,0.0,0.0,0.0,0.0,0.0,0.0,0.0,0.0,0.0,0.0,-2.5808,-2.6232,-2.7176,-2.7991,-2.9276,-3.1094,-3.2729,-3.309,-3.2326,-3.4012,-3.3395,-3.0878,-3.0823,-3.0695,-3.0548,-3.1232,-3.1135,-3.0567,-3.1302,0.0,0.0,0.0,0.0,0.0,0.0,0.0,0.0,-3.0633,-3.0598,-3.0552,-3.0428,0.0,0.0,0.0,0.0,0.0,-3.0384,-3.0602,-3.0377,-2.8642,-2.9209,-2.9613,-2.7361,-2.8022,-2.8824,-2.7934,-2.7161,-2.6666,-2.6785,-2.6218,0.0,0.0,0.0,0.0,0.0,0.0,0.0,0.0,0.0,0.0,0.0,0.0,0.0,0.0,0.0,2.067,2.0719,2.1196,2.1789,2.2514,2.4316,2.5253,2.5121,2.644,2.7552,2.8445,2.9308,2.9943,3.0397,3.092,3.1007,3.0643,0.0,0.0,2.4813,2.0973,2.0419,2.2163,2.3389,2.6161,2.9922,3.3488,3.605,3.8169,0.0,0.0,0.0,0.0,0.0,0.0,0.0,0.0,0.0,0.0,0.0,0.0,0.0,0.0,0.0,0.0,0.0,0.0,0.0,0.0,0.0,-2.6816,-2.6732,-2.7422,-2.8965,-2.9198,-3.0487,-3.2906,-3.3964,-3.402,-3.3144,-3.4898,-3.4287,-3.172,-3.1715,-3.1245,-3.051,-3.0695,-3.0656,-3.0509,-3.0645,0.0,0.0,0.0,0.0,0.0,0.0,0.0,0.0,-3.06,-3.0518,-3.0436,-3.041,0.0,0.0,0.0,0.0,0.0,-2.955,-3.0575,-3.1223,-2.9599,-2.8783,-2.8318,-2.8015,-2.7579,-2.7171,-2.7078,-2.6422,-2.6086,-2.6752,-2.6777,-2.6935,0.0,0.0,0.0,0.0,0.0,0.0,0.0,0.0,0.0,0.0,0.0,0.0,0.0,0.0,2.1,2.1435,2.1727,2.2218,2.3068,2.4735,2.5717,2.5879,2.7495,2.9347,3.1254,3.1058,3.1342,3.1987,3.1417,3.1461,3.165,0.0,2.4515,2.2349,2.0206,1.9008,1.8802,2.0818,2.4237,2.8483,3.1839,3.4678,3.7376,0.0,0.0,0.0,0.0,0.0,0.0,0.0,0.0,0.0,0.0,0.0,0.0,0.0,0.0,0.0,0.0,0.0,0.0,0.0,0.0,-2.8027,-2.906,-2.8632,-2.8488,-2.8754,-2.9246,-3.0991,-3.4062,-3.4492,-3.4726,-3.4745,-3.4098,-3.3395,-3.2622,-3.1678,-3.0989,-3.0559,-3.0597,-3.0578,-3.055,0.0,0.0,0.0,0.0,0.0,0.0,0.0,0.0,0.0,0.0,-3.0524,-3.0365,-2.9863,0.0,0.0,0.0,0.0,0.0,-2.856,-2.8786,-2.916,-2.9876,-3.1167,-3.2016,-3.1026,-3.0879,-3.044,-2.8626,-2.7936,-2.7343,-2.6323,0.0,-2.9062,-3.1393,0.0,0.0,0.0,0.0,0.0,0.0,0.0,0.0,0.0,0.0,0.0,0.0,0.0,0.0,2.2021,2.3052,2.3755,2.4061,2.5752,2.6752,2.6918,2.8554,2.9837,3.0624,3.0644,3.1242,3.2194,3.1575,3.0497,2.8793,0.0,2.1728,1.8868,1.6524,1.6063,1.7098,1.9453,2.311,2.788,3.3863,3.7661,4.0043,0.0,0.0,0.0,0.0,0.0,0.0,0.0,0.0,0.0,0.0,0.0,0.0,0.0,0.0,0.0,0.0,0.0,0.0,0.0,-2.7656,-2.8298,-3.0502,-3.015,-2.9665,-2.9121,-2.9765,-3.1621,-3.4705,-3.4902,-3.5446,-3.6231,-3.3767,-3.2853,-3.3223,-3.1695,-3.0859,-3.0604,-3.0604,-3.0731,-3.0897,0.0,0.0,0.0,0.0,0.0,0.0,0.0,0.0,0.0,0.0,0.0,0.0,0.0,0.0,0.0,-2.8003,-2.7666,-2.7512,-2.7577,-2.7422,-2.7724,-2.9766,-3.1891,-3.3397,-3.3073,-3.316,-3.2714,-3.0604,-3.0117,-2.9296,0.0,-2.8202,0.0,0.0,0.0,0.0,0.0,0.0,0.0,0.0,0.0,0.0,0.0,0.0,0.0,0.0,0.0,0.0,2.2662,2.4178,2.5002,2.4909,2.6539,2.7471,2.7696,2.9079,2.9648,2.9426,3.0165,3.0711,3.0898,3.0346,2.8375,2.5162,2.1534,1.8337,1.5534,1.2381,1.2693,1.5405,1.7534,2.2332,2.8836,3.6222,4.0434,4.2478,0.0,0.0,0.0,0.0,0.0,0.0,0.0,0.0,0.0,0.0,0.0,0.0,0.0,0.0,0.0,0.0,0.0,0.0,0.0,-2.8242,-2.865,-2.9644,-3.0403,-3.1122,-3.1805,-3.1875,-3.2831,-3.4708,-3.5505,-3.6328,-3.707,-3.5259,-3.3999,-3.3262,-3.2331,-3.1418,-3.0602,-3.0602,-3.1078,-3.1787,-3.1748,0.0,0.0,0.0,0.0,0.0,0.0,0.0,0.0,0.0,0.0,0.0,0.0,0.0,-2.7877,-2.7819,-2.7221,-2.6603,-2.6673,-2.7862,-2.9129,-2.9275,-2.7812,-2.7507,-3.1986,-3.1328,-3.0288,-3.209,-3.2361,0.0,0.0,-2.9708,0.0,0.0,0.0,0.0,0.0,0.0,0.0,0.0,0.0,0.0,0.0,0.0,0.0,0.0,0.0,0.0,2.328,2.43,2.499,2.5229,2.6414,2.7229,2.767,2.8454,2.9024,2.9261,3.083,3.0089,2.7327,2.664,2.4883,2.2147,1.7474,1.4486,1.2677,0.8899,0.939,1.2619,1.4024,2.1742,3.2564,3.7261,4.0443,4.2487,0.0,0.0,0.0,0.0,0.0,0.0,0.0,0.0,0.0,0.0,0.0,0.0,0.0,0.0,0.0,0.0,0.0,0.0,0.0,-2.8299,-2.9157,-3.1065,-3.0985,-3.1276,-3.2073,-3.21,-3.3486,-3.6325,-3.7151,-3.7172,-3.6417,-3.4622,-3.3347,-3.2518,-3.1598,-3.0987,-3.0684,-3.12,-3.1601,-3.1893,-3.1826,-3.1806,0.0,0.0,0.0,0.0,0.0,0.0,0.0,0.0,-2.9181,-2.8234,-2.7647,-2.7251,-2.6895,-2.6335,-2.5941,-2.57,-2.5719,-2.742,-2.9191,-2.9203,-2.855,-2.9192,-3.412,-3.4602,-3.4212,-3.4963,-3.5025,0.0,0.0,0.0,0.0,0.0,0.0,0.0,0.0,0.0,0.0,0.0,0.0,0.0,0.0,0.0,0.0,0.0,0.0,0.0,2.2603,2.3928,2.4888,2.5425,2.6023,2.6284,2.5987,2.5781,2.4747,2.2986,2.6698,2.6827,2.3533,2.3048,2.0589,1.6602,1.4066,1.1456,0.8891,0.7911,0.7915,0.9174,1.6177,2.38,3.1632,3.8051,4.1354,4.2682,0.0,0.0,0.0,0.0,0.0,0.0,0.0,0.0,0.0,0.0,0.0,0.0,0.0,0.0,0.0,0.0,0.0,0.0,-2.7789,-2.7887,-2.8901,-3.1218,-3.0788,-3.0982,-3.207,-3.2365,-3.381,-3.6482,-3.7588,-3.7256,-3.5564,-3.4043,-3.3021,-3.2422,-3.1222,-3.084,-3.1107,-3.1374,-3.1639,-3.1893,-3.1826,-3.1806,0.0,0.0,0.0,0.0,0.0,0.0,0.0,0.0,-2.85,-2.7309,-2.6684,-2.6309,-2.5972,-2.5375,-2.5191,-2.5203,-2.5241,-2.6542,-2.8124,-2.8913,-2.9181,-3.0506,-3.5263,-3.5905,-3.5891,-3.7279,-3.6669,-3.5469,-3.4211,0.0,0.0,0.0,0.0,0.0,0.0,0.0,0.0,0.0,0.0,0.0,0.0,0.0,0.0,0.0,0.0,0.0,0.0,2.298,2.3982,2.519,2.5333,2.4951,2.4048,2.3236,2.0687,1.6504,1.9692,2.0083,1.7985,1.7623,1.4919,1.0509,0.9712,0.7575,0.4741,0.5041,0.6108,0.8371,1.7288,2.5097,3.2073,3.9088,4.21,4.2752,0.0,0.0,0.0,0.0,0.0,0.0,0.0,0.0,-2.5699,-2.5702,-2.5702,0.0,0.0,0.0,0.0,0.0,0.0,0.0,-2.693,-2.7005,-2.7783,-2.9521,-2.9595,-3.0372,-3.2051,-3.2936,-3.3814,-3.4705,-3.6443,-3.6384,-3.4647,-3.3786,-3.3338,-3.318,-3.1465,-3.1131,-3.1825,-3.0967,-3.1097,-3.1873,-3.1826,-3.1797,-3.1797,0.0,0.0,0.0,0.0,0.0,0.0,0.0,-2.8073,-2.6588,-2.6512,-2.5903,-2.521,-2.5191,-2.521,-2.5217,-2.5288,-2.5367,-2.6018,-2.8328,-2.9079,-3.0401,-3.4802,-3.4208,-3.4048,-3.8738,-3.7042,-3.5013,-3.5926,0.0,0.0,0.0,0.0,0.0,0.0,0.0,0.0,0.0,0.0,0.0,0.0,0.0,0.0,0.0,0.0,0.0,0.0,2.134,2.2116,2.4553,2.4255,2.3323,2.1943,2.1196,1.738,1.0743,0.9756,0.9673,1.0313,0.9978,0.7745,0.4257,0.3942,0.2544,0.0433,-0.0265,0.3776,1.075,1.6316,2.4836,3.4654,4.0341,4.244,4.2448,0.0,0.0,0.0,0.0,0.0,0.0,0.0,0.0,-2.5699,-2.5703,-2.5702,0.0,0.0,0.0,0.0,0.0,0.0,0.0,-2.6947,-2.7006,-2.7786,-2.9521,-2.9597,-3.0103,-3.1153,-3.2046,-3.3219,-3.4693,-3.5825,-3.4866,-3.1953,-3.2322,-3.1484,-2.9723,-2.9803,-2.9966,-3.016,-3.0474,-3.0757,-3.1023,-3.1574,-3.1458,-3.0965,0.0,0.0,0.0,0.0,0.0,0.0,0.0,0.0,0.0,-2.5585,-2.581,-2.5926,-2.5371,-2.5604,-2.5937,-2.5438,-2.7756,-3.01,-2.9132,-3.1429,-3.4224,-3.5453,-3.5472,-3.6058,0.0,-3.8586,-3.7445,-3.6483,0.0,0.0,0.0,0.0,0.0,0.0,0.0,0.0,0.0,0.0,0.0,0.0,0.0,0.0,0.0,0.0,0.0,0.0,1.5928,1.707,1.822,1.7494,1.7264,1.7656,1.4371,1.073,0.685,0.3826,0.316,0.4658,0.2966,0.1465,0.0262,0.0177,-0.0089,-0.0882,-0.5641,-0.0086,1.1381,1.1501,1.6692,2.5269,3.4939,3.5627,3.2313,0.0,0.0,0.0,0.0,0.0,0.0,-2.6208,-2.6501,-2.6619,-2.6269,-2.6523,-2.6601,0.0,0.0,0.0,-2.6245,-2.6223,-2.6435,-2.6962,-2.6672,-2.7258,-2.901,-2.9086,-2.9786,-3.1289,-3.2166,-3.2969,-3.3669,-3.4547,-3.3547,-3.0821,-3.2043,-3.1582,-2.9755,-3.0629,-3.0969,-3.0923,-3.1053,-3.074,-3.0172,-3.0646,-3.0559,-3.0134,0.0,0.0,0.0,0.0,0.0,0.0,0.0,0.0,0.0,-2.5214,-2.5551,-2.5868,-2.5382,-2.5608,-2.6121,-2.6727,-2.8945,-3.1202,-3.1705,-3.3929,-3.6133,-3.6703,0.0,0.0,0.0,-3.8484,-3.8209,0.0,0.0,0.0,0.0,0.0,0.0,0.0,0.0,0.0,0.0,0.0,0.0,0.0,0.0,0.0,0.0,0.0,0.0,0.0,1.1806,1.2876,1.4009,1.309,1.2877,1.3527,0.9887,0.6076,0.2232,-0.0749,-0.2135,-0.215,-0.2869,-0.3424,-0.3717,-0.3284,-0.3291,-0.4105,-1.043,-0.5937,0.4586,0.2705,0.7641,1.6818,2.5188,2.7686,2.7308,0.0,0.0,0.0,0.0,0.0,0.0,-2.7128,-2.7793,-2.8027,-2.7226,-2.7812,-2.8007,0.0,0.0,0.0,-2.7082,-2.7061,-2.7079,-2.7017,-2.6253,-2.6605,-2.8342,-2.8569,-2.9762,-3.2172,-3.2929,-3.2889,-3.2108,-3.289,-3.2342,-3.0609,-3.2424,-3.2695,-3.1698,-3.256,-3.2912,-3.2783,-3.1844,-3.0549,-2.9187,-2.9334,-2.9361,-2.9306,-2.9442,0.0,0.0,0.0,0.0,0.0,0.0,0.0,0.0,-2.5362,-2.5397,-2.5495,-2.5332,-2.5513,-2.6255,-2.8654,-2.9473,-3.0713,-3.5175,-3.6293,0.0,-3.8205,-3.8729,-3.8462,-3.692,0.0,0.0,0.0,0.0,0.0,0.0,0.0,0.0,0.0,0.0,0.0,0.0,0.0,0.0,0.0,0.0,0.0,0.0,0.0,0.0,0.0,0.8472,0.9173,1.1135,1.0166,0.961,0.9611,0.6957,0.2956,-0.2314,-0.3972,-0.6309,-0.8844,-0.7428,-0.7082,-0.7446,-0.6464,-0.6957,-0.8824,-1.4706,-1.2926,-0.6631,-0.8137,-0.1861,0.8553,1.3068,1.8885,2.4445,0.0,0.0,0.0,0.0,0.0,0.0,-2.8007,-2.8183,-2.8222,-2.8046,-2.8181,-2.8239,-2.8044,-2.8196,0.0,-2.708,-2.7624,-2.7739,-2.7036,-2.6815,-2.7498,-2.924,-3.0587,-3.1864,-3.3086,-3.2633,-3.2298,-3.2109,-3.2284,-3.1133,-2.8808,-3.1249,-3.1171,-2.9049,-2.9874,-3.0233,-3.0127,-2.8555,-2.7696,-2.7488,-2.8852,-2.9019,-2.8535,-2.9238,-2.9629,0.0,0.0,0.0,0.0,0.0,0.0,0.0,-2.645,-2.6669,-2.6949,-2.5677,-2.6736,-2.8449,-2.9113,-3.1468,-3.4158,-3.5944,-3.6998,-3.7716,-3.8111,-3.7689,-3.7392,-3.807,0.0,0.0,0.0,0.0,0.0,0.0,0.0,0.0,0.0,0.0,0.0,0.0,0.0,0.0,0.0,0.0,0.0,0.0,0.0,0.0,0.2396,0.3945,0.5175,0.5921,0.5179,0.511,0.6017,0.304,-0.0168,0.0,-0.6099,-0.8237,-1.0,-0.9831,-0.9109,-0.7945,-0.8677,-1.0852,-1.4426,-1.9485,-1.7081,-1.0446,-1.2422,-0.9498,-0.2961,0.6924,0.9888,1.0012,0.0,0.0,0.0,0.0,0.0,0.0,0.0,0.0,-3.0154,-2.8513,-2.9351,-2.9818,-2.9016,-2.9287,0.0,0.0,-2.8656,-2.8732,-2.8266,-2.7852,-2.8396,-3.0096,-3.1807,-3.2732,-3.2773,-3.2719,-3.2085,-3.0853,-3.0868,-3.017,-2.8867,-3.1074,-3.1128,-2.9435,-3.0267,-3.0405,-2.9935,-2.8605,-2.7581,-2.694,-2.785,-2.7975,-2.7666,-2.8096,-2.8501,-2.8755,-2.784,0.0,0.0,0.0,0.0,0.0,0.0,0.0,-2.6486,-2.563,-2.6372,-2.8002,-3.0488,-3.255,-3.4631,-3.7276,0.0,-3.819,-3.769,-3.7041,-3.6742,0.0,0.0,0.0,0.0,0.0,0.0,0.0,0.0,0.0,0.0,0.0,0.0,0.0,0.0,0.0,0.0,0.0,0.0,0.0,0.0,0.0389,-0.1188,0.0,0.112,0.2038,0.1478,0.1643,0.2773,0.0085,-0.2573,-0.5225,-0.7971,-1.0439,-1.2711,-1.2571,-1.2047,-1.1344,-1.2587,-1.5172,-1.8737,-2.2822,-2.1598,-1.7401,-1.9308,-1.6797,-1.1431,-0.609,-0.2416,0.1085,0.0,0.0,0.0,0.0,0.0,0.0,0.0,0.0,0.0,-2.8666,-3.0268,-3.1143,-2.9732,-3.0242,-3.032,0.0,0.0,0.0,-2.9377,-2.8967,-2.9355,-3.0735,-3.2339,-3.289,-3.2324,-3.2673,-3.1835,-2.9726,-2.9422,-2.9281,-2.9316,-3.1054,-3.1374,-3.0526,-3.1256,-3.1087,-3.0183,-2.9177,-2.7942,-2.6691,-2.6843,-2.6955,-2.6988,-2.6904,-2.7334,-2.7857,-2.7055,-2.6738,-2.6602,-2.6079,0.0,0.0,0.0,0.0,-2.5674,-2.5529,-2.5781,-2.7048,-3.1336,-3.3006,-3.4494,-3.8515,-3.9007,0.0,-3.7184,-3.6461,-3.6008,0.0,0.0,0.0,0.0,0.0,0.0,0.0,0.0,0.0,0.0,0.0,0.0,0.0,0.0,0.0,0.0,0.0,0.0,0.0,0.0,-0.2688,-0.2989,-0.2682,-0.1742,-0.0172,-0.0766,-0.068,0.0172,-0.1992,-0.4402,-0.6989,-0.9904,-1.3006,-1.6039,-1.5545,-1.5375,-1.5461,-1.7206,-1.9761,-2.2909,-2.5881,-2.6303,-2.5165,-2.5861,-2.294,-1.8364,-1.8154,-1.295,-0.5167,0.0,0.0,0.0,0.0,0.0,0.0,0.0,0.0,0.0,0.0,-2.9244,-2.9826,-2.9539,-2.9665,-2.9416,-2.8547,-2.8474,-2.8479,-2.8479,0.0,0.0,-3.0794,-3.176,-3.2557,-3.3131,-3.1827,-3.0968,-3.0628,-2.9101,-2.8369,-2.8418,-3.0167,-3.0506,-2.9673,-2.9777,-2.9317,-2.8333,-2.6766,-2.5976,-2.584,-2.6669,-2.7,-2.6981,-2.6865,-2.6893,-2.6957,-2.6718,-2.662,-2.6717,-2.7364,-2.7566,0.0,0.0,0.0,0.0,-2.5698,-2.6584,-2.8044,0.0,0.0,-3.6525,0.0,-3.8412,-3.7413,0.0,0.0,0.0,0.0,0.0,0.0,0.0,0.0,0.0,0.0,0.0,0.0,0.0,0.0,0.0,0.0,0.0,0.0,0.0,0.0,0.0,0.0,0.0,0.0,-0.3473,-0.2719,-0.1337,0.0675,-0.0514,-0.1113,-0.101,-0.3051,-0.5686,-0.8787,-1.281,-1.6285,-1.9201,-1.9245,-1.8628,-1.7735,-2.1063,-2.4688,-2.8355,-3.0021,-3.0993,-3.1182,-2.8001,-2.6083,-2.4306,-1.7918,-1.3874,-1.0558,0.0,0.0,0.0,0.0,0.0,0.0,0.0,0.0,0.0,0.0,0.0,-3.0072,-2.9559,-2.9968,-2.9913,-2.9051,-2.8979,-2.8786,-2.8323,-2.9455,-3.0333,-3.0777,-3.1633,-3.2031,-3.1897,-3.1187,-3.0088,-2.8619,-2.7852,-2.7498,-2.7531,-2.8301,-2.8706,-2.8754,-2.8252,-2.7816,-2.734,-2.6112,-2.5622,-2.5699,-2.6108,-2.6832,-2.7569,-2.6473,-2.6656,-2.7332,-2.6257,-2.5898,-2.5983,-2.6405,-2.6536,-2.6455,-2.6229,0.0,0.0,0.0,0.0,-2.7375,-3.045,-3.3398,-3.6174,0.0,-3.7972,-3.6712,-3.6282,0.0,0.0,0.0,0.0,0.0,0.0,0.0,0.0,0.0,0.0,0.0,0.0,0.0,0.0,0.0,0.0,0.0,0.0,0.0,0.0,0.0,0.0,-0.6054,-0.5565,-0.5256,-0.4335,-0.2637,-0.3304,-0.3851,-0.4072,-0.6291,-0.8936,-1.2076,-1.5861,-1.7309,-1.676,-1.6247,-1.8285,-2.2312,-2.4647,-2.7234,-2.9803,-2.9964,-3.0097,-2.9927,-2.6332,-2.4508,-2.3537,-2.0453,-1.8371,-1.588,0.0,0.0,0.0,0.0,0.0,0.0,0.0,0.0,0.0,0.0,0.0,-3.0178,-2.9526,0.0,0.0,0.0,-2.8961,-2.8583,-2.801,-2.8793,-2.9535,-3.0138,-3.0797,-3.0722,-2.9853,-2.984,-2.8756,-2.6571,-2.6592,-2.662,-2.6663,-2.6661,-2.6988,-2.7558,-2.7129,-2.6796,-2.655,-2.5892,-2.566,-2.5738,-2.6162,-2.7084,-2.8075,-2.6928,-2.7282,-2.8111,-2.632,-2.5685,-2.5719,-2.5544,-2.546,-2.5456,-2.5632,-2.5628,0.0,0.0,0.0,-2.6403,0.0,0.0,-3.387,-3.7047,-3.6653,-3.5521,0.0,0.0,0.0,0.0,0.0,0.0,0.0,0.0,0.0,0.0,0.0,0.0,0.0,0.0,0.0,0.0,0.0,0.0,0.0,0.0,0.0,0.0,0.0,-0.8515,-0.8011,-0.7903,-0.7204,-0.5815,-0.6265,-0.6841,-0.7435,-0.9928,-1.251,-1.5248,-1.8104,-1.7758,-1.4696,-1.2306,-1.6278,-2.5103,-2.541,-2.7548,-3.0665,-2.9621,-2.891,-2.8175,-2.4789,-2.3183,-2.2752,-2.22,-2.1314,-1.9437,0.0,0.0,0.0,0.0,0.0,0.0,0.0,0.0,0.0,0.0,0.0,-2.9353,-2.9314,-2.9346,-2.9057,-2.8249,-2.7473,-2.7039,-2.7073,-2.7878,-2.8385,-2.844,-2.8479,0.0,-2.7222,-2.7207,-2.6699,-2.5663,-2.5722,-2.5767,-2.5781,-2.5761,-2.5784,-2.5862,-2.6646,-2.6548,-2.5761,-2.5699,-2.5699,-2.5839,-2.7422,-2.8118,-2.8277,-2.8948,-2.925,-2.9094,-2.7278,-2.6633,-2.6513,-2.5751,-2.5498,-2.5529,-2.5667,-2.5699,-2.5679,0.0,0.0,0.0,0.0,-2.8588,0.0,-3.3348,-3.361,0.0,0.0,0.0,0.0,0.0,0.0,0.0,0.0,0.0,0.0,0.0,0.0,0.0,0.0,0.0,0.0,0.0,0.0,0.0,0.0,0.0,0.0,0.0,0.0,-1.1046,-1.0098,-0.9667,-0.8744,-0.7061,-0.8146,-0.926,-1.0288,-1.3579,-1.5978,-1.7448,-1.8845,-1.8275,-1.567,-0.939,-1.2899,-2.375,-2.1551,-2.5033,-3.2161,-3.0563,-2.951,-2.8559,-2.5011,-2.4399,-2.4992,-2.1552,-2.0382,-1.9907,0.0,0.0,0.0,0.0,0.0,0.0,0.0,0.0,0.0,0.0,0.0,0.0,0.0,-2.847,-2.8143,-2.7343,-2.6487,-2.6038,-2.61,-2.6922,-2.742,-2.7454,-2.8001,-2.7874,-2.6968,-2.698,-2.6537,-2.5604,-2.5672,-2.5701,-2.5699,-2.5699,-2.5699,-2.5718,-2.603,-2.5679,-2.49,-2.5465,-2.5387,-2.5063,-2.7292,-2.8867,-2.9824,-2.9513,-3.0383,0.0,0.0,0.0,0.0,-2.7245,-2.6425,-2.5513,-2.5652,-2.5679,-2.5623,-2.5585,-2.5313,-2.5562,0.0,0.0,0.0,-3.0321,-3.1429,-3.1931,0.0,0.0,0.0,0.0,0.0,0.0,0.0,0.0,0.0,0.0,0.0,0.0,0.0,0.0,0.0,0.0,0.0,0.0,0.0,0.0,0.0,0.0,0.0,0.0,-1.2064,-1.238,-1.1929,-1.0322,-1.1582,-1.3322,-1.5384,-1.8519,-1.9689,-1.8956,-2.1408,-1.9998,-1.5157,-1.4246,-1.6568,-2.1261,-1.9631,-2.33,-3.0422,-2.9463,-2.8725,-2.7891,-2.5514,-2.4637,-2.4507,-2.2541,-2.0824,-1.9158,0.0,0.0,0.0,0.0,0.0,0.0,0.0,0.0,-2.9467,-2.9149,0.0,0.0,0.0,0.0,-2.7611,-2.6796,-2.5958,-2.5374,-2.5143,-2.5695,-2.6045,-2.6097,-2.6666,-2.671,-2.6076,-2.6103,-2.5822,-2.5195,-2.5244,-2.5407,-2.5699,-2.5699,-2.5699,-2.5699,-2.5671,-2.536,0.0,0.0,0.0,-2.5056,0.0,0.0,-3.0737,0.0,0.0,0.0,0.0,0.0,0.0,0.0,0.0,0.0,-2.63,-2.5451,-2.4719,-2.4592,-2.4505,-2.4736,-2.5938,0.0,0.0,0.0,0.0,-2.8838,0.0,0.0,0.0,0.0,0.0,0.0,0.0,0.0,0.0,0.0,0.0,0.0,0.0,0.0,0.0,0.0,0.0,0.0,0.0,0.0,0.0,0.0,0.0,0.0,-1.4881,-1.5242,-1.4871,-1.3587,-1.5235,-1.7113,-1.9172,-2.125,-2.1947,-2.1381,-2.3928,-2.2591,-1.7866,-1.5186,-1.6793,-2.126,-1.5424,-1.8565,-2.7693,-2.7079,-2.6595,-2.6046,-2.4755,-2.4114,-2.3826,-2.2456,-2.0672,-1.8654,0.0,0.0,0.0,0.0,0.0,0.0,0.0,0.0,-3.0048,-2.9033,0.0,0.0,0.0,0.0,0.0,-2.6639,-2.5824,-2.5027,-2.4247,-2.4248,-2.4252,-2.4252,-2.4349,-2.4397,-2.4395,-2.4403,-2.4417,-2.4442,-2.4404,-2.4842,-2.5699,-2.5699,-2.5699,-2.5695,-2.5639,-2.5619,-2.5656,0.0,-2.5566,-2.5853,0.0,-3.0683,-3.0797,0.0,0.0,0.0,-3.0098,-2.9433,0.0,0.0,0.0,0.0,0.0,-2.4985,-2.2914,-2.2733,-2.2968,-2.3059,0.0,0.0,0.0,0.0,0.0,0.0,0.0,0.0,0.0,0.0,0.0,0.0,0.0,0.0,0.0,0.0,0.0,0.0,0.0,0.0,0.0,0.0,0.0,0.0,0.0,0.0,0.0,0.0,0.0,-1.9955,-1.8655,-1.8205,-1.759,-1.6724,-1.8786,-2.0391,-2.1183,-2.162,-2.2808,-2.4777,-2.6086,-2.5846,-2.3857,-1.2128,-1.3314,-2.3866,-0.934,-1.1108,-2.4159,-2.3615,-2.3256,-2.3069,-2.2657,-2.2922,-2.3209,-2.1064,-1.9687,-1.8542,0.0,0.0,0.0,0.0,0.0,-3.0297,-3.026,-3.0273,-2.9947,0.0,0.0,0.0,-2.6941,-2.6293,-2.5828,-2.56,-2.4851,-2.4332,-2.4206,-2.3623,-2.3339,-2.3423,-2.4043,-2.4397,-2.4404,-2.4401,-2.4713,-2.5336,-2.4709,-2.4814,-2.5639,-2.5639,-2.5625,-2.5624,-2.5618,-2.5249,-2.4696,-2.4671,0.0,0.0,-2.8375,-3.0135,0.0,0.0,0.0,0.0,0.0,-3.2532,0.0,0.0,-3.0591,-2.8184,0.0,0.0,-2.1901,-2.2114,-2.1557,-2.0857,-2.0791,0.0,0.0,0.0,0.0,0.0,0.0,0.0,0.0,0.0,0.0,0.0,0.0,0.0,0.0,0.0,0.0,0.0,0.0,0.0,0.0,0.0,0.0,0.0,0.0,0.0,0.0,0.0,-2.3756,-2.2465,-2.0821,-1.9665,-1.9164,-1.9492,-2.0741,-2.1822,-2.2594,-2.4781,-2.6184,-2.6875,-2.7882,-2.8089,-2.7525,-2.4142,-2.3052,-2.3622,-1.9733,-1.8636,-1.9793,-2.2539,-2.3356,-2.2911,-2.3514,-2.2992,-2.1912,-2.1697,-1.9818,-1.7085,0.0,0.0,-2.9111,-2.9574,-2.9991,-3.0247,-3.0213,-2.992,-2.9398,0.0,0.0,0.0,-2.5945,-2.5397,-2.5107,-2.5182,-2.4434,-2.3839,-2.355,-2.2794,-2.2391,-2.2468,-2.3015,-2.3669,-2.437,-2.3692,-2.4101,-2.5699,-2.4421,-2.4432,-2.561,-2.5595,-2.5404,-2.5038,-2.4677,-2.403,-2.3162,0.0,0.0,0.0,-2.8408,0.0,0.0,-3.3126,-3.4255,0.0,0.0,0.0,-3.3139,-3.3677,-3.1179,0.0,0.0,0.0,0.0,0.0,-1.9292,-1.9149,-1.8285,-1.8055,-1.7823,0.0,0.0,0.0,0.0,0.0,0.0,0.0,0.0,0.0,0.0,0.0,0.0,0.0,0.0,0.0,0.0,0.0,0.0,0.0,0.0,0.0,0.0,0.0,0.0,-2.6857,-2.6245,-2.5148,-2.3282,-2.2164,-2.1655,-2.1866,-2.3001,-2.3849,-2.439,-2.6429,-2.7895,-2.8682,-3.0454,-3.1689,-3.2338,-3.044,-2.8528,-2.6495,-2.2872,-1.9885,-1.7734,-1.9956,-2.108,-2.1532,-2.1886,-2.1562,-2.0931,-2.0584,-1.895,-1.6733,0.0,0.0,-2.8681,-2.8872,-2.9541,-3.0089,-3.0194,-2.9505,-2.8683,0.0,-2.6833,-2.5844,-2.5075,-2.491,-2.4975,-2.5164,-2.4307,-2.3426,-2.2649,-2.1874,-2.1457,-2.1471,-2.1662,-2.2547,-2.4207,-2.2629,-2.3061,-2.5671,-2.3874,-2.3879,-2.5576,-2.549,-2.4968,-2.4094,-2.3327,-2.2384,-2.1324,-2.005,0.0,-2.4574,-2.863,-3.035,0.0,0.0,-3.3496,0.0,-3.3444,-3.3417,-3.3558,-3.4712,-3.1909,0.0,0.0,0.0,0.0,0.0,-1.6826,-1.795,-1.5303,-1.5625,-1.6427,0.0,0.0,0.0,0.0,0.0,0.0,0.0,0.0,0.0,0.0,0.0,0.0,0.0,0.0,0.0,0.0,0.0,0.0,0.0,0.0,0.0,0.0,-3.2703,-3.1439,-2.9228,-2.8783,-2.765,-2.5604,-2.5207,-2.4734,-2.408,-2.5562,-2.65,-2.676,-2.7841,-2.9157,-3.0808,-3.3487,-3.5646,-3.718,-3.2489,-3.0698,-3.0763,-2.1885,-1.7907,-1.7675,-1.7058,-1.7827,-1.9311,-1.9039,-1.9478,-2.0144,-1.871,-1.77,-1.6868,-2.7567,-2.7224,-2.7243,-2.8654,-2.9036,-2.9383,-3.009,-2.9379,-2.8688,-2.8453,-2.689,-2.5536,-2.4913,-2.4823,-2.4898,-2.5101,-2.3717,-2.28,-2.27,-2.1297,-2.0501,-2.0539,-2.1256,-2.2138,-2.3179,-2.2177,-2.2918,-2.554,-2.3784,-2.3779,-2.5421,-2.4728,-2.3929,-2.3099,-2.2898,-2.1628,-1.9721,0.0,0.0,-2.4475,-2.6726,0.0,-3.0058,-3.391,-3.5347,-3.536,-3.5941,-3.6002,-3.5628,0.0,-3.2128,-2.9214,0.0,0.0,0.0,0.0,0.0,0.0,0.0,0.0,0.0,0.0,0.0,0.0,0.0,0.0,0.0,0.0,0.0,0.0,0.0,0.0,0.0,0.0,0.0,0.0,0.0,0.0,0.0,0.0,0.0,0.0,0.0,-3.5877,-3.4136,-3.2125,-3.0187,-2.8446,-2.6785,-2.7322,-2.7235,-2.6271,-2.8588,-3.015,-3.094,-3.3064,-3.4585,-3.5391,-3.5905,-3.685,-3.7881,-3.203,-3.0217,-3.1275,-2.3944,-2.0521,-1.9851,-1.821,-1.7496,-1.761,-1.84,-1.8742,-1.8889,-1.8888,-1.7746,-1.6077,-2.651,-2.6407,-2.6821,-2.8122,-2.8681,-2.9193,-2.9952,-2.9251,-2.8598,-2.8427,-2.6822,-2.5587,-2.5276,-2.4979,-2.4865,-2.5038,-2.3897,-2.3031,-2.2631,-2.1463,-2.0806,-2.0842,-2.1338,-2.1984,-2.2832,-2.2422,-2.3042,-2.4793,-2.3886,-2.3883,-2.4687,-2.3816,-2.3424,-2.3347,-2.1255,-2.0108,-1.9728,0.0,-2.0614,-2.3295,-2.6767,0.0,-3.1669,-3.4695,-3.6075,-3.6445,-3.6781,-3.6729,-3.6277,-3.4879,-3.1747,0.0,0.0,-2.482,-2.2447,0.0,-1.6621,-1.684,0.0,0.0,0.0,-1.2318,0.0,0.0,0.0,0.0,0.0,0.0,0.0,0.0,0.0,0.0,0.0,0.0,0.0,0.0,0.0,0.0,0.0,0.0,0.0,0.0,0.0,-3.7368,-3.6045,-3.4364,-3.2403,-3.0752,-2.9486,-3.006,-3.0104,-2.9371,-3.2145,-3.3831,-3.4224,-3.586,-3.6663,-3.6669,-3.6878,-3.6897,-3.6559,-3.2231,-3.0092,-2.9525,-2.3921,-2.0661,-1.9259,-1.8331,-1.7294,-1.6415,-1.7443,-1.8313,-1.8963,-1.8433,-1.7176,-1.5647,-2.5695,-2.588,-2.6576,-2.7601,-2.816,-2.8712,-2.9537,-2.8708,-2.7865,-2.7495,-2.6521,-2.5838,-2.5762,-2.5616,-2.5687,-2.5996,-2.545,-2.4561,-2.3351,-2.2574,-2.1929,-2.1397,-2.1474,-2.1987,-2.2964,-2.2827,-2.3259,-2.4317,-2.3927,-2.3822,-2.3947,-2.2767,-2.2526,-2.2981,-2.0051,-1.909,0.0,0.0,0.0,-2.3059,0.0,-3.0585,-3.3297,-3.5299,-3.6472,-3.7055,-3.7251,-3.7026,-3.6441,-3.5096,0.0,-2.6903,-2.6952,-2.5191,0.0,0.0,0.0,0.0,0.0,0.0,0.0,0.0,0.0,-1.2579,0.0,0.0,0.0,0.0,0.0,0.0,0.0,0.0,0.0,0.0,0.0,0.0,0.0,0.0,0.0,0.0,0.0,0.0,0.0,-3.6047,-3.5867,-3.6193,-3.3352,-3.1805,-3.2387,-3.3075,-3.3278,-3.2872,-3.5795,-3.7335,-3.7198,-3.8218,-3.8193,-3.7209,-3.7303,-3.6257,-3.4176,-3.1709,-2.9251,-2.6713,-2.2702,-1.9916,-1.8112,-1.7945,-1.6976,-1.567,-1.6779,-1.7811,-1.8498,-1.7492,-1.6202,-1.4935,-2.6376,-2.5817,-2.5859,-2.7428,-2.6987,-2.6946,-2.8515,-2.7101,-2.5573,-2.4769,-2.5737,-2.6336,-2.5929,-2.7294,-2.8656,-2.9601,0.0,0.0,-2.6204,-2.5304,-2.3806,-2.1414,-2.1337,-2.2062,-2.3652,-2.2928,-2.3365,-2.5079,-2.3513,-2.3158,-2.3859,-2.1503,-2.0059,-1.9567,-2.1352,0.0,0.0,0.0,-2.3685,0.0,-2.6952,-2.9218,0.0,-3.5809,-3.7099,-3.7325,-3.8447,-3.8144,-3.6726,0.0,-3.0885,-2.7846,0.0,-2.2897,0.0,0.0,0.0,0.0,0.0,0.0,0.0,0.0,-1.1622,0.0,0.0,0.0,0.0,0.0,0.0,0.0,0.0,0.0,0.0,0.0,0.0,0.0,0.0,0.0,0.0,0.0,0.0,0.0,0.0,0.0,-3.0994,-3.7698,-3.0278,-2.8106,-3.4329,-3.6059,-3.681,-3.6755,-3.9258,-4.0433,-4.0128,-4.1809,-4.1562,-3.9413,-3.7877,-3.5065,-3.1133,-2.8704,-2.6058,-2.3228,-2.0585,-1.9079,-1.8289,-1.6846,-1.5974,-1.5698,-1.7186,-1.6823,-1.5497,-1.6076,-1.481,-1.2775,-2.5841,-2.5447,-2.5565,-2.6742,-2.6574,-2.6594,-2.7531,-2.7133,-2.6643,-2.6422,-2.6655,-2.6971,0.0,0.0,0.0,0.0,0.0,-2.9446,0.0,0.0,-2.5514,-2.2875,-2.2293,-2.2369,-2.3037,-2.2737,-2.2646,-2.289,-2.265,-2.222,-2.1602,-2.001,-1.9659,-2.0383,-2.0932,0.0,-2.2395,0.0,0.0,0.0,0.0,0.0,0.0,-3.513,-3.7007,-3.789,-3.8654,-3.8631,-3.7906,0.0,-3.1338,0.0,0.0,0.0,0.0,0.0,0.0,0.0,0.0,0.0,0.0,0.0,0.0,0.0,-0.7573,0.0,-0.4868,0.0,0.0,0.0,0.0,0.0,0.0,0.0,0.0,0.0,0.0,0.0,0.0,0.0,0.0,0.0,0.0,0.0,0.0,0.0,0.0,-2.9715,-3.7646,-3.8936,-3.9194,-3.8692,-4.0965,-4.138,-3.9696,-4.0768,-3.9466,-3.579,-3.4509,-3.1797,-2.7782,-2.5227,-2.3098,-2.136,-1.9465,-1.8335,-1.7781,-1.7117,-1.6586,-1.63,-1.669,-1.636,-1.567,-1.5673,-1.4705,-1.3444,-2.5239,-2.5125,-2.5397,-2.6192,-2.6059,-2.5894,-2.6128,-2.644,-2.6837,0.0,0.0,0.0,-2.8288,-2.856,0.0,0.0,-3.2694,-3.2166,0.0,0.0,-2.7741,-2.5305,-2.3717,0.0,-2.3902,-2.3194,-2.24,-2.1566,-2.1914,-2.1479,-2.0297,-1.8979,-1.9087,-2.0364,-2.0437,-2.2369,-2.5471,0.0,0.0,-2.8589,-2.8102,-2.9364,-3.1916,-3.5247,-3.7172,-3.8182,-3.8946,-3.9014,-3.8472,-3.6738,-3.179,0.0,-3.1366,0.0,0.0,0.0,0.0,0.0,-1.0276,0.0,0.0,0.0,0.0,0.0,0.0,0.0,0.0,0.0,0.0,0.0,0.0,0.0,0.0,0.0,0.0,0.0,0.0,0.0,0.0,0.0,0.0,0.0,0.0,0.0,0.0,0.0,0.0,0.0,-3.9631,-4.0414,-4.0068,-3.8941,-4.0533,-4.0092,-3.7369,-3.7443,-3.5422,-3.1368,-2.993,-2.7322,-2.3743,-2.1668,-2.0103,-1.8859,-1.7857,-1.7191,-1.6893,-1.6706,-1.6477,-1.6141,-1.5665,-1.5366,-1.5175,-1.4891,-1.4341,-1.3549,-2.4961,-2.4968,-2.526,-2.607,-2.5196,-2.4265,-2.4039,-2.4192,0.0,0.0,0.0,0.0,0.0,0.0,0.0,0.0,0.0,-3.886,-3.4384,0.0,-3.0789,0.0,0.0,-2.4824,0.0,-2.4797,-2.3065,-2.2457,-2.15,-2.1086,-2.1111,-1.8676,-1.7604,-1.7834,-2.0274,-2.1983,-2.3164,-2.5523,-2.9043,-3.2849,-3.1156,-3.1671,-3.3767,0.0,-3.7994,-3.8024,-3.9665,0.0,0.0,-3.4018,-3.2018,0.0,0.0,0.0,0.0,0.0,0.0,0.0,0.0,0.0,0.0,-0.7439,0.0,0.0,0.0,0.0,-0.067,0.0,0.0,0.0,0.0,0.0,0.0,0.0,0.0,0.0,0.0,0.0,0.0,0.0,0.0,0.0,0.0,0.0,0.0,0.0,0.0,0.0,-3.9064,-3.9796,-3.8951,-3.7231,-3.7296,-3.6023,-3.3229,-3.1929,-3.0005,-2.744,-2.4687,-2.1758,-1.8734,-1.8076,-1.6671,-1.4873,-1.533,-1.5622,-1.5805,-1.474,-1.444,-1.46,-1.4029,-1.3381,-1.2882,-1.3321,-1.2952,-1.2141,-2.4708,-2.457,-2.4601,-2.4995,-2.4625,-2.4377,-2.4816,-2.4829,0.0,0.0,0.0,0.0,0.0,0.0,-3.7103,0.0,0.0,-3.9277,-3.5403,-3.4082,0.0,0.0,0.0,-2.5145,0.0,0.0,-2.2234,-2.1642,-2.1155,-2.0741,-2.0372,-1.841,-1.7814,-1.8465,0.0,-2.2656,0.0,0.0,0.0,0.0,0.0,-3.0758,-3.3201,0.0,0.0,-3.6596,-3.8498,-3.9066,0.0,-3.6997,-3.3858,-3.0855,-3.2183,-2.8854,-2.471,-2.6163,-2.5397,0.0,0.0,0.0,-2.2415,-1.2013,0.0,0.0,0.0,0.0,0.0,0.0,0.0,0.0,0.0,0.0,0.0,0.0,0.0,0.0,0.0,0.0,0.0,0.0,0.0,0.0,0.0,0.0,0.0,0.0,0.0,0.0,0.0,-3.724,-3.5772,-3.3672,-3.2924,-3.1362,-2.8891,-2.7126,-2.487,-2.2172,-2.0535,-1.875,-1.6749,-1.7186,-1.6994,-1.6365,-1.6292,-1.6292,-1.6351,-1.4665,-1.419,-1.4319,-1.3578,-1.3298,-1.3254,-1.3549,-1.3426,-1.3085,-2.4512,-2.4265,-2.4154,-2.432,-2.4469,-2.4705,0.0,0.0,0.0,0.0,-3.1705,0.0,-3.7507,0.0,-3.9337,0.0,-4.1874,-4.0449,-3.6203,-3.6085,0.0,-3.237,-2.9386,0.0,0.0,0.0,-2.3866,-2.2985,-2.1532,-2.0645,-2.0274,-1.8371,-1.7814,-1.8399,0.0,-2.2264,-2.7331,0.0,-2.9322,0.0,0.0,-3.0772,0.0,0.0,-3.4727,-3.5315,0.0,-3.9062,-3.908,-3.845,-3.5804,-3.3286,-3.5883,-3.2184,-2.7427,-3.0458,-2.9164,-2.6311,-2.426,-2.65,0.0,-1.6974,-1.6493,0.0,-0.6412,0.0,0.0,0.0,0.0,0.0,0.0,0.0,0.0,0.0,0.0,0.0,0.0,0.0,0.0,0.0,0.0,0.0,0.0,0.0,0.0,0.0,0.0,0.0,0.0,0.0,-3.1749,-2.928,-2.7546,-2.5689,-2.3784,-2.155,-1.9621,-1.78,-1.6623,-1.5698,-1.5153,-1.5514,-1.588,-1.6177,-1.6001,-1.6008,-1.617,-1.4578,-1.4141,-1.4376,-1.3155,-1.2997,-1.3403,-1.3625,-1.3755,-1.3874,-2.4358,-2.4036,-2.3953,0.0,-2.4655,0.0,0.0,0.0,-2.771,0.0,-3.224,-3.3659,-3.778,-4.0559,-4.2116,-4.2128,-4.3862,0.0,-3.7144,-3.8583,0.0,0.0,-3.495,-3.5527,-3.5825,0.0,0.0,0.0,0.0,0.0,-2.0907,-1.862,-1.7604,-1.7723,-1.7711,0.0,-2.6404,-2.7276,-3.0917,-3.5813,-3.2697,-3.1727,-3.2269,-3.3478,-3.3914,-3.4344,-3.8277,-3.9408,-3.8942,-3.8162,-3.7685,-3.7297,-3.671,-3.6523,-3.6539,-3.639,-3.6593,-3.5758,-3.0723,-2.861,-2.6754,-2.2003,0.0,0.0,0.0,0.0,-1.1383,0.0,0.0,0.0,0.0,0.0,0.0,0.0,0.0,0.0,0.0,0.0,0.0,0.0,0.0,0.0,0.0,0.0,0.0,0.0,0.0,0.0,0.0,0.0,0.0,-2.3991,-2.1363,-1.9233,-1.7908,-1.546,-1.4358,-1.4484,-1.2981,-1.2715,-1.3665,-1.3061,-1.3238,-1.4196,-1.449,-1.4777,-1.4854,-1.4094,-1.4106,-1.44,-1.2657,-1.2462,-1.3141,-1.342,-1.3806,-1.4298,-2.4014,-2.4154,-2.4272,0.0,-2.4104,-2.4508,0.0,0.0,0.0,0.0,-3.5357,-3.7272,-4.3378,-4.4716,-4.5165,-4.5165,-4.5609,0.0,0.0,0.0,0.0,-3.898,-3.66,-3.6035,-3.7537,-3.2063,0.0,-2.7082,0.0,0.0,-2.1807,-1.9381,-1.8686,-1.9407,0.0,0.0,-2.5667,-2.5645,-2.8468,-3.2914,-3.2353,-3.1728,0.0,0.0,-3.534,-3.4697,-3.8208,-3.9082,-3.8511,-3.8074,-3.756,-3.7164,-3.6996,-3.6992,-3.7097,-3.7119,-3.7397,-3.7159,-3.4713,-3.4324,-3.2928,-2.584,-2.4016,-2.3363,0.0,0.0,0.0,0.0,0.0,0.0,0.0,0.0,0.0,0.0,0.0,0.0,0.0,0.0,0.0,0.0,0.0,0.0,0.0,0.0,0.0,0.0,0.0,0.0,0.0,0.0,0.0,-1.7117,-1.5547,-1.4094,-1.3033,-1.1596,-1.1038,-1.1604,-1.0588,-1.0445,-1.0988,-1.1556,-1.1838,-1.2027,-1.3006,-1.3204,-1.2721,-1.2743,-1.2559,-1.2068,-1.2078,-1.2559,-1.342,-1.3511,-1.3715,-1.4022,-2.4235,0.0,0.0,-2.5359,0.0,0.0,-2.9245,0.0,0.0,-3.676,-3.705,0.0,-4.371,-4.5495,-4.6296,-4.6309,-4.628,0.0,0.0,0.0,0.0,-3.9585,-3.9457,-3.9442,-3.9422,-3.5292,0.0,-2.9579,0.0,0.0,-2.201,-1.962,-1.8892,-1.9539,0.0,-2.0475,0.0,-2.6982,-2.9008,-3.062,-3.2638,0.0,0.0,-3.5532,-3.6509,-3.6701,-3.8498,-3.8847,-3.8373,-3.7928,-3.7542,-3.7185,-3.7005,-3.7044,-3.7143,-3.7154,-3.7088,-3.6923,-3.6188,-3.5882,-3.4784,-3.0612,-3.0039,-2.9556,-2.5967,-2.2423,-2.0286,0.0,0.0,0.0,0.0,0.0,0.0,0.0,0.0,0.0,0.0,0.0,0.0,0.0,0.0,0.0,0.0,0.0,0.0,0.0,0.0,0.0,0.0,0.0,0.0,-1.2021,-1.007,-0.9442,-1.033,-0.8395,-0.8319,-1.0259,-0.9887,-1.0149,-1.0947,-1.1245,-1.1302,-1.1302,-1.2375,-1.2533,-1.2155,-1.2073,-1.2268,-1.2549,-1.2651,-1.2845,-1.3039,-1.2845,-1.3431,-1.4214,-2.4956,0.0,0.0,0.0,0.0,0.0,0.0,-3.1233,0.0,-3.8254,0.0,-3.8965,-4.2041,-4.4726,-4.6293,-4.6305,0.0,-4.4882,-4.1558,-4.4388,-4.3935,-3.8867,-4.259,-4.3578,-4.1032,-3.8883,0.0,0.0,0.0,0.0,-2.1673,-1.9599,0.0,0.0,0.0,0.0,0.0,-2.9209,-3.0637,0.0,-3.3159,-3.4696,-3.4889,-3.5909,-3.7368,-3.884,-3.8722,-3.8579,-3.8332,-3.781,-3.7503,-3.7317,-3.7009,-3.697,-3.7048,-3.6856,-3.6435,-3.6021,-3.6003,-3.5073,-3.4225,-3.4697,-3.4658,-3.3211,-2.8244,-2.764,-2.6868,-2.2498,-2.1176,-2.1023,0.0,0.0,0.0,0.0,0.0,0.0,0.0,0.0,0.0,0.0,0.0,0.0,0.0,0.0,0.0,0.0,0.0,0.0,0.0,0.0,0.0,0.0,-0.5838,0.0,-0.7991,0.0,-0.6294,-0.9154,-0.9836,-1.0711,-1.1662,-1.1175,-1.0983,-1.1162,-1.1948,-1.216,-1.2078,-1.1688,-1.2457,-1.3811,-1.342,-1.2942,-1.2273,-1.2078,-1.3044,-1.44,0.0,0.0,0.0,0.0,0.0,-3.4652,-3.8518,-3.7213,-3.7357,-4.1716,-4.1544,-4.2144,-4.5172,-4.5987,-4.6295,-4.6309,-4.629,0.0,0.0,0.0,0.0,-4.2713,-4.3955,-4.3529,-4.0975,-3.8818,-3.5652,0.0,0.0,0.0,-2.0717,-1.9759,0.0,0.0,0.0,0.0,-2.5789,-2.7693,0.0,-3.142,-3.3177,-3.3967,-3.4326,-3.656,-3.7445,-3.7539,-3.8031,-3.8132,-3.798,-3.7756,-3.754,-3.7334,-3.7429,-3.7485,-3.747,-3.6898,-3.6717,-3.6489,-3.5345,-3.4624,-3.4056,-3.3446,-3.3741,-3.3604,-3.1347,-3.2406,-3.3526,-3.2291,-3.2269,-3.1156,-2.6895,0.0,0.0,0.0,0.0,0.0,0.0,0.0,0.0,0.0,0.0,0.0,0.0,0.0,0.0,0.0,0.0,0.0,0.0,0.0,0.0,0.0,0.0,0.0,0.0,0.0,-0.5357,-0.4519,-0.8596,-1.0044,-0.9006,-0.9489,-0.9601,-0.9363,-1.0811,-1.0998,-1.0507,-1.0998,-1.1487,-1.1775,-1.217,-1.217,-1.2073,-1.198,-1.2467,-1.3147,0.0,0.0,0.0,0.0,0.0,0.0,0.0,-4.3571,0.0,-4.3751,-4.2571,-4.229,-4.3763,-4.5332,-4.6303,-4.6295,-4.5891,-4.5815,-4.6278,-4.5425,-4.4519,-4.363,-4.3506,0.0,-4.0886,-3.9801,-3.6791,-3.1781,0.0,-2.5601,-2.1203,-2.0075,-1.9752,-2.0167,0.0,-2.3145,0.0,0.0,0.0,-3.1415,-3.4157,-3.5248,-3.5429,-3.6993,-3.7656,-3.778,-3.8008,-3.7966,-3.7703,-3.7595,-3.7503,-3.7447,-3.7317,-3.7218,-3.7109,-3.6618,-3.6432,-3.6164,-3.518,-3.4914,-3.4614,-3.3364,-3.3608,-3.39,-3.2985,-3.3737,-3.4634,-3.4584,-3.4644,-3.2848,-2.6898,-1.9595,0.0,0.0,0.0,0.0,0.0,0.0,0.0,0.0,0.0,0.0,0.0,0.0,0.0,0.0,0.0,0.0,0.0,0.0,0.0,0.0,0.0,0.0,0.0,0.0,0.0,-0.5545,-0.8125,-0.9425,-0.9642,-0.976,-0.9725,-0.9658,-1.0748,-1.09,-1.0511,-1.1389,-1.1487,-1.1096,-1.1883,-1.2078,-1.1785,-1.198,-1.2462,-1.3136,0.0,-3.1341,0.0,0.0,-3.8735,0.0,-4.4776,-4.786,-4.8722,-4.565,-4.3897,-4.2863,-4.27,-4.4856,-4.6308,-4.6305,-4.5664,-4.5566,-4.6267,-4.4833,-4.3853,-4.3621,-4.2758,-4.1829,-4.0839,-4.073,-3.8159,0.0,0.0,0.0,0.0,-2.0519,-2.0106,0.0,0.0,0.0,0.0,0.0,-3.1873,-3.2139,-3.5225,-3.6433,-3.65,-3.7165,-3.7648,-3.7987,-3.7998,-3.781,-3.7503,-3.7429,-3.7429,-3.7466,-3.7164,-3.6915,-3.662,-3.6248,-3.5946,-3.563,-3.5146,-3.521,-3.5157,-3.4015,-3.4195,-3.4526,-3.404,-3.4198,-3.4446,-3.4576,-3.4086,-3.1737,-2.5698,-2.1192,0.0,0.0,0.0,0.0,0.0,0.0,0.0,0.0,0.0,0.0,0.0,0.0,0.0,0.0,0.0,0.0,0.0,0.0,0.0,0.0,0.0,-0.3474,-0.2465,0.0,-0.4193,0.0,-0.7578,-0.9054,-1.0478,-1.033,-1.0269,-1.0399,-1.0992,-1.1194,-1.1096,-1.2078,-1.1883,-1.1096,-1.2078,-1.2175,-1.1688,-1.2073,-1.2743,-1.3414,0.0,0.0,0.0,0.0,0.0,0.0,-4.4631,-4.7291,-4.8786,-4.8426,-4.7549,-4.6671,-4.5957,-4.6129,-4.6303,-4.6308,-4.623,-4.621,-4.6284,-4.535,-4.4469,-4.3714,-4.2743,-4.18,-4.0915,-4.0761,-3.884,0.0,0.0,0.0,0.0,-2.1153,-2.1074,0.0,0.0,0.0,0.0,-3.1013,-3.2858,-3.6007,-3.5732,-3.5861,-3.6303,-3.6979,-3.7094,-3.6994,-3.747,-3.7503,-3.7334,-3.7297,-3.7297,-3.7334,-3.7354,-3.7077,-3.6561,-3.5883,-3.5476,-3.522,-3.5128,-3.4944,-3.4907,-3.5344,-3.5798,-3.5883,-3.4889,-3.5276,-3.5658,-3.5066,-3.3539,-3.0782,-2.5879,-2.3959,-2.1231,0.0,0.0,0.0,0.0,0.0,0.0,0.0,0.0,0.0,0.0,0.0,0.0,0.0,0.0,0.0,0.0,0.0,0.0,0.0,0.0,-0.1119,0.258,-0.307,0.0,-0.2224,-0.6679,-0.8994,-0.9347,-1.0164,-1.0578,-1.0703,-1.1288,-1.1585,-1.1585,-1.2467,-1.2273,-1.159,-1.2467,-1.2467,-1.2073,-1.2737,-1.3028,-1.3312,0.0,0.0,0.0,0.0,0.0,0.0,0.0,-4.837,-4.8526,-4.8079,-4.7255,-4.6612,-4.6328,-4.6307,-4.6307,-4.6305,-4.535,-4.5175,-4.6228,-4.3986,-4.2904,-4.3539,-4.2194,-4.1208,-4.0742,-4.0675,-3.9035,0.0,0.0,0.0,0.0,0.0,0.0,0.0,0.0,-2.9446,-3.212,-3.2692,-3.3836,-3.5311,-3.5479,-3.584,-3.6332,-3.6949,-3.7316,-3.7449,-3.7596,-3.7503,-3.7354,-3.7297,-3.722,-3.7126,-3.7283,-3.6737,-3.6085,-3.6197,-3.6067,-3.5846,-3.579,-3.6285,-3.6685,-3.5986,-3.623,-3.65,-3.5865,-3.5794,-3.5881,-3.5906,-3.3881,-3.128,-2.8626,-2.5525,-2.3091,0.0,0.0,0.0,0.0,0.0,0.0,0.0,0.0,0.0,0.0,0.0,0.0,0.0,0.0,0.0,0.0,0.0,0.0,-0.0,0.0,-0.2135,0.0223,-0.3019,-0.4806,-0.5016,-0.7177,-0.8682,-0.953,-1.045,-1.1208,-1.1915,-1.2021,-1.237,-1.2759,-1.2565,-1.2559,-1.2549,-1.2759,-1.2851,-1.2937,-1.3414,-1.4184,-1.5038,-4.3808,0.0,-4.308,0.0,-4.6294,-4.5777,-4.9326,-4.937,-4.8623,-4.7606,-4.6924,-4.6494,-4.6326,-4.6306,-4.6307,-4.6307,-4.5174,-4.4882,-4.5857,-4.3359,-4.2222,-4.3077,-4.1673,0.0,-4.0229,-4.0207,-3.9,-3.6605,-3.2589,0.0,0.0,-2.5781,-2.6573,0.0,-3.0765,-3.2048,-3.3455,-3.4128,-3.4643,-3.5051,-3.564,-3.6165,-3.6681,-3.7283,-3.7682,-3.7916,-3.7703,-3.7503,-3.7374,-3.7279,-3.7023,-3.6847,-3.7232,-3.6539,-3.5792,-3.6602,-3.659,-3.6352,-3.6534,-3.7302,-3.779,-3.6817,-3.6902,-3.7068,-3.6594,-3.6109,-3.5746,-3.5602,-3.3765,-3.1835,-3.0831,-2.7637,-2.5252,-2.5639,0.0,0.0,0.0,0.0,0.0,0.0,0.0,0.0,0.0,0.0,0.0,0.0,0.0,0.0,0.0,0.0,0.0,0.0,0.0,0.0,0.0,-0.3672,-0.5775,-0.7436,-0.7846,-0.8663,-0.9868,-1.0857,-1.188,-1.2856,-1.2634,-1.2916,-1.363,-1.3044,-1.2942,-1.3318,-1.3238,-1.3431,-1.3806,-1.4004,-1.4867,-1.5913,-4.6397,-4.4393,-4.4048,-5.0028,-4.8463,-4.7134,-4.9453,-4.9854,-4.9294,-4.7622,-4.7381,-4.7118,-4.6374,-4.63,-4.6303,-4.6293,-4.6287,-4.5917,-4.5073,-4.4114,-4.3156,0.0,0.0,-4.0331,-3.9335,-3.9244,-3.8754,-3.7792,0.0,0.0,-3.2259,-2.9588,-2.9777,-3.234,-3.2162,-3.3827,-3.6659,-3.5123,-3.5224,-3.6399,-3.6453,-3.6842,-3.7436,-3.8077,-3.8204,-3.8034,-3.7721,-3.7503,-3.7374,-3.7185,-3.671,-3.6344,-3.7237,-3.6662,-3.591,-3.6887,-3.6758,-3.6452,-3.7272,-3.7452,-3.7503,-3.795,-3.8016,-3.7774,-3.7038,-3.6277,-3.5256,-3.3746,-3.2812,-3.2144,-3.1681,-3.0715,-2.8381,-2.3388,0.0,0.0,0.0,0.0,0.0,0.0,-0.9094,-0.6356,-0.9284,0.0,0.0,0.0,0.0,0.0,0.0,0.0,0.0,-0.3852,-0.0728,0.0,0.0112,-0.5282,-0.7979,-0.7858,-0.8451,-0.9331,-1.0184,-1.1409,-1.2287,-1.3039,-1.2793,-1.3259,-1.4292,-1.3709,-1.3613,-1.3908,-1.4196,-1.4298,-1.4298,-1.4592,-1.4885,-1.5274,-4.9765,-4.9065,-4.8919,-5.0726,-4.9711,-4.89,-4.962,-4.8812,-4.7962,-4.7457,-4.6918,-4.6493,-4.6261,-4.6276,-4.6293,0.0,-4.5761,-4.5526,0.0,-4.3864,-4.2804,-4.3013,-4.1509,-4.0472,-4.005,-3.9397,-3.8892,-3.8554,0.0,0.0,0.0,-3.1609,-3.3087,-3.6316,-3.519,-3.5483,-3.6702,-3.5142,-3.4974,-3.571,-3.5781,-3.6454,-3.7399,-3.752,-3.77,-3.7951,-3.7757,-3.7631,-3.7595,-3.7522,-3.7271,-3.7084,-3.7881,-3.7011,-3.6009,-3.7503,-3.7403,-3.6929,-3.7653,-3.7739,-3.7664,-3.7909,-3.7952,-3.7782,-3.7171,-3.6059,-3.4686,-3.3011,-3.2318,-3.1871,-3.1276,-3.0791,-2.9595,-2.7054,-2.6713,0.0,0.0,0.0,0.0,0.0,0.0,-0.4503,0.0,-0.3641,0.0,0.0,0.0,0.0,0.0,0.0,0.0,0.0,-0.3265,0.0,-0.2672,-0.6018,-0.7822,-0.8164,-0.8448,-0.9568,-1.1189,-1.2464,-1.3202,-1.3715,-1.4473,-1.4858,-1.4802,-1.4686,-1.4558,-1.4412,-1.4314,-1.437,-1.4592,-1.4885,-1.5452,-1.6211,-5.1248,-5.123,-5.1171,-5.0984,-5.0571,-5.0255,-5.0201,-4.911,-4.8185,-4.7963,-4.7203,-4.6567,-4.6265,-4.6246,0.0,-4.6301,-4.5801,-4.5407,-4.5232,-4.368,-4.2638,-4.2401,-4.1196,-4.0335,-3.9811,0.0,0.0,-3.8327,-3.5687,-3.437,-3.429,-3.4614,-3.5986,-3.8152,-3.6902,-3.6522,-3.6746,-3.5161,-3.4848,-3.5435,-3.5692,-3.6251,-3.6941,-3.7007,-3.7283,-3.7566,-3.7072,-3.7307,-3.7791,-3.7416,-3.7223,-3.7262,-3.7832,-3.713,-3.6431,-3.8004,-3.8111,-3.7785,-3.815,-3.8239,-3.8199,-3.8139,-3.7974,-3.7545,-3.6421,-3.5234,-3.3948,-3.249,-3.2027,-3.1703,-3.1312,-3.0887,-3.0119,-2.8786,-2.7279,-2.5348,-2.2271,0.0,0.0,0.0,0.0,0.0,0.0,-0.5044,0.0,0.0,0.0,0.0,0.0,0.0,0.0,-0.4583,-0.5881,0.0,-0.5237,-0.7152,-0.8495,-0.8941,-1.001,-1.1203,-1.236,-1.3698,-1.4567,-1.4956,-1.5527,-1.579,-1.5615,-1.5396,-1.5093,-1.4849,-1.4631,-1.474,-1.4968,-1.4981,-1.5547,-1.6487,-5.1047,-5.1142,-5.1152,0.0,-5.1081,0.0,-5.1024,-5.0382,-4.9644,-4.8892,-4.8047,-4.7192,-4.6385,-4.623,-4.6211,-4.6285,0.0,0.0,0.0,-4.3584,-4.2684,-4.0926,-4.0622,-3.9974,-3.8899,-3.8821,-3.8324,-3.739,-3.739,-3.743,-3.7505,-3.8124,-3.8365,-3.8275,-3.7511,-3.7135,-3.6913,-3.5356,-3.5002,-3.5565,-3.6058,-3.6268,-3.6347,-3.6626,-3.6971,-3.7166,-3.615,-3.6787,-3.7959,-3.7032,-3.6865,-3.7061,-3.7434,-3.7256,-3.7151,-3.8355,-3.8771,-3.8829,-3.8756,-3.8885,-3.8946,-3.8535,-3.8035,-3.7053,-3.5007,-3.3985,-3.3193,-3.2145,-3.1711,-3.1569,-3.1483,-3.0914,-2.9961,-2.8513,-2.604,-2.2682,-1.7906,0.0,0.0,0.0,0.0,0.0,0.0,-0.7884,-0.8493,0.0,0.0,0.0,0.0,0.0,-0.4904,-0.8806,-0.839,-0.7901,-0.7464,-0.8765,-0.9754,-1.0255,-1.2737,-1.3709,-1.3511,-1.5127,-1.6089,-1.6487,-1.6089,-1.615,-1.649,-1.5787,-1.5351,-1.5139,-1.5126,-1.53,-1.5343,-1.4968,-1.535,-1.619,0.0,0.0,-5.0539,-5.1042,-5.116,-5.1191,-5.1156,-5.0472,-4.9684,-4.8903,-4.805,-4.7193,-4.6397,-4.6195,-4.6156,-4.6212,-4.6123,-4.5871,-4.5384,-4.3996,-4.2943,-4.2387,-4.0973,-4.0024,-3.965,-3.8937,-3.8199,-3.7389,-3.7392,-3.7714,-3.8338,-3.8439,-3.8733,-3.9158,-3.8484,-3.8089,-3.7914,-3.6953,-3.6541,-3.6497,-3.5994,-3.6414,-3.7274,-3.66,-3.7051,-3.7998,-3.77,-3.783,-3.8083,-3.7954,-3.7947,-3.814,-3.8686,-3.8528,-3.8221,-3.8545,-3.85,-3.8496,-3.8942,-3.872,-3.8265,-3.7937,-3.7203,-3.6144,-3.4636,-3.3665,-3.2745,-3.1605,-3.0877,-3.0433,-3.0369,-2.944,-2.8315,-2.7079,-2.3267,-1.9587,-1.7304,-1.2601,0.0,0.0,-0.7124,-0.7023,-0.8392,-0.8382,-0.8436,0.0,0.0,0.0,0.0,-0.7462,-0.7462,-1.0059,-0.9496,-0.908,-0.8877,-0.9808,-1.0625,-1.1246,-1.2856,-1.3607,-1.3511,-1.5127,-1.59,-1.6015,-1.6298,-1.6238,-1.5959,-1.5849,-1.5496,-1.512,-1.5573,-1.5543,-1.5439,-1.554,-1.5818,-1.619,-5.0387,-5.0511,-5.0694,-5.1123,-5.12,-5.1206,-5.1232,-5.0508,-4.9814,-4.9433,-4.8631,-4.7929,-4.7444,-4.7006,-4.6713,-4.6668,-4.6227,-4.5763,-4.5327,-4.3923,-4.2864,-4.2345,-4.0883,-4.006,-3.9975,-3.9475,-3.8958,-3.8546,-3.8445,-3.8606,-3.8968,-3.8922,-3.9094,-3.9389,-3.8776,-3.8437,-3.8244,-3.7483,-3.7099,-3.6962,-3.6586,-3.6712,-3.71,-3.665,-3.7057,-3.7785,-3.7312,-3.762,-3.818,-3.7885,-3.798,-3.8282,-3.8869,-3.8738,-3.8539,-3.9118,-3.9122,-3.9023,-3.9145,-3.9007,-3.8572,-3.7676,-3.6773,-3.5773,-3.4658,-3.3566,-3.2472,-3.1523,-3.0303,-2.9505,-2.958,-2.8127,-2.673,-2.5973,-2.1332,-1.7343,-1.5817,-1.1104,0.0,-0.8871,-0.8354,-0.858,-1.0396,-1.0253,-0.991,-0.9926,0.0,0.0,-1.0066,-0.9769,-1.0134,-1.1254,-1.0672,-1.0569,-1.09,-1.1756,-1.248,-1.2834,-1.4082,-1.4663,-1.4573,-1.5988,-1.656,-1.6487,-1.6669,-1.664,-1.6531,-1.5939,-1.5716,-1.568,-1.555,-1.5739,-1.6096,-1.5724,-1.6103,-1.6756,-5.0617,-5.0777,-5.0895,-5.1128,-5.1191,-5.1235,-5.1294,-5.063,-5.0116,-5.0097,-4.9432,-4.8886,-4.8716,-4.8055,-4.749,-4.7171,-4.646,-4.5665,-4.48,-4.3813,-4.2861,-4.199,-4.0998,-4.048,-4.0458,-4.0241,-4.01,-4.0015,-3.9722,-3.9502,-3.9401,-3.9401,-3.9401,-3.9338,-3.8884,-3.8629,-3.8479,-3.7779,-3.7404,-3.73,-3.7433,-3.7155,-3.6666,-3.6856,-3.7126,-3.7351,-3.6552,-3.7262,-3.8441,-3.7735,-3.7814,-3.8313,-3.8843,-3.8766,-3.8666,-3.9834,-4.0026,-3.9731,-3.9395,-3.9295,-3.887,-3.7385,-3.6368,-3.5529,-3.4662,-3.3449,-3.2311,-3.1514,-2.9918,-2.8672,-2.8675,-2.6889,-2.511,-2.3994,-1.9074,-1.4832,-1.3318,0.0,-0.7629,-0.9394,-0.9907,-1.0918,-1.2841,-1.22,-1.18,-1.2021,-1.1399,-1.1301,0.0,-1.2242,-1.2518,-1.2579,-1.1971,-1.2042,-1.2802,-1.3878,-1.4394,-1.4455,-1.5593,-1.6075,-1.5892,-1.7015,-1.7362,-1.7138,-1.6756,-1.6766,-1.6943,-1.5907,-1.5748,-1.5976,-1.5512,-1.5926,-1.6763,-1.6001,-1.6379,-1.7326,-4.9381,-4.9586,-4.9951,-5.0869,-5.1115,-5.1245,-5.1365,-5.1263,-5.0914,-5.0183,-4.9887,-4.9444,-4.8697,-4.835,-4.7844,-4.7008,-4.6714,-4.624,-4.5404,-4.4511,-4.3886,-4.355,-4.2709,-4.217,-4.206,-4.1217,-4.0691,-4.0584,-3.9827,-3.9452,-3.9483,-3.9483,-3.9551,-3.9647,-3.9607,-3.9615,-3.9637,-3.9345,-3.8799,-3.8107,-3.797,-3.7719,-3.7451,-3.7408,-3.771,-3.814,-3.798,-3.851,-3.9204,-3.885,-3.9193,-3.9833,-4.0321,-4.0095,-3.9753,-4.0341,-4.0,-3.9563,-3.9783,-3.8826,-3.7472,-3.6399,-3.5688,-3.5067,-3.4113,-3.3,-3.1842,-3.075,-2.9414,-2.8145,-2.6858,-2.5552,-2.3126,-1.8789,-1.409,-1.0439,-0.8758,0.0,-0.7473,-0.9421,-1.2151,-1.361,-1.2899,-1.2391,-1.216,-1.2221,-1.1166,-1.1147,-1.2779,-1.2958,-1.3372,-1.4254,-1.3291,-1.3138,-1.3906,-1.4672,-1.498,-1.5029,-1.5602,-1.5894,-1.5901,-1.6289,-1.6539,-1.6676,-1.5737,-1.5402,-1.5505,-1.5457,-1.5289,-1.5049,-1.6064,-1.641,-1.6407,-1.6864,-1.7138,-1.7419,-4.9784,-4.9961,-5.0257,-5.1122,-5.1242,-5.1223,-5.1324,-5.1277,-5.1121,-5.0781,-5.0572,-5.0275,-4.9831,-4.9356,-4.8629,-4.7526,-4.701,-4.634,-4.536,-4.4537,-4.4037,-4.3926,-4.313,-4.2465,-4.1926,-4.1393,-4.1024,-4.0841,-3.989,-3.9645,-4.0076,-3.9708,-3.9599,-3.9717,-3.987,-3.9911,-3.9781,-3.9647,-3.932,-3.8814,-3.8544,-3.8376,-3.8272,-3.8022,-3.8364,-3.8961,-3.8961,-3.9402,-3.9949,-3.977,-3.9894,-4.0211,-4.0654,-4.0506,-4.0234,-4.05,-3.9868,-3.9061,-3.8903,-3.7831,-3.6554,-3.5834,-3.4942,-3.4153,-3.3618,-3.2455,-3.1209,-3.0445,-2.8631,-2.6831,-2.5776,-2.3876,-2.1149,-1.7066,-1.3539,-1.1059,-1.0456,-0.9455,-0.9729,-1.2488,-1.3796,-1.4168,-1.3421,-1.292,-1.2479,-1.2149,-1.205,-1.2309,-1.2861,-1.3568,-1.4225,-1.4655,-1.432,-1.4258,-1.4481,-1.4998,-1.537,-1.5513,-1.5744,-1.5842,-1.5905,-1.5541,-1.5498,-1.5763,-1.4647,-1.4467,-1.4911,-1.4862,-1.5023,-1.5415,-1.5967,-1.64,-1.6697,-1.7052,-1.7333,-1.7621,-5.0732,-5.0851,-5.0991,-5.179,-5.152,-5.1279,-5.1541,-5.1327,-5.1142,-5.1242,-5.1061,-5.0912,-5.0805,-5.0289,-4.9386,-4.7988,-4.7377,-4.6493,-4.516,-4.4562,-4.4219,-4.4148,-4.3607,-4.2865,-4.1945,-4.1648,-4.1306,-4.092,-3.9921,-3.9757,-4.036,-3.987,-3.967,-3.9758,-3.9975,-3.9954,-3.9762,-3.9623,-3.9477,-3.9298,-3.8979,-3.8944,-3.908,-3.8757,-3.907,-3.9745,-3.9763,-4.0218,-4.0745,-4.0636,-4.0688,-4.0807,-4.0955,-4.0856,-4.0639,-4.0552,-3.9594,-3.8383,-3.7838,-3.6859,-3.5804,-3.519,-3.4192,-3.3297,-3.3115,-3.1928,-3.067,-2.9845,-2.7879,-2.5826,-2.4575,-2.2544,-1.9935,-1.6303,-1.3975,-1.2599,-1.257,-1.1504,-1.1866,-1.4739,-1.4808,-1.431,-1.3777,-1.3469,-1.3054,-1.2408,-1.2946,-1.3236,-1.3014,-1.3959,-1.4485,-1.4589,-1.506,-1.5143,-1.498,-1.5351,-1.57,-1.601,-1.5774,-1.5818,-1.6094,-1.5102,-1.4949,-1.5275,-1.4207,-1.4116,-1.4802,-1.4759,-1.5041,-1.568,-1.594,-1.6375,-1.6878,-1.7044,-1.7426,-1.7908,-5.1941,-5.1783,-5.1816,-5.3062,-5.2071,-5.1406,-5.2279,-5.1725,-5.1161,-5.1123,-5.1097,-5.1017,-5.0825,-5.0745,-4.9931,-4.7977,-4.7809,-4.7019,-4.5128,-4.5004,-4.4962,-4.4843,-4.4768,-4.4278,-4.3265,-4.2523,-4.1676,-4.072,-3.9908,-3.9558,-3.9671,-3.975,-3.9826,-3.9889,-3.9975,-3.9996,-3.9954,-3.9647,-3.9477,-3.935,-3.9092,-3.9305,-3.9717,-3.9626,-3.9938,-4.0437,-4.0562,-4.1034,-4.1596,-4.154,-4.1895,-4.235,-4.1793,-4.1508,-4.1168,-4.05,-3.9049,-3.7573,-3.7156,-3.6276,-3.519,-3.4153,-3.3451,-3.2875,-3.2547,-3.1649,-3.0329,-2.8318,-2.746,-2.6057,-2.2808,-2.1933,-2.012,-1.5523,-1.3884,-1.2845,-1.1876,-1.1656,-1.2114,-1.345,-1.4669,-1.4815,-1.3357,-1.3552,-1.3741,-1.3709,-1.3249,-1.3239,-1.406,-1.3923,-1.3965,-1.4238,-1.5245,-1.5719,-1.5765,-1.6038,-1.6196,-1.6218,-1.567,-1.5808,-1.66,-1.5293,-1.5232,-1.6155,-1.4799,-1.4598,-1.5134,-1.557,-1.5525,-1.5236,-1.6276,-1.6677,-1.6683,-1.7145,-1.7613,-1.8179,-5.1658,-5.1982,-5.2379,-5.3414,-5.265,-5.2201,-5.3116,-5.2016,-5.1272,-5.1841,-5.1237,-5.0791,-5.0748,-5.0218,-4.9277,-4.7808,-4.7283,-4.6393,-4.4896,-4.487,-4.4967,-4.5148,-4.4431,-4.3677,-4.2928,-4.2048,-4.1345,-4.0892,-4.0008,-3.9808,-4.0258,-3.9838,-3.9717,-3.9892,-3.9914,-3.9935,-3.9914,-3.9717,-3.9452,-3.9129,-3.9036,-3.9312,-3.9731,-3.9603,-4.0242,-4.1144,-4.1125,-4.1631,-4.2242,-4.2124,-4.2358,-4.2609,-4.1984,-4.1831,-4.1596,-4.0466,-3.8745,-3.7175,-3.6569,-3.5518,-3.4341,-3.3185,-3.2475,-3.1869,-3.0856,-2.9948,-2.8773,-2.685,-2.5333,-2.3669,-2.1712,-2.0696,-1.8728,-1.4444,-1.4585,-1.4439,-1.2048,-1.2625,-1.3475,-1.3886,-1.455,-1.4702,-1.4089,-1.4201,-1.4395,-1.4619,-1.4517,-1.4456,-1.4202,-1.4094,-1.4143,-1.4226,-1.4784,-1.5139,-1.5389,-1.5431,-1.5675,-1.6008,-1.5628,-1.5591,-1.5952,-1.5261,-1.4993,-1.5026,-1.4746,-1.454,-1.44,-1.5268,-1.5351,-1.5191,-1.6245,-1.6599,-1.6683,-1.6972,-1.7441,-1.7908,-5.1712,-5.2409,-5.3009,-5.413,-5.3487,-5.3105,-5.3977,-5.2806,-5.1942,-5.2227,-5.1592,-5.0991,-5.0663,-4.9856,-4.887,-4.7747,-4.6956,-4.605,-4.4878,-4.4815,-4.4781,-4.4808,-4.4022,-4.3141,-4.2186,-4.173,-4.1198,-4.0594,-4.0183,-4.0084,-4.03,-3.9758,-3.9599,-3.9762,-3.9739,-3.9785,-3.9892,-3.967,-3.9452,-3.9237,-3.9073,-3.9342,-3.9813,-3.9836,-4.0372,-4.1197,-4.1683,-4.2057,-4.2322,-4.2519,-4.2652,-4.2655,-4.1926,-4.1411,-4.0938,-3.9868,-3.8141,-3.64,-3.5616,-3.4389,-3.3199,-3.2536,-3.1708,-3.0829,-2.987,-2.8843,-2.7673,-2.5939,-2.426,-2.259,-2.1067,-2.0133,-1.8548,-1.5423,-1.6062,-1.6051,-1.3598,-1.403,-1.4515,-1.4083,-1.4191,-1.4331,-1.4201,-1.4125,-1.4263,-1.4588,-1.4696,-1.4534,-1.4054,-1.4294,-1.4439,-1.4159,-1.4511,-1.4959,-1.5515,-1.5154,-1.516,-1.5737,-1.5347,-1.5246,-1.5464,-1.5117,-1.5003,-1.4897,-1.4926,-1.4759,-1.4612,-1.5281,-1.5523,-1.5648,-1.6305,-1.6676,-1.6864,-1.6878,-1.716,-1.7441,-5.2407,-5.3038,-5.3723,-5.5398,-5.4584,-5.3994,-5.4869,-5.4198,-5.3214,-5.2138,-5.2095,-5.1754,-5.0619,-4.9836,-4.8971,-4.7879,-4.7061,-4.6137,-4.5071,-4.487,-4.4461,-4.3739,-4.376,-4.2962,-4.1237,-4.1836,-4.1361,-3.9693,-4.0428,-4.0359,-3.9495,-3.9514,-3.9502,-3.9483,-3.9376,-3.9526,-3.987,-3.9477,-3.9502,-3.9758,-3.9272,-3.9452,-4.005,-4.0423,-4.0504,-4.0636,-4.2199,-4.2318,-4.1848,-4.2643,-4.281,-4.2533,-4.1576,-4.0246,-3.892,-3.8557,-3.7065,-3.525,-3.4182,-3.2862,-3.1857,-3.2106,-3.1073,-2.9966,-2.9845,-2.8579,-2.7126,-2.5688,-2.464,-2.3359,-2.083,-2.0419,-1.9958,-1.8808,-1.8222,-1.7563,-1.6756,-1.5959,-1.5019,-1.3846,-1.3738,-1.3541,-1.328,-1.3067,-1.3075,-1.3642,-1.3469,-1.3446,-1.3655,-1.456,-1.4841,-1.4239,-1.4838,-1.5461,-1.6318,-1.5217,-1.485,-1.5386,-1.4581,-1.4642,-1.5541,-1.493,-1.5246,-1.6304,-1.5426,-1.5363,-1.5895,-1.5869,-1.6079,-1.6588,-1.6588,-1.6864,-1.7232,-1.677,-1.6784,-1.6885,-5.1604,-5.246,-5.327,-5.5029,-5.4851,-5.459,-5.4957,-5.372,-5.2641,-5.2327,-5.166,-5.1043,-5.0625,-4.9278,-4.8175,-4.7566,-4.6437,-4.5566,-4.5167,-4.5154,-4.4794,-4.3952,-4.3057,-4.2167,-4.1219,-4.0703,-4.015,-3.9545,-3.9789,-3.9664,-3.9229,-3.9156,-3.9219,-3.935,-3.9272,-3.935,-3.9526,-3.9376,-3.9173,-3.8933,-3.8902,-3.9436,-4.0224,-3.9794,-4.0593,-4.192,-4.1794,-4.2009,-4.233,-4.2342,-4.2235,-4.1859,-4.0359,-3.9443,-3.8629,-3.71,-3.5891,-3.4738,-3.3509,-3.2345,-3.1307,-3.0992,-3.0241,-2.9312,-2.8124,-2.7117,-2.5889,-2.3519,-2.259,-2.1769,-2.0395,-1.9826,-1.943,-1.9299,-1.8444,-1.7629,-1.7045,-1.5797,-1.4358,-1.3202,-1.3188,-1.2993,-1.2256,-1.2611,-1.3051,-1.3667,-1.3237,-1.3383,-1.4319,-1.3979,-1.3909,-1.4149,-1.4978,-1.5382,-1.5419,-1.5692,-1.6057,-1.6703,-1.6168,-1.594,-1.5992,-1.5505,-1.5584,-1.6317,-1.6009,-1.6017,-1.6182,-1.6551,-1.6663,-1.6588,-1.64,-1.6683,-1.7138,-1.6204,-1.6393,-1.7145,-5.0132,-5.1764,-5.3181,-5.4491,-5.5052,-5.5368,-5.5525,-5.4599,-5.3624,-5.2945,-5.1899,-5.0951,-5.022,-4.8529,-4.7367,-4.7105,-4.6018,-4.5339,-4.5321,-4.5381,-4.5036,-4.4154,-4.2993,-4.2022,-4.1309,-4.0628,-4.0056,-3.9575,-3.9796,-3.9616,-3.9101,-3.8979,-3.8979,-3.9101,-3.9045,-3.9137,-3.9287,-3.9192,-3.9165,-3.9153,-3.8726,-3.9232,-4.014,-3.9252,-3.9801,-4.1071,-4.0871,-4.1032,-4.1371,-4.1238,-4.0822,-4.0151,-3.8794,-3.8136,-3.7575,-3.5923,-3.4676,-3.3558,-3.2419,-3.1249,-3.0126,-2.9201,-2.8809,-2.831,-2.6824,-2.6111,-2.5133,-2.2657,-2.1994,-2.1534,-2.0406,-1.9881,-1.9555,-1.9583,-1.8708,-1.7806,-1.7324,-1.566,-1.404,-1.3004,-1.2581,-1.21,-1.1359,-1.1779,-1.2398,-1.3088,-1.3033,-1.3311,-1.4407,-1.4186,-1.4243,-1.474,-1.4984,-1.5263,-1.5553,-1.5872,-1.6101,-1.6137,-1.5791,-1.5571,-1.5565,-1.5135,-1.5327,-1.5792,-1.5566,-1.5576,-1.568,-1.6168,-1.6477,-1.6588,-1.6407,-1.6588,-1.6958,-1.6305,-1.6211,-1.6393,-4.8123,-5.0825,-5.3103,-5.3838,-5.5048,-5.5973,-5.6142,-5.5947,-5.5161,-5.347,-5.235,-5.1106,-4.9528,-4.7741,-4.6605,-4.6583,-4.5776,-4.5361,-4.5509,-4.5584,-4.5255,-4.4476,-4.3461,-4.2508,-4.1666,-4.1273,-4.0605,-3.9689,-4.0176,-3.9946,-3.9073,-3.8892,-3.8792,-3.8792,-3.8792,-3.8884,-3.9044,-3.8931,-3.929,-3.9819,-3.8647,-3.8867,-3.974,-3.8726,-3.8546,-3.8974,-3.9634,-3.9708,-3.9536,-3.9588,-3.8897,-3.7796,-3.6937,-3.6492,-3.5965,-3.4728,-3.3317,-3.1983,-3.1062,-2.9973,-2.8626,-2.7105,-2.7076,-2.7149,-2.5797,-2.5359,-2.4699,-2.2731,-2.2426,-2.218,-2.0696,-2.0325,-2.0098,-1.9656,-1.8909,-1.8192,-1.7635,-1.5612,-1.3883,-1.2994,-1.194,-1.1065,-1.0397,-1.0689,-1.1296,-1.2214,-1.2611,-1.3212,-1.416,-1.4739,-1.5189,-1.5423,-1.4959,-1.5142,-1.6143,-1.5658,-1.5239,-1.4686,-1.4151,-1.4134,-1.4629,-1.428,-1.4504,-1.5024,-1.4481,-1.4435,-1.4887,-1.5385,-1.6002,-1.6588,-1.6588,-1.6588,-1.6683,-1.6784,-1.6218,-1.5458,-4.6947,-4.9045,-5.113,-5.3232,-5.4124,-5.4507,-5.4385,-5.3661,-5.2686,-5.1473,-5.061,-4.9832,-4.9159,-4.7741,-4.6704,-4.639,-4.5717,-4.54,-4.5648,-4.5684,-4.5619,-4.5481,-4.4465,-4.377,-4.3522,-4.1271,-3.9928,-3.9551,-3.9544,-3.9351,-3.895,-3.8792,-3.8719,-3.8719,-3.8719,-3.8683,-3.8628,-3.8701,-3.8606,-3.8355,-3.814,-3.8366,-3.8768,-3.8139,-3.8579,-3.947,-3.9041,-3.9159,-3.9392,-3.8711,-3.7839,-3.6753,-3.5462,-3.492,-3.4427,-3.2539,-3.1638,-3.0995,-2.9797,-2.8825,-2.7702,-2.6177,-2.5663,-2.5393,-2.474,-2.4059,-2.3178,-2.1993,-2.1709,-2.15,-2.0813,-2.0566,-2.0377,-2.042,-1.9258,-1.8033,-1.6997,-1.5388,-1.3557,-1.1912,-1.1145,-1.0433,-0.9523,-0.9824,-1.0546,-1.1688,-1.1824,-1.2639,-1.4369,-1.4445,-1.4493,-1.4832,-1.5334,-1.5428,-1.4933,-1.5098,-1.5161,-1.5257,-1.4931,-1.4787,-1.4739,-1.3296,-1.3486,-1.4855,-1.3981,-1.4323,-1.5673,-1.6155,-1.6567,-1.6885,-1.6683,-1.6683,-1.6885,-1.6305,-1.6393,-1.6958,-4.5981,-4.8456,-5.0664,-5.1888,-5.3336,-5.4177,-5.3854,-5.3335,-5.2624,-5.1638,-5.038,-4.9461,-4.9221,-4.7395,-4.6109,-4.5931,-4.559,-4.5475,-4.5648,-4.5599,-4.5632,-4.58,-4.4771,-4.4208,-4.4245,-4.2219,-4.1048,-4.0785,-3.9769,-3.9342,-3.9505,-3.8866,-3.8578,-3.8609,-3.8578,-3.8528,-3.8446,-3.8401,-3.8451,-3.8516,-3.7955,-3.8297,-3.8903,-3.7861,-3.8116,-3.8907,-3.8098,-3.7604,-3.7253,-3.6445,-3.557,-3.4685,-3.3593,-3.3207,-3.2901,-3.1312,-3.052,-2.9764,-2.8248,-2.7317,-2.6393,-2.4518,-2.4161,-2.4043,-2.3242,-2.2934,-2.2419,-2.124,-2.107,-2.1094,-2.0727,-2.038,-2.0144,-2.0123,-1.9104,-1.7936,-1.7082,-1.5033,-1.3126,-1.207,-1.1081,-1.033,-1.0091,-0.9564,-0.9919,-1.1682,-1.1511,-1.2149,-1.4078,-1.4261,-1.4476,-1.4622,-1.5035,-1.5125,-1.4804,-1.4808,-1.4676,-1.4471,-1.4651,-1.4607,-1.4366,-1.3239,-1.3287,-1.3981,-1.3568,-1.4039,-1.4996,-1.5667,-1.6061,-1.64,-1.6305,-1.6393,-1.6588,-1.6305,-1.677,-1.7434,-4.54,-4.8192,-5.0584,-5.0822,-5.2556,-5.3877,-5.3625,-5.3406,-5.2981,-5.22,-5.0579,-4.9427,-4.9336,-4.7089,-4.5534,-4.5438,-4.5457,-4.5475,-4.558,-4.5456,-4.5493,-4.5723,-4.4836,-4.4401,-4.4509,-4.3427,-4.2664,-4.2227,-4.0435,-3.9891,-4.0396,-3.9255,-3.8751,-3.8798,-3.8718,-3.858,-3.8401,-3.8164,-3.8397,-3.8802,-3.7853,-3.8116,-3.9003,-3.7641,-3.7483,-3.7922,-3.7136,-3.6029,-3.4892,-3.412,-3.3422,-3.2622,-3.1856,-3.1654,-3.1563,-3.0559,-2.9664,-2.8662,-2.685,-2.6008,-2.5072,-2.2905,-2.2852,-2.2934,-2.1839,-2.197,-2.1961,-2.0769,-2.0695,-2.0815,-2.055,-2.0197,-1.9771,-1.9315,-1.8511,-1.7627,-1.6911,-1.4596,-1.2822,-1.2432,-1.1118,-1.037,-1.0655,-0.9525,-0.9754,-1.1828,-1.1655,-1.2229,-1.3846,-1.4336,-1.4595,-1.4636,-1.4538,-1.465,-1.4741,-1.4634,-1.4351,-1.3692,-1.4038,-1.4044,-1.3634,-1.3535,-1.3243,-1.3034,-1.3333,-1.3636,-1.4022,-1.4885,-1.5458,-1.573,-1.5825,-1.5913,-1.6096,-1.6581,-1.7153,-1.7628,-4.5776,-4.7524,-4.9452,-5.1536,-5.182,-5.1973,-5.2655,-5.203,-5.1336,-5.0976,-5.0046,-4.9315,-4.9077,-4.7382,-4.596,-4.5216,-4.5197,-4.5321,-4.5509,-4.5438,-4.5419,-4.5453,-4.5149,-4.4985,-4.5001,-4.4068,-4.3133,-4.23,-4.153,-4.1245,-4.1304,-4.05,-4.0077,-3.9986,-3.995,-3.9406,-3.8465,-3.8447,-3.7972,-3.7211,-3.7172,-3.7154,-3.7191,-3.725,-3.7077,-3.6798,-3.6601,-3.5657,-3.4347,-3.3779,-3.2935,-3.2083,-3.1268,-3.0838,-3.0433,-2.977,-2.8942,-2.7993,-2.6736,-2.5712,-2.4496,-2.2492,-2.2416,-2.2424,-2.111,-2.0989,-2.1225,-2.1494,-2.1009,-2.0626,-2.0563,-2.0516,-1.9955,-1.8544,-1.7891,-1.7013,-1.5188,-1.3986,-1.2763,-1.1494,-1.0241,-0.9457,-0.9165,-0.9934,-1.0741,-1.162,-1.2702,-1.3732,-1.478,-1.465,-1.4645,-1.4564,-1.4391,-1.4173,-1.401,-1.4484,-1.4785,-1.4905,-1.4443,-1.3722,-1.2655,-1.2997,-1.3083,-1.2905,-1.3266,-1.3823,-1.4298,-1.5261,-1.5635,-1.5534,-1.6001,-1.5906,-1.5622,-1.6763,-1.752,-1.7994,-4.6405,-4.7751,-4.908,-5.0314,-5.104,-5.1493,-5.1776,-5.1465,-5.1147,-5.0945,-5.0098,-4.9556,-4.9644,-4.8117,-4.6546,-4.5273,-4.5301,-4.538,-4.5438,-4.5361,-4.5341,-4.5456,-4.5182,-4.5096,-4.5203,-4.4772,-4.4189,-4.3465,-4.2052,-4.1459,-4.1595,-4.0528,-3.9938,-3.9768,-3.9585,-3.927,-3.8778,-3.8422,-3.8218,-3.8163,-3.7689,-3.7502,-3.7538,-3.7422,-3.694,-3.6295,-3.546,-3.4437,-3.3234,-3.2317,-3.15,-3.0726,-2.9972,-2.9599,-2.9431,-2.901,-2.8251,-2.731,-2.5909,-2.4722,-2.3424,-2.188,-2.1464,-2.1491,-2.1189,-2.106,-2.1086,-2.1296,-2.0694,-2.0231,-2.0326,-1.986,-1.9107,-1.7936,-1.7634,-1.7002,-1.5122,-1.4062,-1.292,-1.1266,-1.05,-1.0288,-1.0544,-1.0967,-1.1567,-1.2644,-1.2601,-1.3234,-1.4567,-1.3869,-1.3567,-1.3671,-1.3899,-1.4032,-1.4243,-1.4509,-1.4937,-1.5527,-1.5153,-1.41,-1.2549,-1.3232,-1.3136,-1.2549,-1.3823,-1.4502,-1.4783,-1.5913,-1.619,-1.5906,-1.6567,-1.648,-1.6103,-1.6669,-1.7239,-1.7613]},{"header":{"parameterUnit":"m.s-1","parameterCategory":1,"la1":30.6,"la2":28.766,"lo1":-90.7593,"lo2":-88.6598,"dx":0.0162,"dy":0.0183,"nx":116,"ny":114,"refTime":"2023-01-07T06:00:00:Z","depth":0,"parameterNumber":3,"parameterNumberName":"V-component_of_WINDS"},"data":[0.0,0.0,0.0,0.0,0.0,0.0,0.0,0.0,0.0,0.0,0.0,0.0,0.0,0.0,0.0,0.0,0.0,0.0,0.0,0.0,0.0,0.0,0.0,0.0,0.0,0.0,0.0,0.0,0.0,0.0,0.0,0.0,0.0,0.0,0.0,0.0,0.0,0.0,0.0,0.0,0.0,0.0,0.0,0.0,0.0,0.0,0.0,0.0,0.0,0.0,0.0,0.0,0.0,0.0,0.0,0.0,0.0,0.0,0.0,0.0,0.0,0.0,0.0,0.0,0.0,0.0,0.0,0.0,0.0,0.0,0.0,0.0,0.0,0.0,0.0,0.0,0.0,0.0,0.0,0.0,0.0,0.0,0.0,0.0,0.0,0.0,0.0,0.0,0.0,0.0,0.0,0.0,0.0,0.0,0.0,0.0,0.0,0.0,0.0,0.0,0.0,0.0,0.0,0.0,0.0,0.0,0.0,0.0,0.0,0.0,0.0,0.0,0.0,0.0,0.0,0.0,0.0,0.0,0.0,0.0,0.0,0.0,0.0,0.0,0.0,0.0,0.0,0.0,0.0,0.0,0.0,0.0,0.0,0.0,0.0,0.0,0.0,0.0,0.0,0.0,0.0,0.0,0.0,0.0,0.0,0.0,0.0,0.0,0.0,0.0,0.0,0.0,0.0,0.0,0.0,0.0,0.0,0.0,0.0,0.0,0.0,0.0,0.0,0.0,0.0,0.0,0.0,0.0,0.0,0.0,0.0,0.0,0.0,0.0,0.0,0.0,0.0,0.0,0.0,0.0,0.0,0.0,0.0,0.0,0.0,0.0,0.0,0.0,0.0,0.0,0.0,0.0,0.0,0.0,0.0,0.0,0.0,0.0,0.0,0.0,0.0,0.0,0.0,0.0,0.0,0.0,0.0,0.0,0.0,0.0,0.0,0.0,0.0,0.0,0.0,0.0,0.0,0.0,0.0,0.0,0.0,0.0,0.0,0.0,0.0,0.0,0.0,0.0,0.0,0.0,0.0,0.0,0.0,0.0,0.0,0.0,0.0,0.0,0.0,0.0,0.0,0.0,0.0,0.0,0.0,0.0,0.0,0.0,0.0,0.0,0.0,0.0,0.0,0.0,0.0,0.0,0.0,0.0,0.0,0.0,0.0,0.0,0.0,0.0,0.0,0.0,0.0,0.0,0.0,0.0,0.0,0.0,0.0,0.0,0.0,0.0,0.0,0.0,0.0,0.0,0.0,0.0,0.0,0.0,0.0,0.0,0.0,0.0,0.0,0.0,0.0,0.0,0.0,0.0,0.0,0.0,0.0,0.0,0.0,0.0,0.0,0.0,0.0,0.0,0.0,0.0,0.0,0.0,0.0,0.0,0.0,0.0,0.0,0.0,0.0,0.0,0.0,0.0,0.0,0.0,0.0,0.0,0.0,0.0,0.0,0.0,0.0,0.0,0.0,0.0,0.0,0.0,0.0,0.0,0.0,0.0,0.0,0.0,0.0,0.0,0.0,0.0,0.0,0.0,0.0,0.0,0.0,0.0,0.0,0.0,0.0,0.0,0.0,0.0,0.0,0.0,0.0,0.0,0.0,0.0,0.0,0.0,0.0,0.0,0.0,0.0,0.0,0.0,0.0,0.0,0.0,0.0,0.0,0.0,0.0,0.0,0.0,0.0,0.0,0.0,0.0,0.0,0.0,0.0,0.0,0.0,0.0,0.0,0.0,0.0,0.0,0.0,0.0,0.0,0.0,0.0,0.0,0.0,0.0,0.0,0.0,0.0,0.0,0.0,0.0,0.0,0.0,0.0,0.0,0.0,0.0,0.0,0.0,0.0,0.0,0.0,0.0,0.0,0.0,0.0,0.0,0.0,0.0,0.0,0.0,0.0,0.0,0.0,0.0,0.0,0.0,0.0,0.0,0.0,0.0,0.0,0.0,0.0,0.0,0.0,0.0,0.0,0.0,0.0,0.0,0.0,0.0,0.0,0.0,0.0,0.0,0.0,0.0,0.0,0.0,0.0,0.0,0.0,0.0,0.0,0.0,0.0,0.0,0.0,0.0,0.0,0.0,0.0,0.0,0.0,0.0,0.0,0.0,0.0,0.0,0.0,0.0,0.0,0.0,0.0,0.0,0.0,0.0,0.0,0.0,0.0,0.0,0.0,0.0,0.0,0.0,0.0,0.0,0.0,0.0,0.0,0.0,0.0,0.0,0.0,0.0,0.0,0.0,0.0,0.0,0.0,0.0,0.0,0.0,0.0,0.0,0.0,0.0,0.0,0.0,0.0,0.0,0.0,0.0,0.0,0.0,0.0,0.0,0.0,0.0,0.0,0.0,0.0,0.0,0.0,0.0,0.0,0.0,0.0,0.0,0.0,0.0,0.0,0.0,0.0,0.0,0.0,0.0,0.0,0.0,0.0,0.0,0.0,0.0,0.0,0.0,0.0,0.0,0.0,0.0,0.0,0.0,0.0,0.0,0.0,0.0,0.0,0.0,0.0,0.0,0.0,0.0,0.0,0.0,0.0,0.0,0.0,0.0,0.0,0.0,0.0,0.0,0.0,0.0,0.0,0.0,0.0,0.0,0.0,0.0,0.0,0.0,0.0,0.0,0.0,0.0,0.0,0.0,0.0,0.0,0.0,0.0,0.0,0.0,0.0,0.0,0.0,0.0,0.0,0.0,0.0,0.0,0.0,0.0,0.0,0.0,0.0,0.0,0.0,0.0,0.0,0.0,0.0,0.0,0.0,0.0,0.0,0.0,0.0,0.0,0.0,0.0,0.0,0.0,0.0,0.0,0.0,0.0,0.0,0.0,0.0,0.0,0.0,0.0,0.0,0.0,0.0,0.0,0.0,0.0,0.0,0.0,0.0,0.0,0.0,0.0,0.0,0.0,0.0,0.0,0.0,0.0,0.0,0.0,0.0,0.0,0.0,0.0,0.0,0.0,0.0,0.0,0.0,0.0,0.0,0.0,0.0,0.0,0.0,0.0,0.0,0.0,0.0,0.0,0.0,0.0,0.0,0.0,0.0,0.0,0.0,0.0,0.0,0.0,0.0,0.0,0.0,0.0,0.0,0.0,0.0,0.0,0.0,0.0,0.0,0.0,0.0,0.0,0.0,0.0,0.0,0.0,0.0,0.0,0.0,0.0,0.0,0.0,0.0,0.0,0.0,0.0,0.0,0.0,0.0,0.0,0.0,0.0,0.0,0.0,0.0,0.0,0.0,0.0,0.0,0.0,0.0,0.0,0.0,0.0,0.0,0.0,0.0,0.0,0.0,0.0,0.0,0.0,0.0,0.0,0.0,0.0,0.0,0.0,0.0,0.0,0.0,0.0,0.0,0.0,0.0,0.0,0.0,0.0,0.0,0.0,0.0,0.0,0.0,0.0,0.0,0.0,0.0,0.0,0.0,0.0,0.0,0.0,0.0,0.0,0.0,0.0,0.0,0.0,0.0,0.0,0.0,0.0,0.0,0.0,0.0,0.0,0.0,0.0,0.0,0.0,0.0,0.0,0.0,0.0,0.0,0.0,0.0,0.0,0.0,0.0,0.0,0.0,0.0,0.0,0.0,0.0,0.0,0.0,0.0,0.0,0.0,0.0,0.0,0.0,0.0,0.0,0.0,0.0,0.0,0.0,0.0,0.0,0.0,0.0,0.0,0.0,0.0,0.0,0.0,0.0,0.0,0.0,0.0,0.0,0.0,0.0,0.0,0.0,0.0,0.0,0.0,0.0,0.0,0.0,0.0,0.0,0.0,0.0,0.0,0.0,0.0,0.0,0.0,0.0,0.0,0.0,0.0,0.0,0.0,0.0,0.0,0.0,0.0,0.0,0.0,0.0,0.0,0.0,0.0,0.0,0.0,0.0,0.0,0.0,0.0,0.0,0.0,0.0,0.0,0.0,0.0,0.0,0.0,0.0,0.0,0.0,0.0,0.0,0.0,0.0,0.0,0.0,0.0,0.0,0.0,0.0,0.0,0.0,0.0,0.0,0.0,0.0,0.0,0.0,0.0,0.0,0.0,0.0,0.0,0.0,0.0,0.0,0.0,0.0,0.0,0.0,0.0,0.0,0.0,0.0,0.0,0.0,0.0,0.0,0.0,0.0,0.0,0.0,0.0,0.0,0.0,0.0,0.0,0.0,0.0,0.0,0.0,0.0,0.0,0.0,0.0,0.0,0.0,0.0,0.0,0.0,0.0,0.0,0.0,0.0,0.0,0.0,0.0,0.0,0.0,0.0,0.0,0.0,0.0,0.0,0.0,0.0,0.0,0.0,0.0,0.0,0.0,0.0,0.0,0.0,0.0,0.0,0.0,0.0,0.0,0.0,0.0,0.0,0.0,0.0,0.0,0.0,0.0,0.0,0.0,0.0,0.0,0.0,0.0,0.0,0.0,0.0,0.0,0.0,0.0,0.0,0.0,0.0,0.0,0.0,0.0,0.0,0.0,0.0,0.0,0.0,0.0,0.0,0.0,0.0,0.0,0.0,0.0,0.0,0.0,0.0,0.0,0.0,0.0,0.0,0.0,0.0,0.0,0.0,0.0,0.0,0.0,0.0,0.0,0.0,0.0,0.0,0.0,0.0,0.0,0.0,0.0,0.0,0.0,0.0,0.0,0.0,0.0,0.0,0.0,0.0,0.0,0.0,0.0,0.0,0.0,0.0,0.0,0.0,0.0,0.0,0.0,0.0,0.0,0.0,0.0,0.0,0.0,0.0,0.0,0.0,0.0,0.0,0.0,0.0,0.0,0.0,0.0,0.0,0.0,0.0,0.0,0.0,0.0,0.0,0.0,0.0,0.0,0.0,0.0,0.0,0.0,0.0,0.0,0.0,0.0,0.0,0.0,0.0,0.0,0.0,0.0,0.0,0.0,0.0,0.0,0.0,0.0,0.0,0.0,0.0,0.0,0.0,0.0,0.0,0.0,0.0,0.0,0.0,0.0,0.0,0.0,0.0,0.0,0.0,0.0,0.0,0.0,0.0,0.0,0.0,0.0,0.0,0.0,0.0,0.0,0.0,0.0,0.0,0.0,0.0,0.0,0.0,0.0,0.0,0.0,0.0,0.0,0.0,0.0,0.0,0.0,0.0,0.0,0.0,0.0,0.0,0.0,0.0,0.0,0.0,0.0,0.0,0.0,0.0,0.0,0.0,0.0,0.0,0.0,0.0,0.0,0.0,0.0,0.0,0.0,0.0,0.0,0.0,0.0,0.0,0.0,0.0,0.0,0.0,0.0,0.0,0.0,0.0,0.0,0.0,0.0,0.0,0.0,0.0,0.0,0.0,0.0,0.0,0.0,0.0,0.0,0.0,0.0,0.0,0.0,0.0,0.0,0.0,0.0,0.0,0.0,0.0,0.0,0.0,0.0,0.0,0.0,0.0,0.0,0.0,0.0,0.0,0.0,0.0,0.0,0.0,0.0,0.0,0.0,0.0,0.0,0.0,0.0,0.0,0.0,0.0,0.0,0.0,0.0,0.0,0.0,0.0,0.0,0.0,0.0,0.0,0.0,0.0,0.0,0.0,0.0,0.0,0.0,0.0,0.0,0.0,0.0,0.0,0.0,0.0,0.0,0.0,0.0,0.0,0.0,0.0,0.0,0.0,0.0,0.0,0.0,0.0,0.0,0.0,0.0,0.0,0.0,0.0,0.0,0.0,0.0,0.0,0.0,0.0,0.0,0.0,0.0,0.0,0.0,0.0,0.0,0.0,0.0,0.0,0.0,0.0,0.0,0.0,0.0,0.0,0.0,0.0,0.0,0.0,0.0,0.0,0.0,0.0,0.0,0.0,0.0,0.0,0.0,0.0,0.0,0.0,0.0,0.0,0.0,0.0,0.0,0.0,0.0,0.0,0.0,0.0,0.0,0.0,0.0,0.0,0.0,0.0,0.0,0.0,0.0,0.0,0.0,0.0,0.0,0.0,0.0,0.0,0.0,0.0,0.0,0.0,0.0,0.0,0.0,0.0,0.0,0.0,0.0,0.0,0.0,0.0,0.0,0.0,0.0,0.0,0.0,0.0,0.0,0.0,0.0,0.0,0.0,0.0,0.0,0.0,0.0,0.0,0.0,0.0,0.0,0.0,0.0,0.0,0.0,0.0,0.0,0.0,0.0,-0.9227,0.0,0.0,0.0,0.0,0.0,0.0,0.0,0.0,0.0,0.0,0.0,0.0,0.0,0.0,0.0,0.0,0.0,0.0,0.0,0.0,0.0,0.0,0.0,0.0,-0.8198,-0.8067,-0.7997,-0.7597,0.0,0.0,0.0,0.0,0.0,0.0,0.0,0.0,0.0,-0.3309,-0.2803,-0.1815,-0.103,-0.0462,-0.0399,-0.1231,-0.2798,0.0,0.0,0.0,0.0,0.0,0.0,0.0,0.0,0.0,0.0,0.0,0.0,0.0,0.0,0.0,0.0,0.0,0.0,0.0,0.0,0.0,0.0,0.0,0.0,0.0,0.0,0.0,0.0,0.0,0.0,0.0,0.0,0.0,0.0,0.0,0.0,0.0,0.0,0.0,0.0,0.0,0.0,0.0,0.0,0.0,0.0,0.0,0.0,0.0,0.0,0.0,0.0,0.0,0.0,0.0,0.0,0.0,0.0,0.0,0.0,0.0,0.0,0.0,0.0,0.0,0.0,0.0,0.0,0.0,0.0,0.0,-1.0349,0.0,0.0,0.0,0.0,0.0,0.0,0.0,0.0,0.0,0.0,0.0,0.0,0.0,0.0,0.0,0.0,0.0,0.0,0.0,0.0,0.0,-0.7849,-0.8104,-0.796,-0.7866,-0.7958,-0.7473,-0.6968,-0.6485,-0.6015,0.0,0.0,0.0,0.0,0.0,-0.3418,-0.2823,-0.2202,-0.0744,0.0496,0.1464,0.2226,0.1362,-0.0938,-0.2469,0.0,0.0,0.0,0.0,0.0,0.0,0.0,0.0,0.0,0.0,0.0,0.0,0.0,0.0,0.0,0.0,0.0,0.0,0.0,0.0,0.0,0.0,0.0,0.0,0.0,0.0,0.0,0.0,0.0,0.0,0.0,0.0,0.0,0.0,0.0,0.0,0.0,0.0,0.0,0.0,0.0,0.0,0.0,0.0,0.0,0.0,0.0,0.0,0.0,0.0,0.0,0.0,0.0,0.0,0.0,0.0,0.0,0.0,0.0,0.0,0.0,0.0,0.0,-0.8356,-0.8769,-0.9243,-1.0058,-1.0578,-1.1069,-1.2128,-1.1922,-1.0857,-1.1076,0.0,0.0,0.0,0.0,0.0,0.0,0.0,0.0,0.0,0.0,0.0,0.0,0.0,0.0,0.0,0.0,0.0,0.0,0.0,-0.7404,-0.8179,-0.7848,-0.7531,-0.7507,-0.7212,-0.6578,-0.5552,-0.5311,0.0,0.0,0.0,0.0,-0.3765,-0.2837,-0.1902,-0.103,0.1253,0.2688,0.3382,0.4938,0.5227,0.4243,0.0098,-0.2273,-0.3185,0.0,0.0,0.0,0.0,0.0,0.0,0.0,0.0,0.0,0.0,0.0,0.0,0.0,0.0,0.0,0.0,0.0,0.0,0.0,0.0,0.0,0.0,0.0,0.0,0.0,0.0,0.0,0.0,0.0,0.0,0.0,0.0,0.0,0.0,0.0,0.0,0.0,0.0,0.0,0.0,0.0,-0.3668,-0.4621,0.0,0.0,0.0,0.0,0.0,0.0,0.0,0.0,0.0,0.0,0.0,0.0,0.0,-0.7185,-0.7144,-0.7195,-0.7377,-0.7846,-0.8493,-0.9385,-1.0381,-1.1112,-1.1908,-1.2773,-1.3872,0.0,-1.1825,-1.1016,0.0,0.0,0.0,0.0,0.0,0.0,0.0,0.0,0.0,0.0,0.0,0.0,0.0,0.0,0.0,0.0,0.0,0.0,0.0,0.0,0.0,-0.6839,-0.643,-0.6277,-0.5992,-0.5581,-0.506,-0.4703,0.0,0.0,0.0,-0.3716,-0.3486,-0.2427,-0.0652,0.1846,0.3981,0.5206,0.551,0.6618,0.6292,0.4844,0.1934,0.0174,-0.0714,-0.2145,0.0,0.0,0.0,0.0,0.0,0.0,0.0,0.0,0.0,0.0,0.0,0.0,0.0,0.0,0.0,0.0,0.0,0.0,0.0,0.0,0.0,0.0,0.0,0.0,0.0,0.0,0.0,0.0,0.0,0.0,0.0,0.0,0.0,0.0,0.0,0.0,0.0,0.0,0.0,-0.287,-0.3477,-0.4338,-0.5142,-0.5755,0.0,0.0,0.0,0.0,0.0,0.0,0.0,0.0,0.0,-0.6827,-0.6507,-0.6467,-0.6616,-0.6976,-0.7234,-0.739,-0.8288,-0.9078,-0.9841,-1.0716,-1.1408,-1.2095,-1.362,-1.4232,-1.407,-1.3563,-1.3201,-1.301,0.0,0.0,0.0,0.0,-1.4855,-1.5036,0.0,0.0,0.0,0.0,0.0,0.0,0.0,0.0,0.0,0.0,0.0,0.0,-0.6371,-0.5805,-0.5336,-0.5097,-0.4914,-0.4792,-0.4765,-0.4445,-0.425,-0.434,-0.3864,-0.3465,-0.3157,-0.142,0.1105,0.4378,0.6573,0.7763,0.8074,0.9682,0.9195,0.6991,0.5923,0.3806,0.0775,-0.1255,-0.2792,-0.3787,0.0,0.0,0.0,0.0,0.0,0.0,0.0,0.0,0.0,0.0,0.0,0.0,0.0,0.0,0.0,0.0,0.0,0.0,0.0,0.0,0.0,0.0,0.0,0.0,0.0,0.0,0.0,0.0,0.0,0.0,0.0,0.0,0.0,0.0,0.0,0.0,0.0,-0.2724,-0.3259,-0.4358,-0.4879,-0.5336,0.0,0.0,0.0,0.0,0.0,0.0,-0.5397,-0.5309,-0.5241,-0.5138,-0.5277,-0.5473,-0.5717,-0.6273,-0.6605,-0.6694,-0.7661,-0.8364,-0.8882,-0.9763,-1.0544,-1.1316,-1.3021,-1.4601,-1.5927,-1.5787,-1.5862,-1.6136,-1.6523,-1.7357,-1.8347,-1.916,-1.9547,-1.9693,0.0,0.0,0.0,0.0,0.0,0.0,0.0,0.0,0.0,0.0,0.0,-0.6498,-0.5634,-0.5059,-0.4614,-0.4293,-0.4375,-0.4521,-0.4701,-0.4638,-0.4558,-0.4495,-0.3735,-0.3135,-0.2741,0.0705,0.3562,0.5723,0.8487,1.0271,1.1263,1.5716,1.6288,1.3599,1.3823,0.8706,-0.0206,-0.1205,-0.2165,-0.3035,-0.2879,0.0,0.0,0.0,0.0,0.0,0.0,0.0,0.0,0.0,0.0,0.0,0.0,0.0,0.0,0.0,0.0,0.0,0.0,0.0,0.0,0.0,0.0,0.0,0.0,0.0,0.0,0.0,0.0,0.0,0.0,0.0,0.0,0.0,0.0,0.0,0.0,0.0,0.0,-0.4794,-0.4266,0.0,0.0,0.0,0.0,-0.3468,-0.4024,-0.4196,-0.3659,-0.4097,-0.4269,-0.4021,-0.3783,-0.3827,-0.4007,-0.4732,-0.5275,-0.5536,-0.6605,-0.7401,-0.7921,-0.8623,-0.9753,-1.1133,-1.2498,-1.4427,-1.6603,-1.6492,-1.7162,-1.8181,-1.7866,-1.7947,-1.8389,-1.9619,-1.9885,-1.9601,0.0,0.0,0.0,-1.1124,-1.0453,-0.9872,-0.9114,-0.855,-0.7921,-0.7085,-0.634,-0.5508,-0.4465,-0.3826,-0.3271,-0.2824,-0.3224,-0.3559,-0.3599,-0.3674,-0.371,-0.3779,-0.3153,-0.1686,0.065,0.3237,0.6215,0.9667,1.1682,1.3443,1.5084,1.6722,1.7196,1.6593,1.4719,1.14,0.7035,0.2592,-0.0334,-0.1999,-0.2254,-0.2519,0.0,0.0,0.0,0.0,0.0,0.0,0.0,0.0,0.0,0.0,0.0,0.0,0.0,0.0,0.0,0.0,0.0,0.0,0.0,0.0,0.0,0.0,0.0,0.0,0.0,0.0,0.0,0.0,0.0,0.0,0.0,0.0,0.0,0.0,0.0,0.0,0.0,-0.2965,-0.2786,0.0,-0.3361,-0.3399,-0.3343,-0.3383,-0.3047,-0.2744,-0.2409,-0.2262,-0.2,-0.1381,-0.1767,-0.1968,-0.1878,-0.2681,-0.3395,-0.402,-0.4552,-0.5442,-0.6514,-0.7485,-0.8707,-0.9995,-1.2395,-1.4885,-1.7363,-1.9047,-2.0551,-2.1919,-2.265,-2.3784,-2.5144,-2.6085,-2.6277,-2.6063,0.0,0.0,0.0,-1.0309,-0.9919,-0.9549,-0.8776,-0.8415,-0.7931,-0.7081,-0.6109,-0.5033,-0.3833,-0.3137,-0.2596,-0.2279,-0.2895,-0.3328,-0.3536,-0.3581,-0.3559,-0.3475,-0.1884,0.036,0.3295,0.6049,0.9116,1.2591,1.443,1.6235,1.7871,1.8573,1.8923,1.8842,1.7064,1.4988,1.2623,0.761,0.3309,-0.0134,-0.0802,-0.133,-0.1755,0.0,0.0,0.0,0.0,0.0,0.0,0.0,0.0,0.0,0.0,0.0,0.0,0.0,0.0,0.0,0.0,0.0,0.0,0.0,0.0,0.0,0.0,0.0,0.0,0.0,0.0,0.0,0.0,0.0,0.0,0.0,0.0,0.0,0.0,0.0,-0.1429,-0.2078,-0.177,-0.1543,-0.1779,-0.1843,-0.1693,-0.1242,-0.0896,-0.0502,0.0,0.0087,0.0447,0.1072,0.0447,0.0179,0.0358,-0.0536,-0.1339,-0.1966,-0.2679,-0.3571,-0.4648,-0.6334,-0.7906,-0.9369,-1.2535,-1.5509,-1.8382,-2.1161,-2.3184,-2.4728,-2.6244,-2.7838,-2.944,-3.0368,-3.0374,-2.9997,0.0,0.0,-1.0421,-0.9564,-0.9191,-0.8964,-0.883,-0.8422,-0.7879,-0.7206,-0.6286,-0.5217,-0.3866,-0.3136,-0.2763,-0.2762,-0.3436,-0.4035,-0.4572,-0.4459,-0.4095,-0.3475,0.0,0.289,0.4912,0.8959,1.2137,1.4281,1.6705,1.843,1.9564,2.1643,2.1974,2.0841,2.1411,1.9542,1.5865,1.3539,0.8811,0.289,0.1514,0.0318,-0.0695,0.0,0.0,0.0,0.0,0.0,0.0,0.0,0.0,0.0,0.0,0.0,0.0,0.0,0.0,0.0,0.0,0.0,0.0,0.0,0.0,0.0,0.0,0.0,0.0,0.0,0.0,0.0,0.0,0.0,0.0,0.0,0.0,0.0,-0.194,-0.0442,-0.0078,-0.2199,-0.1105,0.0081,0.0568,0.0406,0.1085,0.3114,0.2594,0.2593,0.3659,0.3035,0.2857,0.3299,0.2856,0.2679,0.2679,0.1696,0.0982,0.0536,-0.0982,-0.1877,-0.2506,-0.5082,-0.7358,-0.9329,-1.2819,-1.6273,-1.9608,-2.2442,-2.4675,-2.6542,-2.8252,-2.9451,-3.0458,-3.1638,-3.1593,-3.0751,-1.1985,-1.1221,-1.0438,-0.961,-0.933,-0.9126,-0.8846,-0.8559,-0.8146,-0.7476,-0.6647,-0.5763,-0.4764,-0.433,-0.4099,-0.4,-0.4508,-0.4628,-0.4168,-0.4084,-0.2815,-0.0033,0.1598,0.4299,0.8421,1.1123,1.3865,1.6537,1.8152,1.9982,2.1866,2.2744,2.4075,2.574,2.3975,2.2525,2.1269,1.8288,1.5186,1.1854,0.6413,0.365,0.2533,0.0,0.0,0.0,0.0,0.0,0.0,0.0,0.0,0.0,0.0,0.0,0.0,0.0,0.0,0.0,0.0,0.0,0.0,0.0,0.0,0.0,0.0,0.0,0.0,0.0,0.0,0.0,0.0,0.0,0.0,0.0,0.0,0.1808,0.0,0.0693,0.1439,0.1356,0.2157,0.2954,0.3388,0.3736,0.4025,0.418,0.4368,0.4721,0.5333,0.5156,0.5596,0.6744,0.6122,0.6034,0.6298,0.5242,0.4269,0.3466,0.2315,0.098,-0.0535,-0.32,-0.5793,-0.8505,-1.2474,-1.617,-1.972,-2.2525,-2.5205,-2.7565,-2.8786,-2.9594,-3.019,-3.112,-3.1444,-3.131,-1.2365,-1.1638,-1.0938,-1.0504,-1.0011,-0.9578,-0.9265,-0.873,-0.8331,-0.8218,-0.7255,-0.6446,-0.6036,-0.5621,-0.5322,-0.5122,-0.5418,-0.5317,-0.4536,-0.281,-0.0861,0.1338,0.3939,0.7059,1.0689,1.3155,1.5789,1.8486,1.9594,2.1029,2.2804,2.331,2.4787,2.6972,2.5352,2.4549,2.4299,2.1932,2.0115,1.8383,1.3621,0.9852,0.6941,0.5371,0.3974,0.2915,0.3512,0.3834,0.4003,0.4235,0.0,0.0,0.0,0.0,0.0,0.0,0.0,0.0,0.0,0.0,0.0,0.0,0.0,0.0,0.0,0.0,0.0,0.0,0.0,0.0,0.0,0.0,0.0,0.0,0.3487,0.4407,0.3346,0.3399,0.3833,0.4328,0.4891,0.5424,0.5866,0.631,0.6574,0.6649,0.6919,0.7274,0.788,0.7705,0.8142,0.92,0.8582,0.8491,0.8926,0.8055,0.7085,0.5937,0.5574,0.4337,0.2308,-0.0088,-0.295,0.0,-1.0728,-1.5319,-1.9829,-2.3077,-2.6155,0.0,0.0,0.0,0.0,0.0,-3.1873,-3.2011,-1.2936,-1.2245,-1.1641,-1.1694,-1.0866,-1.0139,-0.9935,-0.9027,-0.8569,-0.919,-0.8172,-0.7438,-0.7658,-0.7117,-0.6559,-0.6244,-0.631,-0.5869,-0.479,-0.1049,0.1433,0.2108,0.6759,1.0293,1.246,1.5078,1.7582,1.9891,2.0688,2.1572,2.258,2.3307,2.4452,2.5986,2.5747,2.5681,2.5706,2.4649,2.3785,2.3038,2.1486,1.7468,1.2141,1.0008,0.8285,0.7002,0.6703,0.6538,0.6707,0.7783,0.0,0.0,0.0,0.0,0.0,0.0,0.0,0.0,0.0,0.0,0.0,0.0,0.0,0.0,0.0,0.0,0.0,0.0,0.0,0.0,0.0,0.0,0.0,0.0,0.4995,0.6836,0.75,0.7231,0.6953,0.6796,0.7169,0.7705,0.8233,0.84,0.8926,0.9899,0.9899,1.0245,1.095,0.0,0.0,0.0,0.0,1.0585,1.1101,1.0565,0.9698,0.84,0.862,0.7654,0.5577,0.3158,0.0086,-0.3521,-0.8944,-1.4613,-2.0401,-2.4141,-2.7515,-3.0346,-3.0577,-3.0939,-3.1434,-3.2173,-3.262,-3.2844,-1.2917,-1.2264,-1.174,-1.1636,-1.0878,-1.0345,-1.0491,-0.9796,-0.9371,-0.9727,-0.9767,-0.9641,-0.9424,-0.8966,-0.8522,-0.8205,-0.7524,-0.5721,-0.2562,0.0193,0.3405,0.7205,0.9472,1.2222,1.5689,1.6715,1.7901,1.9332,2.0258,2.0891,2.1274,2.1691,2.3292,2.5772,2.4951,2.5523,2.7011,2.6197,2.5861,2.5816,2.5437,2.2002,1.6807,1.4239,1.257,1.1587,1.1434,1.1696,1.2248,1.2509,1.1949,1.0974,0.9681,0.7374,0.0,0.0,0.0,0.0,0.0,0.0,0.0,0.0,0.0,0.0,0.0,0.0,0.0,0.0,0.0,0.0,0.0,0.0,0.0,0.4873,0.7697,1.0067,1.0985,1.1164,1.0641,0.9191,0.9548,1.0163,1.0854,1.1112,1.1536,1.2298,1.2298,1.2723,1.3503,1.3002,1.3178,1.4189,1.3776,1.3613,1.3866,1.34,1.288,1.2219,0.0,0.0,0.8012,0.3687,-0.0765,-0.5476,-1.186,-1.7639,-2.2713,-2.6579,-2.9815,-3.2299,-3.1933,-3.2704,-3.3951,-3.3062,-3.3309,-3.3944,-1.3324,-1.2979,-1.2759,-1.2763,-1.1955,-1.1273,-1.1205,-1.0541,-1.0176,-1.0544,-1.0939,-1.1054,-1.0614,-1.0257,-0.9671,-0.8838,-0.6708,-0.4222,-0.1424,0.2507,0.5967,0.8789,1.1518,1.4154,1.6759,1.7036,1.7993,1.9592,2.0169,2.0557,2.0693,2.1395,2.2538,2.4007,2.4603,2.5691,2.706,2.7223,2.7555,2.7969,2.7605,2.5949,2.3307,1.9851,1.7636,1.6392,1.5916,1.5748,1.5834,1.6273,1.5721,1.4635,1.3181,1.129,0.9145,0.0,0.0,0.0,0.0,0.0,0.0,0.0,0.0,0.0,0.0,0.0,0.0,0.0,0.0,0.453,0.0,0.0,0.8817,0.8882,1.1276,1.3072,1.3085,1.3445,1.3112,1.1386,1.1735,1.2425,1.3021,1.3353,1.3853,1.4427,1.4511,1.4775,1.5289,1.5274,1.5357,1.5718,1.6018,1.6018,1.5718,1.5509,1.5079,1.4433,1.3777,1.2104,0.9502,0.6244,0.1139,-0.5564,-1.1546,-1.7767,-2.403,-2.9315,-3.2391,-3.3824,-3.3691,-3.4494,-3.5568,-3.4457,-3.4718,-3.5454,-1.3986,-1.3924,-1.3873,-1.3831,-1.2972,-1.2186,-1.1902,-1.1235,-1.0909,-1.132,-1.1769,-1.188,-1.1409,-1.097,-1.0076,-0.856,-0.5295,-0.2454,-0.0275,0.4786,0.8385,0.9884,1.3339,1.5861,1.7225,1.7457,1.8457,2.0207,2.0424,2.0653,2.1022,2.0813,2.1542,2.3103,2.3972,2.5374,2.7235,2.8003,2.8764,2.9377,2.881,2.8841,2.8808,2.5219,2.2738,2.0979,1.9987,1.8889,1.7965,1.9069,1.8322,1.6784,1.6013,1.4838,1.2979,0.9319,0.943,0.0,0.0,0.0,0.0,0.0,0.0,0.0,0.0,0.0,0.7669,1.1003,1.1594,1.1304,1.0875,1.263,1.387,1.2998,1.482,1.5984,1.4874,1.5293,1.5137,1.362,1.3802,1.423,1.4643,1.5137,1.5711,1.637,1.6378,1.6542,1.696,1.718,1.7317,1.739,1.8017,1.8259,1.8031,1.7916,1.762,1.6937,1.7164,1.5153,1.1274,0.8103,0.2244,-0.5926,-1.3128,-1.9927,-2.6421,-3.1883,-3.4359,-3.475,-3.5027,-3.5691,-3.6404,-3.5759,-3.6121,-3.6838,-1.4888,-1.4708,-1.4367,-1.3681,-1.28,-1.2256,-1.2405,-1.1777,-1.1382,-1.1622,-1.1967,-1.2027,-1.1612,-1.0842,-0.9462,-0.7286,-0.4443,-0.1382,0.1982,0.6207,0.998,1.322,1.5332,1.7045,1.8489,1.9239,2.0089,2.0963,2.1134,2.1785,2.2798,1.8148,1.9598,2.5928,2.22,2.3591,2.8841,2.8591,2.8889,2.947,2.9316,2.954,2.9789,2.8803,2.7016,2.4792,2.3254,2.0641,1.8193,2.0347,1.8602,1.6002,1.8291,1.7235,1.4632,1.197,1.0221,0.8213,0.4201,0.0,0.0,0.7423,0.9411,1.1576,0.0,0.0,1.2297,1.2932,1.33,1.3116,1.197,1.4372,1.6251,1.5454,1.7327,1.8534,1.7578,1.7607,1.7309,1.6332,1.5621,1.5394,1.5891,1.646,1.7041,1.7708,1.7619,1.7934,1.8895,1.847,1.9034,2.0867,2.0477,2.0992,2.2651,2.2221,2.1907,2.1765,2.1992,1.9499,1.4494,0.6039,-0.1669,-0.9118,-2.2583,-2.9945,-3.2548,-3.3703,-3.4296,-3.4481,-3.4808,-3.5407,-3.6073,-3.6239,-3.6805,-3.7404,-1.5558,-1.4913,-1.4402,-1.4369,-1.3385,-1.2583,-1.2508,-1.2237,-1.1897,-1.1521,-1.1976,-1.2002,-1.1216,-1.0094,-0.8531,-0.6436,-0.3248,-0.0287,0.2303,0.7505,1.1473,1.3714,1.6079,1.7501,1.7797,1.8176,1.8674,1.9329,1.9828,1.9933,1.9686,2.0092,2.1185,2.283,2.4118,2.6072,2.8482,2.9545,3.029,3.0735,3.0746,3.1004,3.139,3.11,2.9727,2.7413,2.3323,2.0594,0.0,1.849,1.6963,1.5735,1.8468,1.7273,1.459,1.2756,1.1692,1.1121,1.1459,0.0,0.0,0.0,1.6056,1.7488,1.8701,1.8702,1.8881,2.0446,2.1795,2.1968,1.9689,2.1355,2.2466,0.0,2.1107,2.1094,1.9519,1.9164,1.8399,1.6659,1.6846,1.7188,1.7513,1.7908,1.839,1.9213,1.9353,1.965,2.0294,2.1064,2.1487,2.1702,2.2782,2.319,2.2671,2.3365,2.358,2.3453,2.372,1.9608,1.1668,0.5945,-0.4214,-1.7774,-2.5324,-3.0082,-3.2484,-3.2257,-3.2608,-3.3296,-3.3287,-3.3746,-3.4513,-3.5346,-3.62,-3.6847,-1.6154,-1.5325,-1.4697,-1.4919,-1.3877,-1.2899,-1.2664,-1.2497,-1.2128,-1.14,-1.1745,-1.157,-1.0283,-0.9046,-0.7617,-0.5899,-0.2801,0.0132,0.2685,0.7973,1.185,1.3832,1.6296,1.7379,1.6722,1.7155,1.7567,1.7868,1.9012,1.9502,1.938,2.1877,2.2637,2.1982,2.552,2.7319,2.7837,3.0124,3.1368,3.1841,3.1955,3.2253,3.2655,3.2537,3.0852,2.7936,2.3273,2.0265,1.8204,1.5999,1.4365,1.3643,1.6337,1.5631,1.3451,1.1725,1.0568,1.0532,1.4132,0.0,0.0,1.9684,2.1981,2.3422,2.4468,2.4723,2.5203,2.6797,2.8641,2.9167,2.6664,2.748,2.767,2.5325,2.4436,2.3329,2.1339,2.0641,1.9672,1.7937,1.8762,1.9344,1.9353,1.9116,1.9274,2.0157,2.0508,2.0961,2.1517,2.2948,2.3639,2.3248,2.5021,2.553,2.461,2.5675,2.6184,2.6075,2.5335,2.0555,1.2085,0.4517,-0.8347,-2.4741,-2.6656,-2.8672,-3.0581,-3.0486,-3.0826,-3.1426,-3.1526,-3.1683,-3.1996,-3.2959,-3.4472,-3.5991,-1.6761,-1.6204,-1.5572,-1.4994,-1.3943,-1.3142,-1.3008,-1.2473,-1.1927,-1.1376,-1.1262,-1.0518,-0.8682,-0.7795,-0.6886,-0.5692,-0.3616,-0.0543,0.3681,0.7136,1.0514,1.4031,1.6016,1.6574,1.5591,1.713,1.7759,1.7307,1.9574,2.2101,2.4885,2.2021,2.2731,2.6329,2.5141,2.5553,2.7262,2.9911,3.1585,3.2512,3.2702,3.3007,3.3337,3.299,2.9978,2.5689,2.3955,2.0035,1.5318,1.3468,1.0868,0.8835,1.1383,1.2,1.1187,0.8581,0.521,0.3309,0.0,0.0,1.523,2.1215,2.5661,2.8852,3.0106,3.0526,3.0486,2.9829,3.1076,3.1854,3.0588,3.0616,3.029,2.8343,2.663,2.4939,2.3361,2.2145,2.1415,2.1385,2.1811,2.1897,0.0,1.9863,1.9301,2.0119,2.072,2.1562,2.2574,2.35,2.4876,2.676,2.7055,2.8358,3.0786,3.0692,3.0764,3.1056,2.7789,2.3965,1.9142,0.0421,-1.5185,-2.7493,-2.7842,-2.7805,-2.7632,-2.9132,-2.9339,-2.8822,-2.9788,-2.9395,-2.8295,-2.8739,-3.1373,-3.5025,-1.6974,-1.6185,-1.5587,-1.5789,-1.4369,-1.3172,-1.3147,-1.2223,-1.1423,-1.1015,-1.0905,0.0,0.0,0.0,0.0,0.0,-0.3452,-0.1078,0.0275,0.5039,0.8465,0.9952,1.2614,1.3711,1.3126,1.492,1.5749,1.5457,1.5346,1.6258,1.8155,1.696,1.7323,1.9089,2.2176,2.3947,2.4919,2.8959,3.1221,3.2225,3.3326,3.4117,3.4106,2.9646,2.6729,2.4194,0.0,1.3842,1.2031,0.9776,0.8283,0.7851,1.0299,0.9627,0.7493,0.5212,0.5061,0.6626,0.0,0.0,1.9621,2.574,2.8744,3.0553,3.1797,3.2563,3.2638,3.1236,2.9948,2.8383,2.6258,2.686,2.7003,2.5013,2.7398,2.8899,2.7098,2.614,2.4964,2.2972,2.3048,0.0,0.0,0.0,0.0,2.1242,2.1507,2.2179,2.3401,2.4932,2.6211,2.7229,2.8809,2.9856,3.0245,3.1356,3.1018,2.9136,2.0164,1.4283,1.0861,-0.2973,-1.3131,-1.9865,-2.0192,-2.1284,-2.2842,-2.3139,-2.363,-2.4204,-2.4843,-2.4819,-2.4638,-2.613,-2.731,-2.8506,0.0,-1.6501,-1.5952,-1.6283,-1.4947,0.0,0.0,0.0,0.0,0.0,0.0,0.0,0.0,0.0,0.0,0.0,0.0,-0.2335,-0.1093,0.2699,0.5458,0.6769,0.9184,1.0165,0.9337,1.0763,1.1254,1.0892,1.1406,1.2411,1.3785,1.4517,1.48,1.4915,1.9028,2.0806,2.098,2.5262,2.7353,2.7944,2.8935,2.9234,2.8553,2.4084,2.1412,0.0,1.251,0.9452,0.8273,0.6709,0.6082,0.6205,0.7924,0.7022,0.524,0.4551,0.588,0.0,0.0,1.8272,2.2537,2.8412,3.0939,3.2174,3.3192,3.4002,3.4263,3.3106,3.0104,2.7192,2.5549,2.4098,2.2605,2.0978,2.321,2.5445,2.6142,2.5297,2.4703,2.4993,2.4923,2.4411,0.0,0.0,0.0,2.285,2.2823,2.3436,2.4706,2.6277,2.7512,2.8212,3.0283,3.127,3.1061,3.2619,3.1374,2.7268,1.7886,1.0631,0.5214,-0.2669,-0.9303,-1.4504,-1.5212,-1.6732,-1.8786,-1.9519,-2.0171,-2.0784,-2.1717,-2.1705,-2.1325,-2.2861,-2.2996,-2.3092,0.0,0.0,-1.656,0.0,0.0,0.0,0.0,0.0,0.0,0.0,0.0,0.0,0.0,0.0,0.0,0.0,0.0,0.0,-0.0542,0.0232,0.1755,0.4494,0.5976,0.6051,0.4616,0.5121,0.5091,0.4333,0.7954,1.0455,1.1905,1.3974,1.4389,1.3476,1.5505,1.6012,1.5624,1.8998,2.0331,2.0232,2.0248,1.9347,1.7845,1.6936,1.4411,1.1217,0.9494,0.6896,0.4355,0.4516,0.4419,0.4311,0.4881,0.482,0.4862,0.6722,0.7757,0.9804,1.6758,2.069,2.4094,2.9133,3.2136,3.3851,3.4245,3.4984,3.5413,3.4897,3.119,2.7889,0.0,0.0,1.7849,1.695,1.5788,1.6698,2.1764,2.0853,2.172,0.0,0.0,0.0,0.0,0.0,0.0,2.5083,0.0,2.517,2.6717,2.7693,2.871,2.9886,3.1472,3.2649,3.3378,3.4222,3.1706,2.58,2.0631,1.2972,0.3299,0.1026,-0.4218,-1.1455,-1.2825,-1.4134,-1.547,-1.8122,-1.8749,-1.836,-2.0214,-1.9887,-1.8388,-1.8879,-1.8669,-1.916,0.0,0.0,0.0,0.0,0.0,0.0,0.0,0.0,0.0,0.0,0.0,0.0,0.0,0.0,0.0,0.0,0.0,0.0,-0.33,-0.1534,-0.0102,0.0904,0.2214,0.2892,0.283,0.4025,0.4265,0.3444,0.3247,0.4099,0.5828,0.3181,0.3023,0.5062,0.7006,0.8194,0.8978,1.2985,1.5061,1.5709,1.6749,1.7299,1.697,1.2299,1.0493,0.9986,0.5589,0.3793,0.3528,0.0,0.0,0.0,0.0,1.0615,0.9952,1.1024,1.3083,1.5635,1.8429,2.2914,2.7268,2.9502,3.1834,3.3742,3.4177,3.5325,3.5061,3.058,2.5675,2.0717,0.0,0.0,0.0,1.838,2.5287,0.0,3.2065,3.1367,0.0,3.136,0.0,2.9845,2.9657,2.9448,0.0,0.0,2.7988,2.7294,2.9342,3.0202,3.0935,3.163,3.2842,3.3809,3.4485,3.1567,2.8525,2.5355,1.8589,1.2809,0.7965,0.4031,-0.0306,-0.4798,-0.6603,-0.8822,-1.1243,-1.2999,-1.3581,-1.3618,-1.5225,-1.5559,-1.5227,-1.603,-1.6362,-1.6813,0.0,0.0,0.0,0.0,0.0,0.0,0.0,0.0,0.0,0.0,0.0,0.0,0.0,0.0,0.0,0.0,0.0,0.0,0.0,-0.2874,-0.2062,-0.1751,-0.102,-0.0625,-0.0549,0.0199,0.0204,-0.0645,-0.1016,-0.065,0.037,-0.1879,-0.1802,0.0203,0.1197,0.2335,0.3645,0.6387,0.7704,0.0,0.0,0.9241,0.8925,0.5567,0.5093,0.5919,0.318,0.384,0.0,0.0,0.0,1.1914,1.3553,1.3716,1.3646,1.5278,0.0,1.9223,2.1369,2.5272,2.886,2.98,3.1709,3.3141,3.173,3.1817,3.0868,2.5821,2.008,0.0,0.0,0.0,0.0,0.0,0.0,0.0,3.2258,3.1972,3.2035,0.0,3.2654,0.0,3.232,3.1951,3.2475,0.0,3.1287,2.992,3.1382,3.2031,3.2509,3.2871,3.3888,3.4316,3.4101,3.024,2.7215,2.4961,1.8129,1.3383,1.0578,0.6222,0.2322,-0.1083,0.0,-0.5647,-0.796,-0.9622,-1.0288,-1.0464,-1.21,-1.2736,-1.2809,-1.3574,-1.4055,-1.4427,0.0,0.0,0.0,0.0,0.0,0.0,0.0,0.0,0.0,0.0,-0.8971,0.0,0.0,0.0,0.0,0.0,0.0,0.0,0.0,0.0,-0.372,-0.3452,-0.3441,-0.3674,-0.4049,-0.4324,-0.482,-0.5478,-0.4557,-0.4113,-0.418,-0.3723,-0.3105,-0.246,-0.265,-0.2019,-0.0726,-0.0064,0.0064,-0.0192,-0.0242,-0.0588,-0.0989,0.0,-0.0056,0.1295,0.1811,0.0,0.0,0.0,1.5171,1.6053,1.6056,1.6365,1.7167,1.9609,2.0705,2.1768,2.4776,2.7494,2.9635,3.0132,3.1848,3.2444,2.8545,2.7249,2.546,2.0694,0.0,0.0,0.947,0.0,1.0158,1.1598,0.0,2.2983,2.8838,2.9145,3.0318,3.4635,3.4381,3.4023,3.4355,3.39,3.4539,3.6894,3.4332,3.2877,3.3406,3.3835,3.4003,3.3821,3.4687,3.4441,3.3015,2.9798,2.6964,2.4432,1.8511,1.4355,1.1775,0.7722,0.402,0.0852,-0.1632,0.0,-0.5343,-0.7327,-0.8124,-0.8282,-1.0076,-1.079,-1.0906,-1.1478,-1.1934,-1.2355,0.0,0.0,0.0,0.0,0.0,0.0,0.0,0.0,0.0,0.0,-0.8807,-0.8385,0.0,0.0,0.0,0.0,0.0,0.0,0.0,0.0,0.0,-0.3663,-0.376,-0.3862,-0.3928,-0.4816,-0.5526,-0.598,-0.602,-0.6159,-0.6344,-0.5754,-0.5337,-0.4993,-0.4993,-0.477,-0.4374,-0.4229,-0.3999,-0.3613,-0.3626,-0.2817,-0.164,-0.1445,0.0,0.0,0.0,0.0,0.0,1.2802,1.6264,1.9696,2.2765,2.3475,2.3379,2.4578,2.513,2.5646,2.6945,2.8946,3.0704,3.1107,3.2681,3.3033,2.8612,2.7419,0.0,0.0,0.0,0.8652,0.3659,0.6013,0.0,1.6839,0.0,0.0,0.0,0.0,3.6051,0.0,0.0,0.0,0.0,0.0,0.0,0.0,0.0,3.6283,3.6669,3.6925,3.6425,3.5052,3.5226,3.4444,3.2542,2.9572,2.6598,2.346,1.8574,1.4755,1.1972,0.859,0.5564,0.2789,0.0622,0.0,-0.295,-0.5038,-0.5832,-0.6028,-0.7956,-0.8777,-0.8987,-0.9942,-1.0647,-1.1332,0.0,0.0,0.0,0.0,0.0,0.0,0.0,-0.8627,-0.8425,-0.8712,-0.825,-0.7802,-0.7587,-0.6874,-0.5991,0.0,0.0,0.0,0.0,0.0,0.0,0.0,0.0,0.0,-0.4956,-0.547,0.0,0.0,0.0,-0.679,-0.702,0.0,0.0,-0.6381,-0.6381,-0.6322,-0.6209,-0.5882,-0.5441,-0.4904,-0.4661,-0.3667,-0.2303,0.0,0.0,0.0,0.0,0.0,0.0,0.0,1.5093,2.0588,2.4622,2.584,2.594,2.6587,2.6997,2.7418,2.8397,2.9965,3.1519,3.2283,3.3529,3.2701,2.5764,0.0,0.0,0.0,0.0,0.4469,0.1276,0.0,0.0,0.0,0.0,0.0,0.0,0.0,0.0,0.0,0.0,0.0,0.0,0.0,0.0,0.0,0.0,3.7384,3.7038,3.6919,3.642,3.5428,3.513,3.3833,3.1417,2.9007,2.5923,2.2247,1.8596,1.5443,1.2642,0.9413,0.6932,0.4983,0.2251,0.0,-0.0159,-0.2298,-0.3173,-0.3416,-0.489,-0.6087,-0.7052,-0.7631,-0.8455,-0.9226,0.0,0.0,0.0,0.0,0.0,0.0,0.0,-0.8372,-0.8119,-0.8289,-0.7746,-0.7291,-0.723,-0.6282,-0.5423,0.0,0.0,0.0,0.0,0.0,0.0,0.0,0.0,0.0,0.0,0.0,0.0,0.0,0.0,0.0,0.0,0.0,0.0,0.0,0.0,0.0,-0.6864,-0.6426,-0.5795,0.0,0.0,0.0,0.0,0.0,0.0,0.0,0.0,0.0,0.0,0.0,1.2454,1.8135,2.2525,2.4699,2.5745,2.6462,2.6844,2.7551,2.9506,3.1046,3.2382,3.3698,3.4469,3.2504,2.3401,1.9909,0.0,0.0,0.0,0.1143,0.0606,0.0,0.0,0.0,0.0,0.0,0.0,0.0,0.0,0.0,0.0,0.0,0.0,0.0,0.0,0.0,0.0,0.0,3.6779,3.6253,3.5706,3.512,3.4689,3.3012,2.9954,2.8078,2.5191,2.1292,1.8461,1.5861,1.3556,1.0323,0.8212,0.6849,0.3704,0.0,0.0,0.0162,-0.0888,-0.1207,-0.2355,-0.375,-0.5077,-0.5284,-0.57,-0.6392,0.0,0.0,0.0,0.0,0.0,0.0,0.0,-0.8361,-0.7943,-0.7691,-0.7747,-0.737,-0.6093,-0.5391,-0.4829,0.0,0.0,0.0,0.0,0.0,0.0,0.0,0.0,0.0,0.0,0.0,0.0,0.0,0.0,0.0,0.0,0.0,0.0,0.0,0.0,0.0,0.0,-0.6209,0.0,0.0,0.0,0.0,0.0,0.0,0.0,0.0,0.0,0.0,0.0,0.0,0.0,1.0367,1.4908,1.8975,2.221,2.3484,0.0,0.0,3.0404,3.2501,3.3645,3.532,3.5819,3.3459,2.4123,0.0,0.0,0.0,0.2817,0.1812,0.1143,0.0,0.0,0.0,0.0,1.4389,0.0,0.0,0.0,0.0,0.0,0.0,0.0,0.0,0.0,0.0,0.0,0.0,3.7155,3.6352,3.5249,3.3808,3.396,3.2136,2.8158,2.6602,2.4324,2.1151,1.7929,1.5703,1.4331,1.1354,0.9326,0.8036,0.5416,0.0,0.0,0.1542,0.0401,-0.0237,-0.1645,-0.2514,-0.2957,-0.3148,-0.2826,-0.2554,0.0,0.0,0.0,0.0,0.0,0.0,-0.8412,-0.7874,-0.751,-0.7744,-0.7494,-0.7122,-0.6632,-0.6057,-0.5449,-0.488,0.0,0.0,0.0,0.0,0.0,0.0,0.0,0.0,0.0,0.0,0.0,-0.6255,0.0,0.0,0.0,0.0,0.0,0.0,0.0,0.0,0.0,0.0,0.0,0.0,0.0,0.0,0.0,0.0,0.0,0.0,0.0,0.0,0.0,0.0,0.0,0.0,0.8456,1.1106,0.0,0.0,2.3763,2.5347,3.0653,3.3022,3.4345,3.5759,3.391,2.9993,2.3391,0.0,0.0,0.514,0.2883,0.2082,0.0941,-0.0197,-0.0063,0.0,0.0,0.0,0.0,0.0,0.0,0.0,0.0,0.0,0.0,0.0,0.0,0.0,0.0,0.0,3.5573,3.5301,3.4629,3.3447,3.2511,3.0508,2.7315,2.5776,2.3568,2.0785,1.8121,1.6307,1.5033,1.2222,1.0513,0.9774,0.7312,0.0,0.0,0.3637,0.2671,0.2273,0.1776,0.1151,0.0584,0.0686,0.0611,0.0,0.0,0.0,0.0,0.0,0.0,-0.8354,-0.8092,-0.7561,-0.7327,-0.7806,-0.745,-0.7224,-0.7213,-0.6902,-0.6416,-0.5738,-0.514,0.0,0.0,0.0,0.0,0.0,0.0,0.0,0.0,0.0,-0.5525,-0.5916,-0.552,-0.521,0.0,0.0,0.0,0.0,0.0,0.0,0.0,0.0,0.0,0.0,0.0,0.0,0.0,0.0,0.0,0.0,0.0,0.0,0.0,0.0,0.0,0.0,0.0,0.5276,0.8982,0.0,2.1087,2.3527,2.9182,3.2268,3.4326,3.5954,3.2533,2.7567,0.0,0.0,0.0,0.4607,0.3019,0.2345,0.0798,-0.0197,-0.0707,-0.0674,0.2504,0.594,0.8778,0.0,0.0,0.0,0.0,0.0,0.0,0.0,0.0,0.0,0.0,0.0,3.4522,3.396,3.3271,3.2341,3.102,2.8968,2.609,2.4709,2.2633,1.9825,1.7939,1.6466,1.5421,1.299,1.1709,1.1194,0.9145,0.0,0.0,0.5598,0.5133,0.5479,0.505,0.4819,0.4653,0.4685,0.4082,0.291,0.0,0.0,0.0,0.0,0.0,0.0,-0.7957,-0.7616,-0.7384,-0.7688,-0.7824,-0.7806,-0.7517,-0.7747,-0.7652,-0.7047,-0.58,0.0,0.0,0.0,0.0,0.0,0.0,0.0,0.0,0.0,-0.4416,-0.4789,-0.467,-0.4627,-0.4709,-0.4709,0.0,0.0,0.0,0.0,0.0,0.0,0.0,0.0,0.0,0.0,0.0,0.0,0.0,0.0,0.0,0.0,0.0,0.0,0.0,0.0,0.0,0.2566,0.4257,1.0397,1.4781,1.8977,2.5408,2.9985,3.3523,3.6044,3.2635,2.7436,0.0,0.0,0.0,0.4823,0.3222,0.2533,0.0909,0.0396,0.0196,0.0,0.0124,0.2656,0.9588,0.0,0.0,0.0,0.0,0.0,0.0,0.0,0.0,0.0,0.0,0.0,3.4562,3.2469,3.094,3.0051,2.9666,2.7793,2.4138,2.3366,2.1396,1.8228,1.6904,1.5942,1.5149,1.3733,1.2726,0.0,0.0,0.0,0.0,0.7241,0.7965,0.9279,0.7541,0.7764,0.9046,0.8556,0.7635,0.6358,0.0,0.0,0.0,0.0,0.0,0.0,0.0,-0.7885,-0.782,-0.7832,-0.8084,-0.8249,-0.8237,-0.8349,-0.8249,-0.7984,-0.6844,0.0,0.0,0.0,0.0,0.0,0.0,0.0,0.0,-0.4233,-0.4412,-0.4793,-0.4323,-0.4042,-0.3928,-0.3745,-0.3808,-0.4053,0.0,0.0,0.0,0.0,0.0,0.0,0.0,0.0,0.0,0.0,0.0,0.0,0.0,0.0,0.0,0.0,0.0,0.0,0.0,0.0,0.0,0.5894,0.9932,1.475,1.989,2.2661,2.4323,2.544,2.185,1.7656,1.6239,0.0,0.0,0.3919,0.3422,0.293,0.0973,0.0383,0.0126,-0.0122,-0.0486,0.0059,0.0,0.0,0.0,0.0,0.0,0.0,0.0,0.0,0.0,0.0,0.0,0.0,3.2745,3.1841,3.0844,2.9703,2.8334,2.6416,2.3974,2.3308,2.1722,1.9295,1.8484,1.7735,1.6959,1.5378,1.4498,0.0,0.0,0.0,0.0,1.1065,1.1408,1.1696,1.299,1.3403,1.3193,1.1819,1.0149,0.8151,0.0,0.0,0.0,0.0,0.0,0.0,0.0,-0.8217,-0.839,-0.8276,-0.8561,-0.8768,-0.883,-0.8791,-0.8633,-0.8256,-0.7176,0.0,0.0,0.0,0.0,0.0,0.0,0.0,-0.3907,-0.3613,-0.3691,-0.4293,-0.3598,-0.3306,-0.3437,-0.335,-0.3347,-0.3563,-0.3773,-0.4004,0.0,0.0,0.0,0.0,0.0,0.0,-0.4971,0.0,0.0,0.0,0.0,0.0,0.0,0.0,0.0,0.0,0.0,0.0,0.0,0.0,0.6465,1.0263,1.4946,1.7617,1.9295,1.994,1.6339,0.0,0.0,0.0,0.0,0.3673,0.3394,0.2819,0.1084,0.0624,0.0306,-0.0419,-0.0651,0.0,0.0,0.0,0.0,0.0,0.0,0.0,0.0,0.0,0.0,0.0,0.0,0.0,3.2001,3.125,3.0312,2.9178,2.7722,2.604,2.4116,2.3454,2.1984,1.9786,1.9448,1.8854,1.7953,1.6763,1.5994,0.0,0.0,0.0,0.0,1.4355,1.5235,1.5973,1.7295,1.7667,1.7111,1.4646,1.214,0.9463,0.0,0.0,0.0,0.0,0.0,0.0,0.0,-0.8532,-0.8919,-0.8884,-0.9131,-0.9313,-0.9124,-0.9008,-0.8633,-0.7871,0.0,0.0,0.0,0.0,0.0,0.0,0.0,0.0,-0.3426,-0.26,-0.2567,-0.3347,-0.2486,-0.2487,-0.3103,-0.3253,-0.3451,-0.382,-0.3786,-0.4065,-0.4464,0.0,0.0,0.0,0.0,-0.5059,0.0,0.0,0.0,0.0,0.0,0.0,0.0,0.0,0.0,0.0,0.0,0.0,0.0,0.0,0.0,0.0,0.0,1.416,1.7073,1.7932,1.4803,1.1494,1.148,0.7375,0.0,0.388,0.3144,0.223,0.13,0.1106,0.0602,-0.0855,-0.0578,0.0,0.0,0.0,0.0,0.0,0.0,0.0,0.0,0.0,0.0,0.0,0.0,0.0,3.1926,3.0714,2.9556,2.8511,2.7834,2.6515,2.4483,2.3807,2.2274,1.9835,1.9899,1.9359,1.8241,1.7871,1.7213,0.0,0.0,0.0,0.0,1.7226,1.924,2.1586,2.0924,2.0892,2.0801,1.7097,1.3728,1.0545,0.0,0.0,0.0,0.0,0.0,0.0,0.0,0.0,0.0,0.0,-0.8651,-0.8673,-0.8455,-0.848,-0.815,0.0,0.0,0.0,0.0,0.0,0.0,0.0,0.0,0.0,-0.3485,-0.263,-0.2378,-0.2699,-0.1668,-0.1629,-0.2356,-0.2371,-0.2895,-0.3823,-0.3934,-0.4317,-0.491,-0.5074,0.0,0.0,-0.5089,-0.4962,0.0,0.0,0.0,0.0,0.047,0.1411,0.0,0.0,0.0,0.0,0.0,0.0,0.0,0.0,0.3979,0.4931,0.5394,0.0,0.7659,0.7792,0.7076,0.6205,0.0,0.488,0.3848,0.3232,0.2666,0.2109,0.1294,0.0543,-0.0238,-0.0782,0.0,0.065,0.0,0.0,0.0,0.0,0.0,0.0,0.0,0.0,0.0,0.0,0.0,3.2292,3.08,3.0593,2.9924,2.8559,2.8538,2.7461,2.5197,2.3828,2.251,2.113,2.0676,1.9825,1.8674,1.8021,1.7463,0.0,0.0,0.0,1.8998,2.0785,2.2614,2.4502,2.5756,2.5147,2.3032,1.862,1.5264,1.2209,0.0,0.0,0.0,0.0,0.0,0.0,0.0,0.0,0.0,0.0,0.0,-0.7591,-0.7629,-0.745,0.0,0.0,0.0,0.0,0.0,0.0,0.0,0.0,0.0,-0.2784,-0.311,-0.2261,-0.1993,-0.2348,-0.1446,-0.1257,-0.1611,-0.2008,-0.2541,-0.3153,-0.3828,-0.4428,-0.4964,-0.509,-0.5129,-0.5213,-0.4928,0.0,0.0,0.0,0.0,0.0,0.0067,0.1075,0.0,0.2414,0.2882,0.3349,0.0,0.0,0.0,0.0,0.4492,0.4758,0.3956,0.4071,0.4349,0.4308,0.4164,0.4102,0.413,0.3715,0.3391,0.3523,0.3011,0.2225,0.1323,0.0644,-0.0115,0.0,-0.0119,0.0,0.0,0.0,0.0,0.0,0.0,0.0,0.0,0.0,0.0,0.0,0.0,3.2009,3.074,3.0604,3.0335,2.9846,2.9215,2.781,2.5585,2.4774,2.3653,2.2159,2.1811,2.0807,1.9281,1.9104,1.8626,0.0,0.0,0.0,2.1851,2.4348,2.602,2.7028,2.808,2.6974,2.4257,1.9961,1.6501,1.3014,0.0,0.0,0.0,0.0,0.0,0.0,0.0,0.0,0.0,0.0,0.0,0.0,0.0,0.0,0.0,0.0,0.0,0.0,0.0,0.0,0.0,0.0,-0.1635,-0.2007,-0.2437,-0.1773,-0.1534,-0.1902,-0.1286,-0.1011,-0.1058,-0.1857,-0.2335,-0.2701,-0.3785,-0.4451,-0.477,-0.4947,-0.4931,-0.4773,-0.4748,0.0,0.0,0.0,0.0,0.0,0.0,0.0,0.0,0.2815,0.3351,0.3751,0.5024,0.0,0.0,0.0,0.0,0.0,0.4135,0.3825,0.373,0.3898,0.3781,0.3702,0.4028,0.3193,0.2649,0.374,0.3155,0.2216,0.1287,0.0801,0.0,0.0,0.0,0.0,0.0,0.0,0.0,0.0,0.0,0.0,0.0,0.0,0.0,0.0,0.0,3.229,3.1303,3.084,3.0831,3.1274,2.9894,2.817,2.6242,2.5983,2.4917,2.3034,2.2795,2.1755,1.9929,2.0272,1.9849,1.8962,0.0,0.0,2.449,2.7457,2.9026,2.9545,2.9536,2.8054,2.5443,2.1335,1.7778,1.4081,0.0,0.0,0.0,0.0,0.0,0.0,0.0,0.0,0.0,0.0,0.0,0.0,0.0,0.0,0.0,0.0,0.0,0.0,0.0,0.0,0.0,-0.0117,-0.1167,-0.1797,-0.1835,-0.153,-0.1131,-0.0503,-0.0222,-0.0445,-0.1157,-0.1295,-0.2172,-0.3684,-0.3894,-0.4183,-0.4628,-0.4451,-0.4582,-0.4764,-0.4648,0.0,0.0,0.0,0.0,0.0,0.0,0.0,0.0,0.3149,0.4018,0.5093,0.5362,0.0,0.0,0.0,0.0,0.0,0.389,0.2339,0.1295,0.2525,0.3407,0.3665,0.2698,0.2534,0.2497,0.1953,0.15,0.1196,0.1168,0.0058,-0.0999,0.0,0.0,0.0,0.0,0.0,0.0,0.0,0.0,0.0,0.0,0.0,0.0,0.0,0.0,3.3123,3.1929,3.1613,3.1293,3.0892,3.041,2.9454,2.7996,2.6552,2.5065,2.3659,2.2877,2.1844,2.0673,2.0403,1.9754,1.9111,0.0,2.3986,2.5938,2.8459,3.0867,3.2897,3.2521,3.0883,2.8112,2.3133,2.0325,1.7033,0.0,0.0,0.0,0.0,0.0,0.0,0.0,0.0,0.0,0.0,0.0,0.0,0.0,0.0,0.0,0.0,0.0,0.0,0.0,0.0,-0.0122,0.038,-0.0187,-0.0684,-0.0941,-0.083,-0.0541,-0.0074,0.0075,0.0152,0.0303,-0.0521,-0.1677,-0.3141,-0.3539,-0.3874,-0.4295,-0.4164,-0.4298,-0.4498,0.0,0.0,0.0,0.0,0.0,0.0,0.0,0.0,0.0,0.0,0.3816,0.4674,0.5199,0.0,0.0,0.0,0.0,0.0,0.446,0.3216,0.1847,0.0652,0.1225,0.2169,0.2578,0.1551,0.0731,0.1625,0.0854,0.0179,0.0517,0.0,-0.0063,0.1439,0.0,0.0,0.0,0.0,0.0,0.0,0.0,0.0,0.0,0.0,0.0,0.0,0.0,0.0,3.1742,3.1439,3.1524,3.193,3.0964,3.0105,2.9376,2.7816,2.6051,2.425,2.3621,2.2491,2.1107,2.1297,2.1754,2.2597,0.0,2.7439,3.0195,3.1913,3.3301,3.4294,3.3694,3.1517,2.7638,1.9354,1.3707,0.8786,0.0,0.0,0.0,0.0,0.0,0.0,0.0,0.0,0.0,0.0,0.0,0.0,0.0,0.0,0.0,0.0,0.0,0.0,0.0,0.0,0.037,0.0599,0.0592,0.0388,0.0,-0.0195,-0.0069,0.0379,0.0228,0.0464,0.1186,-0.0368,-0.1578,-0.2542,-0.3192,-0.3652,-0.3961,-0.3961,-0.4046,-0.4274,0.0,0.0,0.0,0.0,0.0,0.0,0.0,0.0,0.0,0.0,0.0,0.0,0.0,0.0,0.0,0.538,0.5378,0.5348,0.5111,0.4527,0.322,0.0,-0.0487,0.0291,0.2168,0.0506,-0.1142,-0.0267,-0.0131,-0.0192,0.0,0.0246,0.0,0.0,0.0,0.0,0.0,0.0,0.0,0.0,0.0,0.0,0.0,0.0,0.0,0.0,0.0,0.0,3.1625,3.1226,3.1573,3.2757,3.1349,3.051,3.0225,2.8953,2.7286,2.5243,2.4756,2.3886,2.2863,2.3496,2.4666,2.6284,2.8576,3.0975,3.3314,3.4962,3.5598,3.5429,3.46,3.102,2.5178,1.5189,0.7221,0.0463,0.0,0.0,0.0,0.0,0.0,0.0,0.0,0.0,0.0,0.0,0.0,0.0,0.0,0.0,0.0,0.0,0.0,0.0,0.0,0.0185,0.0375,0.0517,0.0663,0.0815,0.0833,0.0139,0.0215,0.1136,0.0465,0.0159,0.0081,-0.1539,-0.2377,-0.2545,-0.3113,-0.358,-0.3825,-0.3825,-0.3954,-0.4255,-0.4391,0.0,0.0,0.0,0.0,0.0,0.0,0.0,0.0,0.0,0.0,0.0,0.0,0.0,0.5419,0.5407,0.5415,0.5413,0.5366,0.529,0.4614,0.2175,-0.0121,-0.1321,0.0628,-0.0137,-0.2251,-0.5731,-0.2547,0.0,0.0,0.1037,0.0,0.0,0.0,0.0,0.0,0.0,0.0,0.0,0.0,0.0,0.0,0.0,0.0,0.0,0.0,0.0,3.219,3.1526,3.1558,3.2437,3.148,3.0777,3.0329,2.9594,2.8397,2.6812,2.6215,2.6504,2.7446,2.7708,2.8002,2.8475,3.2183,3.3315,3.2812,3.6026,3.7313,3.7174,3.583,2.9517,2.0348,1.3378,0.5954,-0.1669,0.0,0.0,0.0,0.0,0.0,0.0,0.0,0.0,0.0,0.0,0.0,0.0,0.0,0.0,0.0,0.0,0.0,0.0,0.0,0.0309,0.0445,0.0746,0.0811,0.0887,0.105,0.077,0.0804,0.1269,0.1135,0.1055,0.0795,-0.068,-0.1456,-0.1633,-0.2764,-0.3394,-0.3632,-0.3762,-0.402,-0.4199,-0.4402,-0.4541,0.0,0.0,0.0,0.0,0.0,0.0,0.0,0.0,0.3196,0.5424,0.5374,0.5359,0.535,0.5358,0.5337,0.5346,0.535,0.1077,-0.249,0.0956,0.0498,-0.0637,-0.0298,-0.3561,-0.6805,-0.7034,-0.5469,0.0,0.0,0.0,0.0,0.0,0.0,0.0,0.0,0.0,0.0,0.0,0.0,0.0,0.0,0.0,0.0,0.0,0.0,0.0,3.1835,3.1467,3.1289,3.1258,3.0068,2.9449,2.9633,2.9268,2.9104,2.9158,2.8755,2.8768,2.9322,3.0173,3.1553,3.3298,3.4382,3.5789,3.7395,3.8034,3.8472,3.8211,3.2985,2.6901,1.9958,1.1001,0.3527,-0.3078,0.0,0.0,0.0,0.0,0.0,0.0,0.0,0.0,0.0,0.0,0.0,0.0,0.0,0.0,0.0,0.0,0.0,0.0,0.0485,0.0426,0.0568,0.0886,0.0873,0.0947,0.112,0.106,0.1107,0.1274,0.1477,0.1464,0.1242,0.0074,-0.0648,-0.1132,-0.232,-0.3105,-0.3544,-0.3783,-0.4025,-0.4199,-0.4402,-0.4541,0.0,0.0,0.0,0.0,0.0,0.0,0.0,0.0,0.331,0.537,0.5308,0.5293,0.5284,0.5278,0.5297,0.5242,0.4849,0.0232,-0.4078,-0.253,-0.1019,-0.0333,-0.1463,-0.625,-0.9954,-0.835,-0.8213,-0.6894,-0.1793,0.0,0.0,0.0,0.0,0.0,0.0,0.0,0.0,0.0,0.0,0.0,0.0,0.0,0.0,0.0,0.0,0.0,0.0,3.1055,3.0834,3.0288,2.94,2.9085,2.9433,2.9607,3.0384,3.1704,3.1822,3.183,3.1788,3.3145,3.4936,3.6953,3.6887,3.8082,4.0052,3.9622,3.9116,3.8155,3.3211,2.6562,1.8705,0.9114,0.1562,-0.4682,0.0,0.0,0.0,0.0,0.0,0.0,0.0,0.0,-0.0449,0.028,0.028,0.0,0.0,0.0,0.0,0.0,0.0,0.0,0.0411,0.0589,0.0728,0.0773,0.0904,0.1061,0.1119,0.0934,0.0959,0.1212,0.1273,0.1271,0.121,0.0442,-0.0364,-0.1231,-0.1924,-0.2724,-0.3626,-0.3734,-0.3956,-0.4196,-0.4402,-0.4469,-0.4469,0.0,0.0,0.0,0.0,0.0,0.0,0.0,0.3883,0.5289,0.5274,0.5329,0.5301,0.5297,0.5301,0.5073,0.3892,0.4018,0.1991,-0.7989,-0.5258,-0.073,-0.3121,-0.7584,-1.1063,-1.0199,-1.0622,-0.9464,-0.3855,0.0,0.0,0.0,0.0,0.0,0.0,0.0,0.0,0.0,0.0,0.0,0.0,0.0,0.0,0.0,0.0,0.0,0.0,3.0336,3.0163,2.9522,2.9819,2.9986,2.9927,3.084,3.2345,3.4335,3.548,3.5786,3.5383,3.6917,3.8068,3.8869,4.0021,4.0154,3.9666,4.0468,3.9213,3.6883,3.7524,2.908,1.561,0.7933,0.0278,-0.6913,0.0,0.0,0.0,0.0,0.0,0.0,0.0,0.0,-0.0449,0.0168,0.0224,0.0,0.0,0.0,0.0,0.0,0.0,0.0,0.0588,0.053,0.0606,0.0773,0.084,0.092,0.1088,0.0559,0.0507,0.0984,0.1016,0.1065,0.1116,0.0353,-0.0137,-0.0454,-0.1562,-0.2358,-0.2838,-0.3405,-0.3845,-0.4222,-0.4508,-0.4631,-0.4628,0.0,0.0,0.0,0.0,0.0,0.0,0.0,0.0,0.0,0.5322,0.5486,0.5688,0.5393,0.5326,0.5159,0.4428,0.0969,-0.2633,-0.3771,-0.618,-0.8295,-0.8103,-0.9256,-1.051,0.0,-0.5423,-0.1635,-0.4641,0.0,0.0,0.0,0.0,0.0,0.0,0.0,0.0,0.0,0.0,0.0,0.0,0.0,0.0,0.0,0.0,0.0,0.0,3.2476,3.1935,3.0931,3.0764,3.067,3.0581,3.2469,3.4032,3.5239,3.7186,3.8033,3.7938,3.8773,3.9484,4.0097,4.0527,4.0586,4.04,4.0784,3.9609,3.6939,3.0355,1.8296,0.3889,-0.206,-0.8389,-1.4387,0.0,0.0,0.0,0.0,0.0,0.0,-0.04,-0.0405,-0.029,0.0172,0.0174,0.0116,0.0,0.0,0.0,0.0515,0.0629,0.075,0.0765,0.064,0.0654,0.0886,0.0952,0.104,0.1093,0.0351,0.0072,0.0441,0.0528,0.0732,0.1076,0.0699,0.0069,-0.0779,-0.1471,-0.2301,-0.325,-0.3675,-0.3979,-0.424,-0.4375,-0.4431,-0.4504,0.0,0.0,0.0,0.0,0.0,0.0,0.0,0.0,0.0,0.5187,0.5198,0.5204,0.5049,0.4804,0.4371,0.3163,-0.0063,-0.3211,-0.3472,-0.6826,-1.0532,-1.2728,0.0,0.0,0.0,-0.558,-0.1001,0.0,0.0,0.0,0.0,0.0,0.0,0.0,0.0,0.0,0.0,0.0,0.0,0.0,0.0,0.0,0.0,0.0,0.0,0.0,3.3571,3.3112,3.2606,3.1996,3.1872,3.2259,3.392,3.5361,3.6494,3.8157,3.9102,3.9375,3.9779,4.0147,4.0454,4.059,4.0687,4.077,4.0696,3.3244,2.0269,0.4708,-0.2762,-0.575,-1.3534,-1.7133,-1.8506,0.0,0.0,0.0,0.0,0.0,0.0,0.0178,0.0121,0.0061,0.0178,0.0121,0.0122,0.0,0.0,0.0,0.065,0.0709,0.0768,0.0884,0.0917,0.0929,0.099,0.1185,0.1169,0.0983,0.0144,-0.0287,-0.028,-0.0072,0.0353,0.1002,0.1061,0.0143,-0.1592,-0.1564,-0.2518,-0.417,-0.4122,-0.4225,-0.4232,-0.3732,-0.367,-0.3793,-0.3811,0.0,0.0,0.0,0.0,0.0,0.0,0.0,0.0,0.5045,0.4764,0.4324,0.4467,0.4098,0.3166,0.1001,0.0064,-0.1341,-0.5886,-0.7549,0.0,-1.6315,-1.4867,-1.1943,-1.1376,0.0,0.0,0.0,0.0,0.0,0.0,0.0,0.0,0.0,0.0,0.0,0.0,0.0,0.0,0.0,0.0,0.0,0.0,0.0,0.0,0.0,3.3979,3.3938,3.4271,3.3512,3.3513,3.4365,3.5377,3.6541,3.7839,3.8605,3.9282,3.9891,4.0079,4.0162,4.0175,4.0246,3.9965,3.9395,3.8561,2.1513,-0.632,-2.8612,-2.7476,-1.4592,-2.4971,-2.529,-2.097,0.0,0.0,0.0,0.0,0.0,0.0,0.0122,0.0123,0.0246,0.0245,0.0369,0.0431,0.0428,0.0615,0.0,0.0709,0.0844,0.0908,0.0885,0.1054,0.108,0.1021,0.1068,0.0834,0.0144,-0.0498,-0.0634,-0.014,-0.0211,-0.0068,0.0189,0.0205,-0.0204,-0.0888,-0.1696,-0.2446,-0.3166,-0.3506,-0.3892,-0.4108,-0.1765,-0.0507,-0.0062,-0.0191,0.0065,0.0,0.0,0.0,0.0,0.0,0.0,0.0,0.5081,0.5184,0.5177,0.4643,0.4115,0.3241,0.1271,-0.1511,-0.4345,-0.6257,-1.0347,-1.4289,-1.5884,-1.7475,-1.7139,-1.1821,0.0,0.0,0.0,0.0,0.0,0.0,0.0,0.0,0.0,0.0,0.0,0.0,0.0,0.0,0.0,0.0,0.0,0.0,0.0,0.0,3.5368,3.5308,3.5148,3.4912,3.572,3.5789,3.5014,3.7572,3.8593,0.0,3.9058,3.9602,3.9738,3.98,3.9851,3.994,3.9547,3.5221,2.8161,2.4606,0.7874,-1.6085,-2.1515,-2.5745,-2.8774,-2.8567,-2.8923,-2.9706,0.0,0.0,0.0,0.0,0.0,0.0,0.0,0.0,0.0329,0.0373,0.0512,0.0586,0.0633,0.0767,0.0,0.0,0.0938,0.1003,0.0925,0.1033,0.1116,0.1117,0.0763,0.0357,0.0072,-0.1,-0.1261,-0.0606,-0.0808,-0.0592,-0.0063,-0.0068,-0.0543,-0.1478,-0.1984,-0.2727,-0.3477,-0.288,-0.2717,-0.2653,-0.0304,0.0855,0.1268,0.1657,0.1743,0.1759,0.2681,0.0,0.0,0.0,0.0,0.0,0.0,0.0,0.4195,0.3716,0.3005,0.1897,-0.0133,-0.2633,-0.533,-0.8093,0.0,-1.4851,-1.542,-1.7568,-1.862,0.0,0.0,0.0,0.0,0.0,0.0,0.0,0.0,0.0,0.0,0.0,0.0,0.0,0.0,0.0,0.0,0.0,0.0,0.0,0.0,3.5701,3.6289,3.6348,3.6662,3.7327,3.7627,3.762,3.7319,3.8906,3.9252,3.8396,3.9178,3.9301,3.8832,3.898,3.8798,3.8297,3.7618,3.1454,2.1366,1.3781,-0.3469,-2.5201,-2.6094,-3.0148,-3.5182,-3.2858,-3.2508,-3.3146,0.0,0.0,0.0,0.0,0.0,0.0,0.0,0.0,0.0,0.0563,0.0594,0.0748,0.0908,0.0858,0.086,0.0,0.0,0.0,0.1026,0.1012,0.1089,0.1275,0.0564,0.0072,0.0071,-0.1212,-0.1599,-0.1103,-0.1349,-0.0959,0.0,-0.0136,-0.089,-0.2202,-0.2391,-0.2993,-0.3706,-0.2168,-0.122,-0.0641,0.082,0.1413,0.1532,0.2413,0.2632,0.2498,0.3382,0.3698,0.368,0.3318,0.0,0.0,0.0,0.0,0.2925,0.2627,0.1746,0.0413,-0.1779,-0.3615,-0.5927,-1.005,-1.2486,0.0,-1.5212,-1.7196,-1.9146,0.0,0.0,0.0,0.0,0.0,0.0,0.0,0.0,0.0,0.0,0.0,0.0,0.0,0.0,0.0,0.0,0.0,0.0,0.0,0.0,3.617,3.695,3.7188,3.8007,3.9531,3.9016,3.8939,3.9394,3.9657,3.9403,3.865,3.8996,3.859,3.7558,3.7998,3.7582,3.6425,3.4699,2.7576,1.6416,0.5619,-1.1165,-3.0258,-3.2512,-3.4658,-3.6434,-3.6212,-3.5339,-3.4063,0.0,0.0,0.0,0.0,0.0,0.0,0.0,0.0,0.0,0.0,0.0893,0.1042,0.1354,0.1166,0.1027,0.1246,0.1119,0.0994,0.0994,0.0,0.0,0.1277,0.104,0.0355,-0.094,-0.0764,-0.0743,-0.1003,-0.108,-0.0743,-0.0124,-0.0724,-0.1132,-0.1425,-0.2736,-0.2823,-0.1919,-0.1286,-0.0057,0.1411,0.1631,0.1651,0.165,0.2409,0.253,0.2477,0.3696,0.4097,0.4112,0.4273,0.4366,0.0,0.0,0.0,0.0,0.2701,0.1742,0.0367,0.0,0.0,-0.768,0.0,-1.3226,-1.5116,0.0,0.0,0.0,0.0,0.0,0.0,0.0,0.0,0.0,0.0,0.0,0.0,0.0,0.0,0.0,0.0,0.0,0.0,0.0,0.0,0.0,0.0,0.0,0.0,3.6907,3.7695,3.8297,3.8666,3.9235,3.9222,3.8561,3.9883,3.983,3.8442,3.8285,3.7453,3.6111,3.697,3.6957,3.5962,3.0505,2.1938,1.1098,0.1048,-1.1127,-2.3819,-2.8619,-3.1222,-3.2698,-3.5937,-3.5909,-3.4535,0.0,0.0,0.0,0.0,0.0,0.0,0.0,0.0,0.0,0.0,0.0,0.1247,0.1355,0.1374,0.1306,0.1332,0.1202,0.1131,0.0989,0.1029,0.1059,0.1209,0.069,0.0,-0.1044,-0.1225,-0.1314,-0.1375,-0.1033,-0.03,0.0661,0.0,-0.0501,-0.0941,-0.1666,-0.1397,-0.0418,0.0285,0.1063,0.1797,0.1826,0.1524,0.1264,0.2607,0.2743,0.2451,0.3749,0.416,0.3999,0.3535,0.3729,0.4013,0.2699,0.0,0.0,0.0,0.0,-0.0657,-0.3268,-0.6795,-1.0032,0.0,-1.4386,-1.7119,-1.7209,0.0,0.0,0.0,0.0,0.0,0.0,0.0,0.0,0.0,0.0,0.0,0.0,0.0,0.0,0.0,0.0,0.0,0.0,0.0,0.0,0.0,0.0,3.6671,3.669,3.7998,3.8801,3.8934,3.9765,3.9991,3.9576,3.972,3.949,3.8891,3.8057,3.798,3.8545,3.851,3.3676,2.5219,2.2884,1.2627,-0.287,-0.8451,-1.6769,-2.6245,-3.0291,-3.2376,-3.3304,-3.4897,-3.529,-3.5047,0.0,0.0,0.0,0.0,0.0,0.0,0.0,0.0,0.0,0.0,0.0,0.1846,0.1935,0.0,0.0,0.0,0.1581,0.131,0.0978,0.0943,0.0967,0.1052,0.047,-0.0134,-0.0782,-0.1172,-0.1381,-0.1276,-0.0696,0.0232,0.1397,0.0989,0.0471,-0.006,-0.0118,0.0175,0.0811,0.1527,0.1794,0.18,0.16,0.1182,0.0796,0.2356,0.2567,0.2274,0.3582,0.4011,0.3786,0.2854,0.307,0.3408,0.1905,0.1961,0.0,0.0,0.0,-0.2078,0.0,0.0,-1.1169,-1.1948,-1.4809,-1.7614,0.0,0.0,0.0,0.0,0.0,0.0,0.0,0.0,0.0,0.0,0.0,0.0,0.0,0.0,0.0,0.0,0.0,0.0,0.0,0.0,0.0,0.0,0.0,3.6881,3.6894,3.8414,3.9346,3.9496,4.0119,4.0342,4.0117,3.9453,3.9082,3.8958,3.817,3.8741,4.0377,3.7875,2.8625,1.4566,1.5801,0.5667,-1.2002,-1.6419,-2.2384,-2.9049,-3.216,-3.3574,-3.3891,-3.4349,-3.4951,-3.5429,0.0,0.0,0.0,0.0,0.0,0.0,0.0,0.0,0.0,0.0,0.0,0.3409,0.3729,0.3473,0.3246,0.3094,0.2404,0.1654,0.0945,0.0852,0.0867,0.0993,0.0994,0.0,-0.0475,0.0,0.0116,-0.0168,0.0168,0.0844,0.1746,0.1745,0.169,0.1695,0.1688,0.1682,0.1745,0.1797,0.1797,0.175,0.1018,0.0614,0.0494,0.1454,0.1661,0.1652,0.3168,0.3743,0.3608,0.2934,0.2736,0.2627,0.1964,0.1797,0.1796,0.0,0.0,0.0,0.0,-0.7327,0.0,-1.2968,-1.4094,0.0,0.0,0.0,0.0,0.0,0.0,0.0,0.0,0.0,0.0,0.0,0.0,0.0,0.0,0.0,0.0,0.0,0.0,0.0,0.0,0.0,0.0,0.0,0.0,3.7896,3.8018,3.9136,3.9853,4.0046,4.0039,3.9716,3.9078,3.9158,3.8813,3.8067,3.8638,3.9191,3.9527,3.2478,2.1575,0.841,1.0921,0.4245,-0.9222,-1.9565,-2.5653,-2.881,-3.2013,-3.2823,-3.2571,-3.4828,-3.548,-3.5547,0.0,0.0,0.0,0.0,0.0,0.0,0.0,0.0,0.0,0.0,0.0,0.0,0.0,0.3559,0.3331,0.3115,0.2667,0.2221,0.1654,0.1647,0.1497,0.1199,0.1223,0.0973,0.0471,0.0824,0.0579,-0.0279,0.0784,0.1459,0.1797,0.1797,0.1797,0.1798,0.182,0.1796,0.1741,0.1781,0.1775,0.1643,0.0834,0.0189,-0.0195,0.1031,0.0663,0.0,0.0,0.0,0.0,0.107,0.1443,0.2176,0.1906,0.1796,0.1455,-0.0223,-0.2215,-0.4278,0.0,0.0,0.0,-1.3579,-1.61,-1.8715,0.0,0.0,0.0,0.0,0.0,0.0,0.0,0.0,0.0,0.0,0.0,0.0,0.0,0.0,0.0,0.0,0.0,0.0,0.0,0.0,0.0,0.0,0.0,0.0,3.7687,3.8385,3.9018,3.9554,3.9102,3.8689,3.8316,3.7143,3.7422,3.9083,3.8423,3.946,4.1644,3.2375,2.1111,0.8482,0.1201,-0.9061,-2.0908,-2.5499,-2.8228,-2.9779,-3.1789,-3.2547,-3.267,-3.4056,-3.5177,-3.6222,0.0,0.0,0.0,0.0,0.0,0.0,0.0,0.0,0.4207,0.4486,0.0,0.0,0.0,0.0,0.3942,0.3409,0.3015,0.2611,0.2144,0.1853,0.1593,0.1368,0.1339,0.1225,0.0968,0.1254,0.0958,0.011,0.1213,0.1777,0.1797,0.1797,0.1797,0.1797,0.1908,0.1885,0.0,0.0,0.0,0.1752,0.0,0.0,-0.0537,0.0,0.0,0.0,0.0,0.0,0.0,0.0,0.0,0.0,0.0689,0.0944,0.0593,-0.1666,-0.3444,-0.5089,-0.7254,0.0,0.0,0.0,0.0,-1.9452,0.0,0.0,0.0,0.0,0.0,0.0,0.0,0.0,0.0,0.0,0.0,0.0,0.0,0.0,0.0,0.0,0.0,0.0,0.0,0.0,0.0,0.0,0.0,0.0,3.7065,3.7489,3.7994,3.8637,3.8186,3.7769,3.7426,3.6806,3.7259,3.8772,3.7741,3.8353,3.9893,2.6842,1.5728,0.5996,-0.8594,-1.9996,-2.8428,-2.9942,-3.0865,-3.1456,-3.2408,-3.2888,-3.3097,-3.4088,-3.5448,-3.701,0.0,0.0,0.0,0.0,0.0,0.0,0.0,0.0,0.5163,0.6105,0.0,0.0,0.0,0.0,0.0,0.41,0.3457,0.2907,0.2495,0.1536,0.1112,0.1483,0.1489,0.1332,0.0958,0.1226,0.1333,0.1227,0.1546,0.1737,0.1797,0.1797,0.1797,0.1853,0.2074,0.2073,0.185,0.0,0.2237,0.2091,0.0,-0.0134,-0.047,0.0,0.0,0.0,0.0,0.0193,0.0,0.0,0.0,0.0,0.0,-0.0872,-0.085,-0.2842,-0.4465,-0.6233,0.0,0.0,0.0,0.0,0.0,0.0,0.0,0.0,0.0,0.0,0.0,0.0,0.0,0.0,0.0,0.0,0.0,0.0,0.0,0.0,0.0,0.0,0.0,0.0,0.0,0.0,0.0,0.0,0.0,3.5633,3.622,3.6514,3.6879,3.7344,3.7271,3.6977,3.6506,3.8214,3.8337,3.6907,3.674,3.5903,3.3914,1.5384,0.4879,0.026,-1.7752,-2.732,-3.0372,-3.2503,-3.3524,-3.3724,-3.3908,-3.3824,-3.377,-3.5057,-3.6449,-3.7807,0.0,0.0,0.0,0.0,0.0,0.5547,0.5951,0.5885,0.5821,0.0,0.0,0.0,0.542,0.517,0.4904,0.4629,0.4382,0.429,0.4214,0.3267,0.235,0.1587,0.1681,0.1653,0.1546,0.1599,0.162,0.1661,0.1674,0.1844,0.2074,0.2074,0.2242,0.2467,0.2523,0.2487,0.2324,0.2376,0.0,0.0,0.0495,-0.0329,0.0,0.0,0.0,0.0,0.0,-0.2846,0.0,0.0,-0.3756,-0.2776,0.0,0.0,-0.2205,-0.4149,-0.5726,-0.7335,-0.953,0.0,0.0,0.0,0.0,0.0,0.0,0.0,0.0,0.0,0.0,0.0,0.0,0.0,0.0,0.0,0.0,0.0,0.0,0.0,0.0,0.0,0.0,0.0,0.0,0.0,0.0,0.0,3.377,3.4759,3.4997,3.566,3.6042,3.6088,3.5566,3.5785,3.687,3.5889,3.5875,3.6821,3.6336,3.4227,3.017,1.3451,0.2067,-0.5345,-2.2206,-3.1638,-3.4984,-3.3258,-3.3048,-3.3808,-3.3272,-3.3611,-3.4394,-3.4554,-3.6311,-3.8829,0.0,0.0,0.5923,0.6286,0.6102,0.6017,0.6284,0.6155,0.5981,0.0,0.0,0.0,0.5693,0.5456,0.5222,0.4952,0.4805,0.4796,0.4845,0.3407,0.2403,0.2015,0.1811,0.1707,0.1758,0.1657,0.1685,0.1797,0.1868,0.1976,0.2184,0.2352,0.2502,0.2632,0.2703,0.2685,0.2537,0.0,0.0,0.0,0.0744,0.0,0.0,-0.1591,-0.2621,0.0,0.0,0.0,-0.3996,-0.5485,-0.5148,0.0,0.0,0.0,0.0,0.0,-0.7405,-0.9031,-1.0557,-1.2351,-1.3987,0.0,0.0,0.0,0.0,0.0,0.0,0.0,0.0,0.0,0.0,0.0,0.0,0.0,0.0,0.0,0.0,0.0,0.0,0.0,0.0,0.0,0.0,0.0,0.0,3.0896,3.2555,3.3678,3.4194,3.479,3.4994,3.4655,3.4101,3.4539,3.599,3.4914,3.4912,3.6058,3.3235,2.968,2.5039,0.7238,-0.4009,-1.0437,-2.6312,-3.4617,-3.6767,-3.5094,-3.4568,-3.4795,-3.4688,-3.4844,-3.5182,-3.6197,-3.7801,-3.9661,0.0,0.0,0.6162,0.6203,0.6346,0.6396,0.628,0.6137,0.5966,0.0,0.6195,0.6384,0.6078,0.6095,0.5823,0.5234,0.4945,0.4766,0.4763,0.2783,0.1924,0.2541,0.2038,0.1775,0.1852,0.1731,0.1714,0.1908,0.2089,0.2247,0.235,0.2623,0.2734,0.2639,0.2813,0.2798,0.2618,0.2729,0.0,0.2746,0.1125,0.0265,0.0,0.0,-0.1975,0.0,-0.3368,-0.3807,-0.4269,-0.659,-0.6855,0.0,0.0,0.0,0.0,0.0,-0.9327,-1.0892,-1.201,-1.3523,-1.4856,0.0,0.0,0.0,0.0,0.0,0.0,0.0,0.0,0.0,0.0,0.0,0.0,0.0,0.0,0.0,0.0,0.0,0.0,0.0,0.0,0.0,0.0,2.4755,2.6615,2.9356,3.1137,3.2661,3.3824,3.3756,3.3426,3.284,3.2425,3.2725,3.3793,3.3774,3.3839,3.3917,2.7851,2.2819,1.8134,-0.1418,-1.1861,-1.5338,-2.9848,-3.6313,-3.6644,-3.7214,-3.696,-3.6318,-3.7165,-3.6826,-3.6154,-3.879,-3.9988,-4.0473,0.5671,0.5787,0.5977,0.6287,0.6637,0.6784,0.6671,0.6715,0.6755,0.6897,0.7331,0.7383,0.6559,0.6593,0.6381,0.5795,0.5367,0.4898,0.4412,0.3612,0.3155,0.3161,0.2846,0.2718,0.2897,0.2723,0.2611,0.2516,0.2605,0.2814,0.3065,0.3255,0.347,0.3607,0.3627,0.3281,0.2684,0.0,0.0,0.1926,0.0817,0.0,-0.0197,-0.1926,-0.2937,-0.3639,-0.4572,-0.5541,-0.6684,0.0,-0.8684,-0.8723,0.0,0.0,0.0,0.0,0.0,0.0,0.0,0.0,0.0,0.0,0.0,0.0,0.0,0.0,0.0,0.0,0.0,0.0,0.0,0.0,0.0,0.0,0.0,0.0,0.0,0.0,0.0,0.0,0.0,0.0,0.0,2.3859,2.6193,2.6247,3.0055,3.2724,3.3673,3.1708,3.038,2.9956,2.8588,2.8238,2.8852,2.7135,2.6538,2.7156,2.0108,1.3595,0.7278,-0.8135,-1.7271,-2.1495,-3.192,-3.6457,-3.656,-3.6926,-3.7097,-3.7129,-3.7725,-3.7796,-3.7679,-3.8942,-4.0331,-4.1611,0.5574,0.5493,0.5518,0.5785,0.6162,0.6472,0.6572,0.6485,0.6537,0.7088,0.7502,0.7762,0.7909,0.734,0.6663,0.5896,0.5627,0.5211,0.4656,0.4123,0.3809,0.3722,0.3237,0.3139,0.3412,0.3251,0.3187,0.3209,0.3357,0.3516,0.3689,0.3825,0.392,0.3907,0.3509,0.314,0.2773,0.0,0.2303,0.1731,0.0759,0.0,-0.0829,-0.2502,-0.3553,-0.4314,-0.4924,-0.6064,-0.7628,-0.9509,-0.9858,0.0,0.0,-0.9839,-0.9298,0.0,-1.352,-1.4833,0.0,0.0,0.0,-1.6421,0.0,0.0,0.0,0.0,0.0,0.0,0.0,0.0,0.0,0.0,0.0,0.0,0.0,0.0,0.0,0.0,0.0,0.0,0.0,0.0,0.0,2.1683,2.4657,2.8963,3.1842,3.3413,3.3475,3.0457,2.7828,2.5871,2.4777,2.4243,2.4299,2.1547,1.9906,1.919,1.0836,0.3959,-0.1756,-1.4944,-2.2573,-2.5666,-3.3077,-3.6894,-3.7798,-3.7171,-3.7514,-3.8438,-3.8948,-3.8611,-3.8035,-4.0215,-4.1466,-4.213,0.5462,0.5148,0.5046,0.5303,0.5793,0.63,0.6548,0.6496,0.6754,0.756,0.8045,0.8458,0.887,0.7527,0.6286,0.5644,0.5005,0.4663,0.4645,0.4133,0.3965,0.4256,0.3738,0.363,0.3946,0.382,0.384,0.3906,0.4111,0.4254,0.4222,0.4271,0.4175,0.3846,0.2997,0.2683,0.0,0.0,0.0,0.1461,0.0,-0.0267,-0.1236,-0.2546,-0.3512,-0.4304,-0.5235,-0.6529,-0.8162,-1.073,0.0,-1.0193,-1.2354,-1.1414,0.0,0.0,0.0,0.0,0.0,0.0,0.0,0.0,0.0,-1.7078,0.0,0.0,0.0,0.0,0.0,0.0,0.0,0.0,0.0,0.0,0.0,0.0,0.0,0.0,0.0,0.0,0.0,0.0,0.0,1.5301,1.7397,3.0369,3.1788,3.1944,3.155,2.8248,2.4737,2.1246,1.9944,1.8921,1.8143,1.4671,1.1951,0.9796,0.0326,-0.6393,-1.0858,-2.2306,-2.8248,-2.9799,-3.4791,-3.7854,-3.9288,-3.7835,-3.813,-3.9527,-3.9769,-3.9082,-3.835,-4.1461,-4.2484,-4.247,0.5546,0.496,0.4734,0.5269,0.6479,0.7346,0.7374,0.8221,0.9056,0.9757,1.0595,1.0308,0.8175,0.5926,0.4603,0.4755,0.0,0.0,0.3566,0.3219,0.3505,0.4747,0.473,0.4891,0.5298,0.5136,0.4966,0.4761,0.473,0.4712,0.4692,0.4424,0.4172,0.3848,0.2197,0.0,0.0,0.0,0.0568,0.0,0.0176,-0.0127,0.0,-0.1485,-0.2269,-0.3184,-0.5832,-0.7761,-0.9242,0.0,-1.1701,-1.1677,0.0,-1.3153,0.0,0.0,0.0,0.0,0.0,0.0,0.0,0.0,-1.8069,0.0,0.0,0.0,0.0,0.0,0.0,0.0,0.0,0.0,0.0,0.0,0.0,0.0,0.0,0.0,0.0,0.0,0.0,0.0,0.0,0.0,-0.3326,2.2317,2.3869,2.4111,2.5056,2.2862,1.9882,1.6173,1.2472,0.9707,0.78,0.3474,0.0091,-0.2497,-1.1852,-1.8253,-2.2207,-3.0917,-3.5216,-3.594,-3.8715,-3.9999,-4.0131,-3.921,-3.9046,-3.9347,-3.8827,-3.8922,-3.9595,-4.134,-4.241,-4.3128,0.5434,0.5119,0.5027,0.5319,0.6013,0.7002,0.8483,0.9145,0.9369,0.9292,0.8789,0.8246,0.0,0.0,0.0,0.0,0.0,0.2706,0.0,0.0,0.3699,0.5281,0.5198,0.5216,0.5531,0.5354,0.5228,0.5127,0.5125,0.5079,0.4888,0.4666,0.4448,0.4147,0.1877,0.0,0.1713,0.0,0.0,0.0,0.0,0.0,0.0,-0.2149,-0.3238,-0.4568,-0.7077,-0.8388,-0.9188,0.0,-1.1717,0.0,0.0,0.0,0.0,0.0,0.0,0.0,0.0,0.0,0.0,0.0,0.0,0.0,-1.8743,0.0,-1.7702,0.0,0.0,0.0,0.0,0.0,0.0,0.0,0.0,0.0,0.0,0.0,0.0,0.0,0.0,0.0,0.0,0.0,0.0,0.0,0.0,1.7243,2.0017,1.583,1.0686,0.4922,0.7685,0.7483,0.3648,-0.3926,-0.9384,-1.285,-2.1251,-2.7398,-3.154,-3.6364,-3.8824,-3.9341,-4.0355,-4.1181,-4.1636,-3.9603,-3.9554,-4.06,-3.9319,-3.9013,-3.9527,-4.1369,-4.2405,-4.2965,0.5538,0.5513,0.5456,0.5567,0.6076,0.712,0.9124,0.9298,0.9045,0.0,0.0,0.0,0.7845,0.6528,0.0,0.0,0.2788,0.2532,0.0,0.0,0.3406,0.5033,0.5367,0.0,0.4972,0.5461,0.5585,0.5377,0.5515,0.5405,0.5061,0.4776,0.4494,0.4143,0.1698,0.0781,0.0945,0.0,0.0,-0.1186,-0.0429,-0.1346,-0.3143,-0.3394,-0.4482,-0.6133,-0.7835,-0.8738,-0.9503,-1.176,-1.2124,0.0,-1.5129,0.0,0.0,0.0,0.0,0.0,-1.9532,0.0,0.0,0.0,0.0,0.0,0.0,0.0,0.0,0.0,0.0,0.0,0.0,0.0,0.0,0.0,0.0,0.0,0.0,0.0,0.0,0.0,0.0,0.0,0.0,0.0,0.0,0.0,0.0,0.0,1.1927,1.1113,0.5542,-0.5127,-0.3012,-0.2277,-0.3352,-1.1537,-1.7372,-2.0762,-2.8527,-3.4195,-3.7812,-3.9907,-4.1218,-4.1866,-4.1815,-4.2283,-4.2886,-4.0582,-4.0528,-4.1775,-4.0284,-3.9771,-4.0054,-4.176,-4.2551,-4.2973,0.605,0.5937,0.589,0.6199,0.7225,0.8296,0.8988,0.8448,0.0,0.0,0.0,0.0,0.0,0.0,0.0,0.0,0.0,-0.0763,0.2178,0.0,0.2085,0.0,0.0,0.5333,0.0,0.5725,0.6505,0.5599,0.5862,0.5749,0.5264,0.47,0.4145,0.3547,0.1774,0.0624,0.0,-0.1114,-0.184,-0.2297,-0.2657,-0.4381,-0.664,0.0,-0.5424,-0.7047,-0.762,0.0,0.0,-1.2803,-1.3344,0.0,0.0,0.0,0.0,0.0,0.0,0.0,0.0,0.0,0.0,-1.0575,0.0,0.0,0.0,0.0,-2.0458,0.0,0.0,0.0,0.0,0.0,0.0,0.0,0.0,0.0,0.0,0.0,0.0,0.0,0.0,0.0,0.0,0.0,0.0,0.0,0.0,0.0,-0.1194,1.0477,0.8102,-1.1294,-2.3646,-2.5577,-1.6477,-2.0834,-2.3867,-2.5588,-3.3363,-3.8068,-3.9946,-4.1572,-4.2869,-4.3814,-4.3594,-4.3511,-4.3424,-4.2807,-4.2538,-4.24,-4.1625,-4.1489,-4.181,-4.2574,-4.3035,-4.3412,0.6794,0.7278,0.758,0.7285,0.7764,0.8394,0.891,0.916,0.0,0.0,0.0,0.0,0.0,0.0,0.2188,0.0,0.0,-0.0086,0.2165,0.1637,0.0,0.0,0.0,0.523,0.0,0.0,0.6428,0.5396,0.5867,0.5752,0.5079,0.4633,0.4277,0.3967,0.0,0.0148,0.0,0.0,0.0,0.0,0.0,-0.6538,-0.8201,0.0,0.0,-0.8871,-0.8977,-1.0103,0.0,-1.2289,-1.3852,-1.5891,-1.7839,-1.8648,-1.8875,-1.8748,-1.8707,0.0,0.0,0.0,-2.222,-1.8677,0.0,0.0,0.0,0.0,0.0,0.0,0.0,0.0,0.0,0.0,0.0,0.0,0.0,0.0,0.0,0.0,0.0,0.0,0.0,0.0,0.0,0.0,0.0,0.0,0.0,0.0,0.0,-0.1382,-0.3444,-2.1555,-3.0302,-3.3779,-3.1806,-3.5192,-3.7221,-3.7829,-3.9448,-4.0907,-4.225,-4.2538,-4.2868,-4.3195,-4.3286,-4.3286,-4.3159,-4.2894,-4.3033,-4.3423,-4.2739,-4.2827,-4.3351,-4.2973,-4.2909,-4.3137,0.767,0.8296,0.8732,0.8196,0.8485,0.8931,0.0,0.0,0.0,0.0,0.6091,0.0,0.287,0.0,0.1718,0.0,-0.0274,0.0088,0.277,0.1418,0.0,0.2903,0.3934,0.0,0.0,0.0,0.5675,0.4781,0.582,0.6017,0.5385,0.4708,0.4277,0.3995,0.0,0.0243,-0.1971,0.0,-0.4252,0.0,0.0,-0.8751,0.0,0.0,-0.9549,-1.0126,0.0,-1.1017,-1.2322,-1.3052,-1.4922,-1.7143,-1.8879,-1.8863,-1.8154,-1.7674,-1.7523,-1.7005,-1.4649,-1.6964,0.0,-1.9612,-2.0921,0.0,-2.0812,0.0,0.0,0.0,0.0,0.0,0.0,0.0,0.0,0.0,0.0,0.0,0.0,0.0,0.0,0.0,0.0,0.0,0.0,0.0,0.0,0.0,0.0,0.0,0.0,0.0,-2.0717,-3.1953,-3.6224,-3.8811,-3.978,-4.2067,-4.3558,-4.4334,-4.3306,-4.313,-4.3697,-4.3508,-4.3334,-4.3266,-4.3373,-4.3391,-4.3248,-4.3254,-4.3522,-4.3918,-4.3708,-4.3877,-4.4184,-4.3543,-4.3297,-4.3341,0.8625,0.9106,0.9375,0.0,0.9402,0.0,0.0,0.0,0.9205,0.0,0.6706,0.6162,0.289,0.1948,0.1655,0.1839,-0.067,0.0,0.3658,0.0926,0.0,0.0,0.145,0.0078,-0.1956,0.0,0.0,0.0,0.0,0.0,0.6094,0.4989,0.4145,0.3606,0.3363,0.0,-0.3067,-0.2626,-0.4552,-0.8104,-0.9685,-1.0924,-1.1905,-1.1773,-1.1347,-1.0911,-1.0705,-1.158,-1.3124,-1.5032,-1.6288,-1.7392,-1.911,-1.9216,-1.8417,-1.7163,-1.6773,-1.639,-1.4572,-1.2813,-1.1842,-1.3549,0.0,0.0,0.0,0.0,-1.6563,0.0,0.0,0.0,0.0,0.0,0.0,0.0,0.0,0.0,0.0,0.0,0.0,0.0,0.0,0.0,0.0,0.0,0.0,0.0,0.0,0.0,0.0,0.0,0.0,-4.1764,-4.1702,-4.1481,-4.0942,-4.1907,-4.3225,-4.491,-4.4899,-4.4711,-4.4349,-4.4449,-4.4335,-4.4017,-4.3942,-4.3846,-4.3758,-4.403,-4.4067,-4.3992,-4.4505,-4.456,-4.4364,-4.424,-4.4121,-4.4005,0.9218,1.0128,1.0934,0.0,1.0543,1.0593,0.0,0.0,0.0,0.0,0.5363,0.3753,-0.0284,-0.0976,-0.0986,-0.0986,-0.1792,0.0,0.0,0.0,0.0,-0.0595,0.0319,-0.0157,-0.2132,0.2594,0.0,0.4047,0.0,0.0,0.6356,0.5466,0.4659,0.3948,0.0,0.0,-0.1964,-0.3319,-0.6835,-1.1494,-1.1616,-1.2658,0.0,0.0,-1.1825,-1.2714,-1.1773,-1.251,-1.4112,-1.5094,-1.6429,-1.7627,-1.8244,-1.8646,-1.8698,-1.7904,-1.7638,-1.7131,-1.4645,-1.5103,-1.553,-1.2603,-1.5447,-1.8253,0.0,0.0,0.0,0.0,0.0,0.0,0.0,0.0,0.0,0.0,0.0,0.0,0.0,0.0,0.0,0.0,0.0,0.0,0.0,0.0,0.0,0.0,0.0,0.0,0.0,0.0,0.0,-4.4015,-4.36,-4.3701,-4.4355,-4.566,-4.5979,-4.5275,-4.5864,-4.5696,-4.4905,-4.4682,-4.4568,-4.4497,-4.4261,-4.4223,-4.4364,-4.4439,-4.4532,-4.4648,-4.4685,-4.4532,-4.424,-4.4192,-4.417,-4.4135,1.0287,0.0,0.0,1.2163,0.0,0.0,1.0789,0.0,0.0,0.6234,0.5125,0.0,0.0191,-0.1092,-0.1718,-0.1314,-0.1616,0.0,0.0,0.0,0.0,-0.0605,-0.1119,-0.1981,-0.293,0.0308,0.0,0.3501,0.0,0.0,0.6834,0.5765,0.4798,0.3887,0.0,0.1163,0.0,-0.5001,-0.8524,-1.2062,-1.2366,0.0,0.0,-1.2408,-1.2393,-1.3087,-1.2602,-1.3281,-1.4538,-1.5613,-1.6617,-1.7538,-1.8049,-1.8368,-1.8519,-1.8322,-1.8189,-1.7315,-1.4073,-1.4316,-1.5124,-1.3549,-1.4732,-1.6131,-1.5525,-1.5339,-1.5496,0.0,0.0,0.0,0.0,0.0,0.0,0.0,0.0,0.0,0.0,0.0,0.0,0.0,0.0,0.0,0.0,0.0,0.0,0.0,0.0,0.0,0.0,0.0,0.0,-4.4863,-4.638,-4.7468,-4.8082,-4.8854,-4.8411,-4.6759,-4.7019,-4.6743,-4.6041,-4.5526,-4.5331,-4.5331,-4.4624,-4.4438,-4.4584,-4.4667,-4.4613,-4.4495,-4.4486,-4.443,-4.4374,-4.443,-4.4277,-4.4073,1.1505,0.0,0.0,0.0,0.0,0.0,0.0,1.0678,0.0,0.6059,0.0,0.4095,0.2019,-0.0195,-0.1212,-0.0606,0.0,-0.0294,0.1905,-0.0775,-0.163,0.017,-0.2698,-0.4292,-0.4041,-0.2804,0.0,0.0,0.0,0.0,0.7304,0.6039,0.0,0.0,0.0,0.0,0.0,-0.7012,-0.9807,0.0,-1.248,-1.2886,-1.2871,-1.2981,-1.2958,-1.2996,-1.3522,-1.4041,-1.481,-1.6147,-1.6894,-1.7302,-1.7951,-1.8031,-1.787,-1.8175,-1.7968,-1.6893,-1.3461,-1.2593,-1.3138,-1.5177,-1.5886,-1.6468,-1.808,-1.7021,-1.6224,-1.8056,-1.6769,-1.6648,0.0,0.0,0.0,0.0,0.0,0.0,0.0,0.0,0.0,0.0,0.0,0.0,0.0,0.0,0.0,0.0,0.0,0.0,0.0,0.0,0.0,0.0,-4.9324,0.0,-4.712,0.0,-5.035,-4.8797,-4.8345,-4.7819,-4.7214,-4.6548,-4.6193,-4.6049,-4.4983,-4.4602,-4.4685,-4.4789,-4.4541,-4.414,-4.424,-4.4402,-4.4632,-4.4685,-4.4393,-4.3992,0.0,0.0,0.0,0.0,0.0,1.01,0.8716,0.7825,0.6335,0.365,0.3361,0.2301,-0.0591,-0.0903,-0.1111,-0.1314,-0.1313,0.0,0.0,0.0,0.0,-0.2612,-0.4039,-0.4767,-0.4578,-0.314,-0.0934,0.0,0.0,0.0,0.7438,0.6563,0.0,0.0,0.0,0.0,-0.4896,-0.7941,0.0,-1.2535,-1.2487,-1.3209,-1.4306,-1.3307,-1.3444,-1.4316,-1.4885,-1.5213,-1.5538,-1.6221,-1.6812,-1.731,-1.7057,-1.6886,-1.6585,-1.6236,-1.587,-1.5208,-1.3923,-1.3989,-1.4544,-1.5154,-1.6275,-1.7122,-1.6843,-1.5981,-1.5634,-1.6899,-1.7887,-1.8261,-1.7217,0.0,0.0,0.0,0.0,0.0,0.0,0.0,0.0,0.0,0.0,0.0,0.0,0.0,0.0,0.0,0.0,0.0,0.0,0.0,0.0,0.0,0.0,0.0,0.0,0.0,-5.0969,-5.0384,-5.0028,-4.8821,-4.6877,-4.6642,-4.616,-4.5512,-4.5029,-4.4943,-4.5061,-4.4943,-4.4821,-4.4726,-4.464,-4.464,-4.4667,-4.4712,-4.4578,-4.4383,0.0,0.0,0.0,0.0,0.0,0.0,0.0,0.5253,0.0,0.3443,0.3257,0.2494,0.0764,-0.0099,-0.0707,-0.1111,-0.0801,-0.07,-0.101,-0.1487,-0.2138,-0.2955,-0.3806,0.0,-0.4839,-0.4359,-0.217,0.1874,0.0,0.4284,0.7352,0.6475,0.5293,0.3829,0.0,-0.2331,0.0,0.0,0.0,-1.1279,-1.1845,-1.2742,-1.36,-1.3373,-1.3892,-1.4882,-1.526,-1.5726,-1.6296,-1.664,-1.6894,-1.7066,-1.7302,-1.6766,-1.5848,-1.5355,-1.5091,-1.4611,-1.3153,-1.3577,-1.4426,-1.4421,-1.5316,-1.6169,-1.6177,-1.5643,-1.5511,-1.6774,-1.7273,-1.7928,-1.9098,-1.7643,0.0,0.0,0.0,0.0,0.0,0.0,0.0,0.0,0.0,0.0,0.0,0.0,0.0,0.0,0.0,0.0,0.0,0.0,0.0,0.0,0.0,0.0,0.0,0.0,0.0,-5.0635,-5.0582,-4.964,-4.7926,-4.7444,-4.6753,-4.5929,-4.5204,-4.4967,-4.508,-4.4846,-4.4821,-4.4919,-4.4738,-4.4685,-4.4764,-4.4712,-4.456,-4.4345,0.0,1.6142,0.0,0.0,1.0288,0.0,0.5994,0.3767,0.2553,0.3192,0.307,0.2716,0.2144,0.0783,-0.0202,-0.0606,-0.0199,-0.0099,-0.0505,-0.0978,-0.1723,-0.2477,-0.3365,-0.412,-0.4743,-0.5453,-0.3506,0.0,0.0,0.0,0.0,0.6029,0.4596,0.0,0.0,0.0,0.0,0.0,-0.9441,-1.0365,-1.136,-1.219,-1.2836,-1.3527,-1.4358,-1.5155,-1.5545,-1.6147,-1.6894,-1.7057,-1.7057,-1.6976,-1.7627,-1.6726,-1.545,-1.4922,-1.4523,-1.3945,-1.2446,-1.2903,-1.376,-1.3829,-1.4515,-1.5372,-1.5964,-1.5856,-1.5971,-1.7145,-1.6902,-1.7956,-2.2536,-2.0735,0.0,0.0,0.0,0.0,0.0,0.0,0.0,0.0,0.0,0.0,0.0,0.0,0.0,0.0,0.0,0.0,0.0,0.0,0.0,0.0,0.0,-5.1289,-5.1327,0.0,-4.2567,0.0,-5.0706,-5.0067,-4.877,-4.8082,-4.7296,-4.6428,-4.5347,-4.4895,-4.4919,-4.4685,-4.4738,-4.4919,-4.4685,-4.4659,-4.4789,-4.4667,-4.4439,-4.4221,0.0,0.0,0.0,0.0,0.0,0.0,0.6869,0.445,0.245,0.1057,0.166,0.163,0.01,0.0604,0.0707,0.0,0.0,-0.0202,-0.0707,-0.1386,-0.1942,-0.2195,-0.3552,-0.4209,-0.403,-0.5366,-0.4683,0.0,0.0,0.0,0.0,0.5176,0.3527,0.0,0.0,0.0,0.0,-0.9113,-1.036,-1.2048,-1.1696,-1.2173,-1.3213,-1.3918,-1.4705,-1.5418,-1.6293,-1.6894,-1.731,-1.7392,-1.7392,-1.731,-1.7221,-1.6314,-1.5238,-1.468,-1.3529,-1.2472,-1.2439,-1.2891,-1.3487,-1.419,-1.5288,-1.6258,-1.6455,-1.6731,-1.72,-1.7867,-1.8495,-2.0374,-2.4991,-2.7928,-2.5528,0.0,0.0,0.0,0.0,0.0,0.0,0.0,0.0,0.0,0.0,0.0,0.0,0.0,0.0,0.0,0.0,0.0,0.0,0.0,0.0,-5.1277,-5.138,-5.0199,0.0,-5.0947,-5.0734,-4.974,-4.8084,-4.7818,-4.7228,-4.6359,-4.5274,-4.4796,-4.4796,-4.4578,-4.4632,-4.4815,-4.4578,-4.4578,-4.4667,-4.4421,-4.4336,-4.4231,0.0,0.0,0.0,0.0,0.0,0.0,0.0,0.4657,0.35,0.2099,0.2166,0.1628,-0.0202,0.0303,0.0303,-0.0606,-0.0396,-0.0296,-0.0504,-0.1248,-0.1967,-0.2854,-0.3784,-0.4604,-0.5364,-0.5988,-0.5312,0.0,0.0,0.0,0.0,0.0,0.0,0.0,0.0,-0.7752,-0.9362,-0.9839,-1.0506,-1.1218,-1.1272,-1.1992,-1.3134,-1.3999,-1.4887,-1.5896,-1.6445,-1.6894,-1.7221,-1.7392,-1.7554,-1.7708,-1.7188,-1.6069,-1.4855,-1.4993,-1.3845,-1.2694,-1.285,-1.3657,-1.4358,-1.4266,-1.4914,-1.5682,-1.6345,-1.6407,-1.6637,-1.7804,-1.8684,-2.1,-2.6578,-2.9363,-2.89,0.0,0.0,0.0,0.0,0.0,0.0,0.0,0.0,0.0,0.0,0.0,0.0,0.0,0.0,0.0,0.0,0.0,0.0,-2.7617,0.0,-3.6207,-5.1132,-5.12,-5.1083,-5.0925,-5.0271,-4.924,-4.7909,-4.7137,-4.6239,-4.5255,-4.4863,-4.4605,-4.4496,-4.4551,-4.4532,-4.4495,-4.4496,-4.4449,-4.4383,-4.4221,-4.398,-4.3675,1.0114,0.0,1.0641,0.0,0.7955,0.725,0.5293,0.4863,0.4254,0.3225,0.287,0.2132,0.0404,0.0505,0.0404,-0.0404,-0.0394,-0.0294,-0.05,-0.1325,-0.2305,-0.3296,-0.4104,0.0,-0.6192,-0.6458,-0.609,-0.5063,-0.2636,0.0,0.0,0.0112,-0.215,0.0,-0.7956,-0.919,-1.0149,-1.0353,-1.0674,-1.1136,-1.1409,-1.2189,-1.326,-1.4218,-1.5129,-1.5997,-1.6492,-1.6894,-1.7131,-1.7383,-1.756,-1.7476,-1.7066,-1.5888,-1.4643,-1.4881,-1.3954,-1.2962,-1.3207,-1.3947,-1.4696,-1.4503,-1.4816,-1.5544,-1.6677,-1.6934,-1.7242,-1.8533,-1.9989,-2.2603,-2.7639,-2.9508,-3.0769,-3.2089,0.0,0.0,0.0,0.0,0.0,0.0,0.0,0.0,0.0,0.0,0.0,0.0,0.0,0.0,0.0,0.0,0.0,0.0,0.0,0.0,0.0,-5.0922,-5.0688,-5.051,-4.9539,-4.851,-4.7442,-4.6563,-4.5526,-4.4468,-4.4795,-4.4674,-4.4237,-4.4393,-4.4402,-4.425,-4.4335,-4.4277,-4.4121,-4.4079,-4.3795,-4.3426,0.8914,0.974,0.9765,0.6032,0.6273,0.6624,0.5744,0.513,0.4421,0.3539,0.3625,0.3192,0.1721,0.1617,0.1516,0.1212,0.0404,-0.02,-0.0688,-0.2022,-0.3018,0.0,0.0,-0.5489,-0.5703,-0.6655,-0.7183,-0.7432,0.0,0.0,-0.4821,-0.3895,-0.4517,-0.6506,-0.9146,-1.0666,-1.1295,-1.0571,-1.1106,-1.2533,-1.2374,-1.2866,-1.3811,-1.4712,-1.5242,-1.556,-1.6402,-1.6894,-1.7131,-1.7538,-1.7216,-1.6659,-1.6676,-1.5751,-1.4509,-1.416,-1.3561,-1.3088,-1.329,-1.3539,-1.4022,-1.5141,-1.5553,-1.6131,-1.7666,-1.8885,-1.9947,-2.0477,-2.3082,-2.5914,-2.8153,-2.9147,-3.1108,-3.5673,0.0,0.0,0.0,0.0,0.0,0.0,-1.6576,-1.6451,-3.1594,0.0,0.0,0.0,0.0,0.0,0.0,0.0,0.0,-4.5168,-3.7083,0.0,-5.1172,-5.025,-4.9676,-4.9616,-4.8547,-4.7451,-4.6415,-4.619,-4.5458,-4.4374,-4.5359,-4.5123,-4.3986,-4.4151,-4.4181,-4.4109,-4.4017,-4.4005,-4.4005,-4.3929,-4.3851,-4.3738,0.523,0.6024,0.6549,0.578,0.6214,0.6546,0.6312,0.5669,0.4618,0.311,0.2972,0.2538,0.0908,0.1111,0.1212,0.0,0.02,-0.0298,0.0,-0.1915,-0.3275,-0.4047,-0.5373,-0.641,-0.7152,-0.7569,-0.8001,-0.8283,0.0,0.0,0.0,-0.4936,-0.6656,-0.9731,-0.9925,-1.0595,-1.1484,-1.0577,-1.086,-1.1948,-1.1799,-1.2552,-1.3797,-1.4309,-1.5136,-1.5914,-1.6319,-1.6558,-1.664,-1.6804,-1.5917,-1.4889,-1.5209,-1.486,-1.4366,-1.4678,-1.4451,-1.4268,-1.4832,-1.5248,-1.589,-1.7276,-1.7697,-1.8326,-2.0604,-2.2752,-2.4287,-2.4539,-2.748,-3.051,-3.2246,-3.2305,-3.3013,-3.5739,-3.6432,0.0,0.0,0.0,0.0,0.0,0.0,-2.2383,0.0,-4.1618,0.0,0.0,0.0,0.0,0.0,0.0,0.0,0.0,-4.5273,0.0,-5.0985,-4.9912,-4.9384,-4.9448,-4.7913,-4.6506,-4.5299,-4.4944,-4.457,-4.417,-4.4215,-4.4087,-4.392,-4.4536,-4.4475,-4.4029,-4.4718,-4.4556,-4.3929,-4.3851,-4.3634,-4.3358,0.4033,0.4257,0.4702,0.626,0.6097,0.5948,0.6386,0.5813,0.4746,0.2829,0.2784,0.2237,0.0606,0.0605,0.0,0.0808,0.0,-0.0495,-0.0493,-0.2098,-0.3637,-0.4831,-0.6065,-0.7112,-0.819,0.0,0.0,-0.8937,-0.7099,-0.6293,-0.651,-0.7279,-0.9139,-1.1755,-1.0756,-1.0732,-1.141,-1.0582,-1.0737,-1.1599,-1.1942,-1.266,-1.3628,-1.4391,-1.4969,-1.5465,-1.5736,-1.5932,-1.6041,-1.6075,-1.5323,-1.449,-1.5381,-1.519,-1.4627,-1.4684,-1.5108,-1.5651,-1.6095,-1.6826,-1.7813,-1.9016,-1.9558,-2.0492,-2.3202,-2.4901,-2.6404,-2.8119,-3.0659,-3.2973,-3.4171,-3.4004,-3.4193,-3.5548,-3.7203,-3.7936,-3.7066,0.0,0.0,0.0,0.0,0.0,0.0,-3.8972,0.0,0.0,0.0,0.0,0.0,0.0,0.0,-4.7592,-4.9692,0.0,-4.9823,-4.9328,-4.8797,-4.8241,-4.6593,-4.5355,-4.4568,-4.4114,-4.3855,-4.3744,-4.3545,-4.3679,-4.4094,-4.4398,-4.4461,-4.4378,-4.4697,-4.4374,-4.3781,-4.3818,-4.36,-4.3232,0.5365,0.4362,0.425,0.0,0.5594,0.0,0.5926,0.5518,0.4452,0.2669,0.2728,0.2267,0.0405,0.0,0.0101,0.0606,0.0,0.0,0.0,-0.2761,-0.4204,-0.5752,-0.6707,-0.777,-0.898,-0.9141,-0.9289,-0.9322,-0.9322,-0.9246,-0.9264,-1.0305,-1.1455,-1.2529,-1.1379,-1.1,-1.1197,-1.0473,-1.0701,-1.1642,-1.2504,-1.3022,-1.3319,-1.4612,-1.475,-1.436,-1.4697,-1.505,-1.5433,-1.5529,-1.527,-1.5256,-1.6569,-1.6296,-1.5294,-1.4531,-1.5665,-1.7085,-1.7154,-1.8236,-1.963,-2.0382,-2.1301,-2.2818,-2.5551,-2.5843,-2.676,-3.1042,-3.2694,-3.3559,-3.4358,-3.4636,-3.4925,-3.5368,-3.6172,-3.5432,-3.181,0.0,0.0,0.0,0.0,0.0,0.0,-3.1328,-3.6425,0.0,0.0,0.0,0.0,0.0,-4.6657,-5.0587,-5.0816,-4.9886,-4.78,-4.8472,-4.7943,-4.626,-4.4787,-4.4151,-4.4192,-4.3623,-4.332,-4.3232,-4.332,-4.3776,-4.44,-4.397,-4.4269,-4.492,-4.4243,-4.3812,-4.3631,-4.3781,-4.3649,-4.3303,0.0,0.0,0.587,0.5027,0.3353,0.2459,0.3689,0.3087,0.2061,0.0533,0.1258,0.1133,-0.0911,-0.121,-0.1209,-0.1311,-0.2115,-0.2806,-0.3074,-0.4624,-0.6131,-0.7283,-0.8057,-0.8873,-0.9702,-0.9979,-0.979,-0.9409,-0.9236,-0.9316,-0.9559,-1.0031,-1.0742,-1.1599,-1.0763,-1.0653,-1.1051,-1.0509,-1.0737,-1.142,-1.1522,-1.2184,-1.3108,-1.3593,-1.4223,-1.4968,-1.5136,-1.5284,-1.5387,-1.5238,-1.5043,-1.4928,-1.5926,-1.6553,-1.6818,-1.676,-1.7343,-1.8054,-1.8574,-1.9729,-2.121,-2.2907,-2.5212,-2.736,-2.8299,-2.888,-3.0006,-3.2443,-3.3403,-3.4097,-3.509,-3.7177,-3.7919,-3.545,-3.7235,-3.7827,-3.4519,-3.4156,0.0,0.0,-3.281,-3.6558,-3.9908,-3.6671,-3.728,0.0,0.0,0.0,0.0,-4.3426,-4.6455,-5.0572,-5.0621,-4.899,-4.5669,-4.7155,-4.6957,-4.5103,-4.4468,-4.4162,-4.4192,-4.3623,-4.3389,-4.341,-4.3304,-4.3431,-4.3846,-4.5068,-4.5004,-4.4225,-4.5226,-4.4823,-4.3597,-4.3582,-4.3461,-4.3303,0.7981,0.6874,0.5888,0.4585,0.3019,0.2124,0.2797,0.1984,0.0978,0.0108,0.0424,-0.0105,-0.1864,-0.2052,-0.2448,-0.3468,-0.3841,-0.4004,-0.4265,-0.5588,-0.6789,-0.7848,-0.8597,-0.9157,-0.9689,-0.9842,-0.9894,-0.9611,-0.9853,-1.0164,-1.0624,-1.0794,-1.1118,-1.1574,-1.0662,-1.0569,-1.0966,-1.0571,-1.0638,-1.1036,-1.1976,-1.2462,-1.2775,-1.3794,-1.4318,-1.4599,-1.4792,-1.4914,-1.5039,-1.4828,-1.4961,-1.5467,-1.6299,-1.7146,-1.7869,-1.8658,-1.9187,-1.9563,-2.0269,-2.14,-2.2948,-2.5174,-2.7335,-2.9098,-2.9732,-3.0758,-3.191,-3.293,-3.3951,-3.4698,-3.4942,-3.7156,-3.8531,-3.7439,-3.9289,-3.85,-3.1725,-2.9899,0.0,-2.9475,-3.5134,-4.0368,-4.3722,-4.1124,-4.0886,-4.4772,0.0,0.0,-4.4941,-4.4527,-4.5246,-4.7333,-4.7647,-4.671,-4.4545,-4.5457,-4.5386,-4.4393,-4.3992,-4.3823,-4.3873,-4.3336,-4.3142,-4.3232,-4.3142,-4.3634,-4.451,-4.5326,-4.5321,-4.4899,-4.5482,-4.4755,-4.3338,-4.3495,-4.3356,-4.3087,0.7904,0.6798,0.6024,0.5148,0.3467,0.2349,0.2352,0.1215,0.0328,0.0109,-0.0431,-0.1387,-0.266,-0.2939,-0.3738,-0.5583,-0.5602,-0.5506,-0.5501,-0.6255,-0.7172,-0.8352,-0.8808,-0.916,-0.9433,-0.9754,-0.9998,-1.0256,-1.0829,-1.1327,-1.1671,-1.1671,-1.1671,-1.1746,-1.0783,-1.0531,-1.0852,-1.0744,-1.0637,-1.0784,-1.2707,-1.2975,-1.2536,-1.424,-1.4624,-1.4151,-1.4214,-1.449,-1.4853,-1.4674,-1.5374,-1.646,-1.7294,-1.8077,-1.8963,-2.0297,-2.0947,-2.146,-2.195,-2.3146,-2.4882,-2.7162,-2.8542,-2.9549,-3.0532,-3.1742,-3.2736,-3.3208,-3.4265,-3.4936,-3.4325,-3.6009,-3.8117,-4.0132,-4.0671,-3.7653,-2.8399,0.0,-2.7983,-2.7089,-3.73,-4.4199,-4.3699,-4.4369,-4.482,-4.4863,-4.4884,-4.4908,0.0,-4.4519,-4.4016,-4.3511,-4.429,-4.4553,-4.428,-4.4016,-4.3974,-4.4159,-4.3729,-4.3574,-4.3663,-4.3195,-4.2973,-4.2957,-4.3087,-4.3962,-4.5315,-4.5234,-4.5413,-4.5748,-4.5371,-4.4356,-4.3105,-4.3373,-4.3232,-4.2882,1.2886,1.122,0.9145,0.5908,0.2791,0.0671,0.0448,-0.0783,-0.1556,-0.1095,-0.1851,-0.2591,-0.3298,-0.4656,-0.5874,-0.6816,-0.7817,-0.8153,-0.7598,-0.7949,-0.863,-0.9754,-0.9664,-0.9833,-1.0292,-1.0756,-1.1285,-1.1733,-1.1609,-1.1499,-1.1322,-1.1322,-1.1154,-1.0809,-1.0428,-1.0245,-1.0159,-1.0727,-1.0942,-1.1017,-1.1881,-1.2529,-1.2896,-1.3431,-1.4193,-1.4928,-1.4961,-1.5267,-1.574,-1.6092,-1.6637,-1.7423,-1.8482,-1.9555,-2.0584,-2.1563,-2.2746,-2.3537,-2.3085,-2.4735,-2.6976,-2.8438,-2.9419,-3.0216,-3.1259,-3.1591,-3.2403,-3.4756,-3.4288,-3.3393,-3.3465,-3.5657,-3.8489,-4.1469,-3.7686,-3.4143,-3.3564,0.0,-3.8898,-3.3972,-4.2374,-4.7462,-4.4618,-4.4681,-4.4987,-4.5213,-4.5204,-4.5128,-4.4937,-4.519,-4.4784,-4.3547,-4.487,-4.5444,-4.5133,-4.417,-4.4128,-4.4916,-4.4678,-4.4575,-4.4593,-4.4453,-4.3944,-4.316,-4.3532,-4.3796,-4.4091,-4.5534,-4.5364,-4.4332,-4.5365,-4.4783,-4.3305,-4.3087,-4.2957,-4.2844,1.3573,1.142,0.9315,0.7299,0.3583,0.0894,0.0672,-0.1791,-0.3351,-0.2439,-0.3647,-0.4841,-0.5347,-0.5732,-0.651,-0.8166,-0.8395,-0.8693,-0.9229,-0.9061,-0.926,-1.004,-0.9661,-0.9414,-0.9583,-1.0224,-1.0801,-1.1326,-1.1532,-1.1743,-1.1871,-1.1386,-1.0982,-1.0549,-1.0033,-0.9951,-1.0381,-1.0809,-1.1182,-1.159,-1.2524,-1.3027,-1.3272,-1.4027,-1.4727,-1.5347,-1.5347,-1.572,-1.6242,-1.6575,-1.6934,-1.7484,-1.8742,-1.9647,-2.05,-2.1762,-2.3367,-2.4765,-2.4904,-2.6367,-2.8176,-2.9147,-3.0241,-3.1158,-3.1763,-3.2455,-3.3468,-3.5023,-3.5674,-3.5931,-3.564,-3.7659,-3.9986,-4.1976,-3.1703,-2.4986,-2.9324,-3.7921,-4.3435,-4.25,-4.5126,-4.7074,-4.7191,-4.5811,-4.5771,-4.7837,-4.7015,-4.5938,-4.4853,-4.5439,-4.5463,-4.4772,-4.4736,-4.4879,-4.5239,-4.4184,-4.4325,-4.57,-4.5084,-4.5049,-4.5545,-4.5134,-4.4694,-4.4207,-4.4096,-4.4196,-4.4564,-4.5403,-4.5226,-4.4454,-4.5088,-4.4454,-4.3215,-4.3013,-4.29,-4.2804,1.3357,1.0925,0.8991,0.7856,0.4055,0.1007,0.045,-0.2465,-0.4362,-0.3583,-0.5029,-0.6364,-0.7027,-0.6621,-0.7161,-0.9328,-0.8781,-0.8932,-1.0426,-0.9879,-0.9803,-1.0294,-0.9767,-0.9503,-0.9588,-0.9999,-1.049,-1.0964,-1.1353,-1.1777,-1.2147,-1.1245,-1.0722,-1.0467,-0.9689,-0.9777,-1.0376,-1.0895,-1.1413,-1.2015,-1.3137,-1.36,-1.3743,-1.4684,-1.539,-1.5756,-1.5763,-1.6045,-1.6566,-1.6832,-1.7062,-1.7532,-1.8881,-1.9597,-2.0262,-2.1789,-2.379,-2.5768,-2.6494,-2.7775,-2.9123,-2.9922,-3.1057,-3.2015,-3.2259,-3.3353,-3.4514,-3.5255,-3.6829,-3.8109,-3.8023,-3.9846,-4.156,-4.2194,-2.8496,-2.0661,-2.8909,-3.5671,-4.1724,-4.7103,-4.661,-4.6807,-4.9262,-4.736,-4.7071,-4.9765,-4.874,-4.7325,-4.5763,-4.6382,-4.665,-4.627,-4.5008,-4.4609,-4.5097,-4.4269,-4.4644,-4.617,-4.5487,-4.5616,-4.641,-4.5797,-4.5333,-4.4998,-4.4383,-4.4433,-4.4888,-4.5087,-4.4953,-4.4589,-4.4704,-4.4089,-4.3123,-4.2995,-4.2862,-4.2706,1.3675,1.1599,0.937,0.5811,0.2843,0.0112,-0.2168,-0.339,-0.4139,-0.436,-0.5258,-0.6151,-0.703,-0.7584,-0.8468,-0.9979,-0.9727,-0.9887,-1.073,-1.0493,-1.0587,-1.1077,-1.1058,-1.1245,-1.1795,-1.1394,-1.146,-1.1965,-1.1538,-1.1343,-1.1375,-1.0651,-1.0207,-1.0038,-0.9689,-0.9602,-0.9777,-1.0809,-1.1413,-1.1843,-1.2796,-1.363,-1.4456,-1.4815,-1.5531,-1.6338,-1.608,-1.6371,-1.6911,-1.71,-1.7568,-1.8195,-1.9488,-2.0133,-2.0863,-2.2334,-2.4638,-2.6801,-2.7244,-2.8469,-2.9922,-3.1158,-3.1882,-3.2448,-3.2832,-3.3644,-3.4736,-3.6245,-3.6607,-3.7214,-3.9109,-4.125,-4.2661,-4.2362,-3.2511,-2.9193,-4.1417,-3.385,-3.1354,-4.2984,-4.688,-4.8837,-4.9418,-4.9284,-4.913,-4.9017,-4.9447,-4.9409,-4.8633,-4.8957,-4.8701,-4.7685,-4.6572,-4.5651,-4.4828,-4.4669,-4.511,-4.6118,-4.6163,-4.657,-4.7205,-4.6721,-4.5857,-4.4689,-4.423,-4.3947,-4.3952,-4.4586,-4.4457,-4.3937,-4.4416,-4.4017,-4.3178,-4.2975,-4.2786,-4.257,1.7284,1.405,1.0776,0.8221,0.4375,0.0797,-0.1739,-0.398,-0.5276,-0.4878,-0.6746,-0.7931,-0.7697,-0.8291,-0.9244,-1.0489,-1.005,-1.0285,-1.1507,-1.1292,-1.09,-1.0216,-1.0872,-1.0991,-1.0604,-1.0581,-1.0885,-1.1436,-1.1189,-1.1321,-1.1734,-1.1142,-1.0549,-0.9946,-0.9859,-0.9772,-0.9859,-1.0549,-1.1499,-1.2619,-1.2966,-1.3728,-1.4756,-1.4708,-1.5448,-1.6623,-1.672,-1.7032,-1.7497,-1.788,-1.798,-1.8087,-1.9355,-1.9729,-2.0175,-2.2315,-2.5041,-2.7383,-2.806,-2.9409,-3.0921,-3.2187,-3.2903,-3.3437,-3.4269,-3.5065,-3.6011,-3.7297,-3.7734,-3.8249,-3.917,-4.0617,-4.1818,-4.2247,-3.8752,-3.8619,-4.6169,-4.3315,-4.2095,-4.6506,-4.8346,-4.9239,-4.9133,-4.9121,-4.8209,-4.6015,-4.8234,-4.9596,-4.9527,-4.9558,-4.9321,-4.8809,-4.8357,-4.7653,-4.6669,-4.612,-4.6511,-4.7842,-4.7392,-4.763,-4.8375,-4.7675,-4.6838,-4.5904,-4.505,-4.4419,-4.3992,-4.4029,-4.3959,-4.3808,-4.3741,-4.3524,-4.3178,-4.3086,-4.2899,-4.2706,1.9463,1.5276,1.1388,0.8573,0.421,0.0232,-0.2239,-0.462,-0.6148,-0.6066,-0.7595,-0.8647,-0.8592,-0.8903,-0.9499,-1.0585,-1.0088,-1.0209,-1.1502,-1.159,-1.1165,-1.0036,-1.0569,-1.0557,-0.9933,-1.0405,-1.0751,-1.0972,-1.1144,-1.1494,-1.1937,-1.1494,-1.0982,-1.0376,-1.0463,-1.0289,-0.9946,-1.0722,-1.1499,-1.2277,-1.279,-1.3643,-1.4589,-1.4696,-1.5599,-1.6854,-1.7266,-1.7636,-1.7964,-1.8048,-1.7885,-1.7777,-1.9107,-2.0198,-2.1311,-2.325,-2.5848,-2.8311,-2.9229,-3.0693,-3.22,-3.3254,-3.4151,-3.4999,-3.6075,-3.6752,-3.7398,-3.8456,-3.8825,-3.9325,-4.047,-4.1508,-4.2154,-4.2087,-4.3246,-4.5328,-4.8622,-4.9333,-4.9396,-4.9114,-4.949,-4.9571,-4.9121,-4.8858,-4.7392,-4.4239,-4.6257,-4.829,-4.9833,-4.8646,-4.8359,-4.9377,-4.899,-4.8548,-4.8107,-4.7341,-4.7359,-4.8076,-4.7586,-4.7988,-4.9046,-4.7947,-4.7225,-4.689,-4.5937,-4.5087,-4.4313,-4.4066,-4.3836,-4.3584,-4.3322,-4.316,-4.3087,-4.3123,-4.3012,-4.2899,1.9334,1.5208,1.093,0.5823,0.1668,-0.1768,-0.4318,-0.5457,-0.6534,-0.7908,-0.7669,-0.7966,-0.961,-0.9124,-0.9076,-1.0068,-0.9682,-0.9807,-1.0717,-1.1292,-1.1395,-1.0905,-1.0405,-1.0215,-1.0282,-1.1014,-1.1276,-1.1008,-1.1497,-1.1668,-1.1699,-1.1424,-1.1327,-1.1322,-1.1757,-1.1241,-1.0033,-1.1413,-1.1327,-1.0467,-1.21,-1.32,-1.3986,-1.4913,-1.5853,-1.6832,-1.7804,-1.8072,-1.7979,-1.7446,-1.7296,-1.7509,-1.8838,-2.1738,-2.4914,-2.54,-2.7302,-2.9578,-3.0777,-3.2294,-3.3717,-3.4581,-3.5745,-3.7005,-3.82,-3.8623,-3.8921,-3.9745,-3.9624,-4.0256,-4.3427,-4.4547,-4.4306,-4.1996,-4.5385,-4.8583,-4.9362,-4.9482,-4.951,-4.9506,-4.9962,-5.0097,-4.956,-4.8768,-4.7146,-4.4274,-4.3714,-4.5394,-4.9661,-4.6177,-4.5677,-4.9252,-4.8156,-4.7939,-4.8768,-4.8263,-4.7457,-4.632,-4.66,-4.7522,-4.8919,-4.735,-4.6921,-4.735,-4.678,-4.5916,-4.4886,-4.4812,-4.4176,-4.3214,-4.3214,-4.3087,-4.292,-4.3123,-4.316,-4.3141,2.1639,1.832,1.4149,0.7123,0.3475,0.0,-0.4687,-0.5528,-0.5881,-0.6541,-0.726,-0.8084,-0.8813,-0.9022,-0.9692,-1.12,-1.0083,-0.9581,-1.022,-1.001,-0.9828,-0.9744,-1.0735,-1.0905,-1.0277,-1.0716,-1.104,-1.1246,-1.1316,-1.1749,-1.2369,-1.2534,-1.2272,-1.1843,-1.21,-1.1843,-1.1241,-1.1757,-1.2351,-1.3027,-1.33,-1.4256,-1.5441,-1.4977,-1.5786,-1.715,-1.7098,-1.7294,-1.7642,-1.8411,-1.8364,-1.8201,-1.9903,-2.1864,-2.4021,-2.6219,-2.8041,-2.9669,-3.0705,-3.2345,-3.4016,-3.4724,-3.5096,-3.5876,-3.8182,-3.964,-4.0638,-4.1359,-4.1606,-4.2042,-4.3244,-4.5326,-4.6621,-4.5744,-4.7124,-4.8434,-4.8809,-4.898,-4.9259,-4.9702,-5.009,-5.0241,-5.0085,-4.9654,-4.9136,-4.8461,-4.773,-4.7851,-4.9127,-4.8352,-4.7721,-4.7386,-4.8236,-4.8416,-4.7809,-4.8296,-4.834,-4.7831,-4.7974,-4.8338,-4.8855,-4.8438,-4.7961,-4.7387,-4.7161,-4.6188,-4.4762,-4.4565,-4.398,-4.3214,-4.3286,-4.3178,-4.2957,-4.3339,-4.3268,-4.2975,2.4859,2.0521,1.5627,0.9608,0.4938,0.0604,-0.3639,-0.5378,-0.6228,-0.6149,-0.7525,-0.8412,-0.8404,-0.8994,-0.9745,-1.0767,-0.9991,-0.9327,-0.9221,-0.8924,-0.8652,-0.8583,-0.9827,-1.0283,-0.9822,-1.0224,-1.0639,-1.1068,-1.1505,-1.2112,-1.2705,-1.3137,-1.3137,-1.2705,-1.2875,-1.2528,-1.1918,-1.2357,-1.301,-1.3769,-1.4095,-1.4864,-1.5711,-1.5462,-1.5879,-1.6594,-1.6825,-1.7101,-1.7454,-1.8685,-1.98,-2.079,-2.1504,-2.337,-2.5464,-2.707,-2.8712,-3.0215,-3.0899,-3.2786,-3.4809,-3.574,-3.6056,-3.6894,-3.9956,-4.1584,-4.2454,-4.2612,-4.2476,-4.2492,-4.3023,-4.4918,-4.6632,-4.7277,-4.7797,-4.8265,-4.8586,-4.8922,-4.937,-4.9835,-5.1413,-5.241,-5.2316,-5.1021,-5.0191,-5.0156,-4.9504,-4.9248,-4.9427,-4.9471,-4.8865,-4.7471,-4.7886,-4.8044,-4.7868,-4.8134,-4.812,-4.7881,-4.8243,-4.8643,-4.8993,-4.8371,-4.788,-4.7543,-4.7207,-4.6215,-4.4899,-4.4726,-4.4071,-4.3214,-4.3305,-4.3214,-4.305,-4.3322,-4.3358,-4.3268,2.863,2.2363,1.6362,1.2429,0.615,0.0611,-0.1838,-0.5018,-0.7017,-0.6684,-0.7941,-0.8782,-0.851,-0.8956,-0.9376,-0.9583,-0.9626,-0.9126,-0.8024,-0.7935,-0.7776,-0.7343,-0.8153,-0.8745,-0.9047,-0.9719,-1.0312,-1.0727,-1.1805,-1.2499,-1.279,-1.3392,-1.3737,-1.3737,-1.3737,-1.3294,-1.2498,-1.3215,-1.3433,-1.3517,-1.4642,-1.5212,-1.5554,-1.6438,-1.6362,-1.5945,-1.7439,-1.7991,-1.8226,-1.9523,-2.2119,-2.478,-2.3987,-2.6029,-2.8736,-2.8248,-2.9606,-3.1293,-3.1471,-3.3434,-3.5827,-3.7137,-3.7785,-3.8953,-4.2512,-4.3703,-4.3878,-4.3435,-4.2624,-4.2158,-4.2906,-4.3837,-4.5142,-4.7162,-4.7697,-4.8017,-4.8453,-4.9142,-4.9638,-4.9797,-5.3308,-5.5629,-5.542,-5.2537,-5.043,-4.9914,-4.9654,-4.974,-5.0209,-4.9757,-4.9295,-4.8915,-4.7444,-4.7303,-4.86,-4.7834,-4.7252,-4.6936,-4.7772,-4.849,-4.8995,-4.7448,-4.7074,-4.7648,-4.6999,-4.6134,-4.5148,-4.5001,-4.4267,-4.3214,-4.3214,-4.3214,-4.3178,-4.316,-4.3376,-4.3652,3.0342,2.6078,2.0528,1.2534,0.7968,0.3334,-0.3088,-0.4931,-0.6003,-0.7463,-0.7564,-0.8116,-0.9444,-0.8633,-0.8656,-1.0391,-0.9717,-0.8722,-0.7434,-0.7338,-0.7123,-0.6594,-0.7641,-0.8508,-0.8954,-0.9813,-1.0512,-1.1154,-1.1807,-1.2502,-1.3222,-1.3737,-1.3997,-1.3997,-1.3997,-1.3984,-1.3964,-1.399,-1.453,-1.5496,-1.5506,-1.6286,-1.7464,-1.8396,-1.8608,-1.8826,-2.1864,-2.3413,-2.4495,-2.7358,-2.8128,-2.7947,-2.8208,-3.0355,-3.2386,-3.0744,-3.2055,-3.3825,-3.3093,-3.4658,-3.6596,-3.6699,-3.6822,-3.7647,-4.0571,-4.1882,-4.2688,-4.3398,-4.378,-4.384,-4.3392,-4.3854,-4.4974,-4.6963,-4.7368,-4.7597,-4.7997,-4.8803,-4.9303,-4.9143,-5.3001,-5.5612,-5.5418,-5.2368,-5.0153,-4.9638,-4.9727,-4.9768,-4.9703,-4.9559,-4.9321,-4.8894,-4.8267,-4.8196,-4.8842,-4.7523,-4.701,-4.7307,-4.7718,-4.762,-4.7103,-4.7145,-4.703,-4.6759,-4.6824,-4.6128,-4.4881,-4.4689,-4.4017,-4.3141,-4.3178,-4.3178,-4.3141,-4.3322,-4.3268,-4.305,3.2196,2.7276,2.1505,1.5247,0.9525,0.4145,-0.1175,-0.3613,-0.5299,-0.6226,-0.6968,-0.7834,-0.9012,-0.857,-0.8546,-0.9554,-0.9172,-0.8428,-0.7434,-0.7733,-0.7534,-0.6437,-0.7593,-0.8193,-0.8101,-0.9167,-1.0234,-1.1311,-1.1875,-1.2593,-1.341,-1.405,-1.4328,-1.4243,-1.4328,-1.4405,-1.4566,-1.4741,-1.5829,-1.7451,-1.7598,-1.8472,-1.9929,-2.0237,-2.1237,-2.2804,-2.5456,-2.7953,-3.0033,-3.0311,-3.0649,-3.1094,-3.2158,-3.3498,-3.4369,-3.2996,-3.4045,-3.5629,-3.5354,-3.625,-3.7694,-3.9814,-3.9621,-3.9235,-4.046,-4.1374,-4.2164,-4.2835,-4.3441,-4.3733,-4.3454,-4.3704,-4.4458,-4.6006,-4.6988,-4.7654,-4.7905,-4.8791,-4.9419,-4.9326,-5.1577,-5.3146,-5.3152,-5.1602,-5.044,-5.0101,-4.986,-4.9648,-4.9502,-4.9327,-4.9265,-4.9364,-4.9179,-4.909,-4.9188,-4.661,-4.5504,-4.5898,-4.6824,-4.7042,-4.6626,-4.6552,-4.6336,-4.609,-4.5806,-4.5214,-4.4494,-4.4241,-4.383,-4.3286,-4.3322,-4.3268,-4.3214,-4.3322,-4.3123,-4.288,3.3441,2.7544,2.1342,1.7499,1.0693,0.4477,0.0936,-0.2332,-0.4635,-0.5026,-0.6659,-0.805,-0.8588,-0.8834,-0.8954,-0.873,-0.863,-0.8428,-0.773,-0.8425,-0.8226,-0.6833,-0.7906,-0.833,-0.7848,-0.8835,-0.9948,-1.1216,-1.217,-1.2865,-1.3516,-1.4579,-1.4972,-1.4796,-1.5057,-1.5197,-1.5223,-1.5808,-1.7096,-1.882,-1.9495,-2.0588,-2.1731,-2.1952,-2.3422,-2.5579,-2.7731,-3.1044,-3.399,-3.154,-3.1856,-3.3634,-3.4917,-3.531,-3.5209,-3.4846,-3.5509,-3.6521,-3.7297,-3.7842,-3.9166,-4.3078,-4.2752,-4.1374,-4.0858,-4.1319,-4.1964,-4.2349,-4.2668,-4.2914,-4.3084,-4.3811,-4.4668,-4.5504,-4.6993,-4.8102,-4.809,-4.8883,-4.958,-4.986,-5.0149,-5.0409,-5.0669,-5.0774,-5.0771,-5.0729,-4.9987,-4.9508,-4.9506,-4.9184,-4.927,-4.9808,-4.9877,-4.9458,-4.8595,-4.5374,-4.3844,-4.4095,-4.5562,-4.6296,-4.6398,-4.5694,-4.5434,-4.5453,-4.4653,-4.4255,-4.4135,-4.3851,-4.3652,-4.3513,-4.3479,-4.3426,-4.3338,-4.3196,-4.2994,-4.2822,3.2352,2.7994,2.2277,1.4778,1.0779,0.6381,-0.0345,-0.2499,-0.4153,-0.6485,-0.7368,-0.8363,-0.9762,-0.9963,-0.9979,-0.9817,-0.9813,-0.9221,-0.8024,-0.8524,-0.8623,-0.8117,-0.9186,-0.987,-0.9976,-1.0377,-1.0754,-1.0939,-1.2598,-1.3501,-1.382,-1.5648,-1.6498,-1.6461,-1.6752,-1.7032,-1.7327,-1.7319,-1.7606,-1.825,-1.9661,-2.0595,-2.1364,-2.3389,-2.3735,-2.3556,-2.7207,-3.0996,-3.4347,-3.4224,-3.4255,-3.4255,-3.4423,-3.4704,-3.5163,-3.5954,-3.59,-3.583,-3.7139,-3.9217,-4.1174,-4.1859,-4.1501,-4.0874,-4.0337,-4.0972,-4.1882,-4.2643,-4.2601,-4.2289,-4.1928,-4.5018,-4.7587,-4.7379,-4.8172,-4.8716,-4.8539,-4.8776,-4.9353,-5.0285,-5.0336,-5.041,-5.0682,-5.0517,-5.0531,-5.0837,-5.0014,-4.9518,-4.9501,-4.9458,-4.9439,-4.9565,-4.9778,-4.8234,-4.4773,-4.3923,-4.3555,-4.3597,-4.4122,-4.4535,-4.4871,-4.459,-4.4524,-4.4637,-4.4429,-4.4177,-4.4005,-4.3701,-4.3548,-4.3563,-4.3373,-4.3408,-4.3511,-4.3105,-4.2824,-4.2649,2.9849,2.5927,2.1086,1.5263,1.1432,0.7466,0.2034,-0.0112,-0.2121,-0.5018,-0.6262,-0.7738,-1.0213,-1.0447,-1.0319,-0.983,-0.932,-0.9027,-0.873,-0.9126,-0.9122,-0.8425,-0.9604,-0.9998,-0.9505,-0.9926,-1.0711,-1.1952,-1.3158,-1.4275,-1.5345,-1.6787,-1.7573,-1.781,-1.8354,-1.8521,-1.86,-1.9366,-1.9895,-2.0292,-2.1869,-2.3094,-2.403,-2.548,-2.6107,-2.637,-2.846,-3.1281,-3.4265,-3.5422,-3.5448,-3.5037,-3.5404,-3.5589,-3.5703,-3.6146,-3.6322,-3.6573,-3.7697,-3.9757,-4.1614,-4.1587,-4.1452,-4.1064,-4.0274,-4.0672,-4.1383,-4.2021,-4.2429,-4.2414,-4.1674,-4.3579,-4.5846,-4.7654,-4.8121,-4.8347,-4.8702,-4.9039,-4.9514,-5.0297,-5.0482,-5.0566,-5.0692,-4.9983,-4.9607,-4.9787,-4.9616,-4.939,-4.9177,-4.9175,-4.934,-4.9717,-4.7684,-4.6258,-4.5519,-4.4326,-4.3689,-4.3545,-4.3697,-4.4048,-4.4495,-4.4317,-4.4345,-4.4495,-4.4177,-4.3979,-4.3865,-4.3426,-4.3303,-4.3408,-4.316,-4.3214,-4.3356,-4.3142,-4.2938,-4.2786]}]]